ECMWFNIL_850_thetae_000.txt.gz
Theta_e
300 298 297 296 296 296 295 295 295 294 294 293 293 293 293 294 294 294 294 293 292 291 290 290 290 289 289 289 288 288 288 288 287 287 287 287 287 287 287 287 287 287
301 299 297 296 296 295 295 295 295 294 293 293 293 293 293 293 293 293 293 292 292 291 290 289 289 289 289 288 288 288 288 287 287 287 287 287 287 287 287 287 286 286
302 300 298 297 296 295 295 294 294 294 293 293 292 292 293 293 293 293 293 292 291 290 289 289 289 289 289 288 288 288 287 287 287 287 287 286 287 286 287 286 286 286
303 301 299 298 296 295 294 294 294 293 293 292 292 292 292 293 293 293 292 292 291 290 289 289 289 289 288 288 288 288 287 287 287 286 286 286 286 286 286 286 286 286
304 302 300 298 296 295 294 294 293 293 293 292 292 292 292 292 293 293 292 291 290 290 289 289 289 288 288 288 288 288 287 287 287 286 286 286 286 286 286 286 285 285
304 303 301 299 297 295 294 293 293 293 292 292 292 292 292 292 292 292 292 291 290 289 289 289 289 288 288 288 288 287 287 287 286 286 286 286 286 286 285 285 285 285
304 303 302 299 297 295 294 293 293 292 292 292 292 292 292 292 292 292 291 290 290 289 289 289 288 288 288 288 287 287 287 286 286 286 286 285 285 285 285 285 285 285
303 302 301 300 298 296 294 293 292 292 291 291 291 291 291 292 292 291 290 290 290 289 289 288 288 288 288 287 287 287 286 286 286 285 285 285 285 285 285 284 284 284
301 301 300 299 298 296 294 293 292 291 291 291 291 291 291 291 291 291 290 290 289 289 288 288 288 288 287 287 286 286 286 286 285 285 285 285 285 284 284 284 284 284
300 299 299 298 297 296 294 292 291 291 291 291 291 291 291 291 290 290 290 290 289 288 288 288 288 287 287 286 286 286 286 285 285 285 285 284 284 284 284 283 284 284
300 298 298 297 297 295 294 292 291 291 290 290 290 290 290 290 290 289 289 289 289 288 288 287 287 287 286 286 286 285 285 285 285 284 284 284 284 284 283 283 283 283
299 298 297 297 296 295 293 292 291 291 290 290 290 290 290 290 289 289 289 289 288 288 287 287 286 286 286 286 285 285 285 284 284 284 284 284 283 283 283 283 283 283
299 298 297 296 295 293 292 291 291 290 290 290 290 290 290 289 289 289 289 288 288 287 287 286 286 285 285 285 285 284 284 284 283 283 283 283 283 283 282 282 282 282
298 296 295 294 293 292 291 291 290 290 289 289 289 290 289 289 289 289 288 287 287 287 286 286 285 285 285 284 284 284 283 283 283 283 283 283 282 282 282 282 282 282
295 294 293 292 291 290 290 290 290 290 289 289 289 289 289 289 288 288 287 287 287 286 286 285 285 285 284 284 284 283 283 283 283 283 282 282 282 281 281 281 281 281
293 292 291 290 289 289 290 290 290 289 289 289 289 289 288 288 288 287 287 286 286 285 285 285 284 284 284 284 283 283 283 283 282 282 282 281 281 281 281 281 280 280
293 292 290 289 288 289 289 289 289 289 289 289 289 288 288 288 288 287 286 286 285 285 284 284 284 284 284 283 283 282 282 282 282 282 281 281 280 280 280 280 279 278
293 291 290 289 288 289 289 289 289 289 289 289 288 288 288 288 287 286 286 286 285 284 284 284 284 284 284 283 283 282 282 281 281 280 280 280 280 280 280 279 279 277
292 290 289 288 288 289 289 289 289 288 288 288 288 288 287 287 286 286 286 285 284 284 284 284 284 284 283 283 282 282 281 281 280 280 279 280 279 279 279 279 278 276
291 290 289 288 288 288 288 288 288 288 288 288 287 287 287 287 286 286 285 285 284 284 284 284 284 284 283 282 282 282 281 280 279 279 279 279 279 279 279 278 277 276
290 289 288 288 288 288 288 288 288 288 287 287 287 287 287 286 286 286 286 285 285 285 284 284 284 283 283 282 282 281 280 280 279 279 279 279 279 279 278 278 277 276
289 288 288 288 288 288 288 287 287 287 287 287 287 287 286 286 286 286 286 286 285 285 284 284 283 283 282 282 281 281 280 279 279 279 279 279 279 278 278 277 277 276
290 289 289 288 288 288 288 287 287 287 287 287 287 286 286 286 287 287 286 286 285 285 285 284 283 282 282 281 281 280 279 279 279 279 279 279 278 277 277 277 276 275
291 290 289 288 288 288 288 287 287 287 287 287 287 287 287 287 287 287 286 285 285 285 284 284 283 282 281 281 280 279 279 279 279 279 279 278 277 276 276 276 276 275
291 290 289 288 288 288 287 287 287 287 287 287 287 287 287 287 287 287 286 285 285 284 284 283 282 281 281 280 279 279 279 279 279 279 277 276 276 275 275 275 275 275
290 289 288 288 288 287 287 287 287 287 287 287 287 287 287 287 287 286 285 285 284 284 283 282 281 281 280 279 279 279 279 279 279 278 276 275 275 274 274 274 274 274

ECMWFNIL_850_thetae_003.txt.gz
Theta_e
302 303 303 303 302 302 301 301 300 299 299 298 298 297 297 296 296 295 294 294 294 294 294 294 294 294 294 294 294 293 292 290 289 289 288 288 288 287 287 287 287 287
303 302 302 302 302 302 301 301 300 299 298 298 297 297 296 296 295 294 294 294 294 294 294 294 294 294 294 294 294 293 291 290 289 288 288 288 287 287 287 287 287 286
303 303 303 303 303 302 302 301 300 299 298 297 296 296 295 295 294 294 293 294 294 294 294 294 294 294 294 293 293 292 290 289 289 288 288 288 287 287 287 286 286 286
305 305 305 305 303 302 301 300 300 299 298 297 296 295 295 294 294 293 293 293 293 293 294 294 293 293 293 293 293 291 290 289 288 288 288 287 287 287 286 286 286 286
306 306 305 305 304 302 300 300 300 300 299 297 296 295 294 294 293 293 293 293 293 293 293 293 293 293 293 293 292 290 289 288 288 287 287 287 286 286 286 286 286 286
305 305 305 304 304 303 301 300 299 299 299 298 296 295 294 293 293 293 293 293 293 293 293 293 293 293 293 292 291 290 289 288 287 287 287 286 286 286 286 286 286 286
306 304 303 303 302 302 301 300 298 298 298 298 296 295 294 293 293 293 292 292 293 293 293 293 293 293 292 292 290 289 288 288 287 287 287 286 286 286 286 286 286 286
305 303 302 301 301 300 300 299 298 297 297 297 296 295 294 293 293 292 292 292 292 292 293 293 292 292 292 291 290 289 288 287 287 287 286 286 286 286 286 285 285 286
304 303 302 300 299 299 299 298 297 296 295 296 295 294 293 292 292 292 292 292 292 292 292 292 292 292 292 290 289 288 288 287 287 286 286 286 286 286 285 285 285 286
304 303 301 300 299 298 297 296 295 294 293 294 294 293 292 292 291 292 292 292 292 292 292 292 292 292 291 290 289 288 287 287 287 286 286 286 286 286 285 285 285 285
304 303 301 300 300 299 298 296 295 294 293 292 292 292 292 291 291 291 291 291 292 292 292 292 292 292 291 289 288 288 287 287 286 286 286 286 286 285 285 285 285 285
303 303 302 301 300 299 298 297 295 294 292 292 291 291 291 290 290 291 291 291 291 292 292 292 292 291 290 289 288 287 287 287 286 286 286 286 285 285 285 285 285 284
303 303 302 301 300 299 298 297 295 294 293 292 291 290 290 290 290 290 290 291 291 291 291 291 291 291 290 288 288 287 287 286 286 286 285 285 285 285 284 284 284 284
303 302 301 300 299 298 297 296 295 294 292 291 291 290 290 290 290 290 290 290 291 291 291 291 291 290 289 288 287 287 287 286 286 285 285 285 285 284 284 284 284 284
302 301 300 299 298 297 296 296 295 293 292 291 290 289 289 289 289 289 290 290 291 291 291 290 290 289 288 287 287 287 286 286 286 285 285 285 285 284 284 284 284 283
302 301 300 299 297 297 296 295 294 292 291 290 289 289 289 289 289 289 289 290 290 290 290 290 289 288 287 287 287 286 286 286 286 285 285 285 285 284 284 284 284 283
301 300 299 298 297 296 295 294 293 292 291 290 289 289 289 288 288 289 289 290 290 290 290 289 289 287 287 287 286 286 286 286 286 285 285 285 284 284 284 284 283 283
301 300 299 298 297 296 295 294 292 291 291 290 289 289 289 288 288 289 289 289 290 289 289 289 288 287 286 286 286 286 286 286 286 286 286 285 285 284 284 283 282 282
301 300 299 298 297 295 294 293 292 291 291 290 290 289 288 288 288 288 289 289 289 289 289 288 287 286 286 286 286 286 286 286 287 287 286 285 284 283 283 282 282 281
301 300 299 297 296 295 294 293 292 291 290 290 289 289 288 288 288 288 289 289 289 289 288 287 286 286 287 286 286 286 286 286 287 286 286 285 284 283 282 282 281 280
301 300 298 297 295 294 293 292 291 290 290 289 289 289 288 288 288 288 288 288 288 288 287 286 286 287 287 286 286 286 286 286 286 285 285 284 283 282 281 281 280 280
301 299 298 296 295 294 293 292 291 290 290 289 289 288 288 288 288 288 288 288 288 287 286 287 287 287 286 286 286 286 285 285 285 285 284 283 282 281 280 280 280 280
301 299 297 296 295 294 293 292 291 290 290 289 289 288 288 287 287 288 288 288 287 286 287 287 287 287 286 286 285 285 285 285 285 284 283 282 281 280 280 280 280 280
300 299 297 296 295 294 293 292 291 290 289 289 289 288 287 287 287 288 287 287 287 286 287 287 287 287 286 286 285 285 284 284 284 283 282 281 280 280 280 279 280 280
300 298 297 296 295 294 293 291 291 290 289 288 288 287 287 287 287 287 287 286 286 286 286 287 287 287 286 286 285 285 284 284 283 282 281 280 280 280 279 280 280 280
299 298 297 296 295 293 292 291 290 290 289 288 287 286 286 287 287 286 286 286 286 286 286 287 287 286 286 286 285 284 283 283 282 281 281 280 280 280 280 280 280 279

ECMWFNIL_850_thetae_006.txt.gz
Theta_e
305 305 305 305 305 305 304 304 303 302 302 302 302 301 300 299 298 297 297 296 296 295 295 295 295 295 295 295 295 294 294 294 294 295 295 295 294 292 290 290 289 289
307 306 306 306 306 305 305 304 303 302 302 302 301 300 300 299 298 297 297 296 296 295 295 294 294 294 294 294 294 294 294 294 294 294 295 295 294 292 290 290 289 289
308 307 307 307 307 306 305 304 303 303 302 301 300 300 299 298 298 297 297 296 295 295 295 294 294 294 294 294 294 294 294 294 294 294 294 294 294 291 290 289 289 289
309 308 308 308 307 306 305 304 303 303 302 301 300 299 298 297 297 297 296 295 295 294 294 294 294 294 294 294 294 294 294 294 294 294 294 294 293 291 290 289 289 289
309 309 308 308 307 306 305 304 304 303 302 301 300 299 298 297 296 296 296 295 294 294 294 293 293 294 294 294 294 294 294 294 294 294 294 294 293 291 289 289 289 288
309 309 308 308 307 306 305 305 304 303 302 301 300 299 298 297 296 296 295 294 294 293 293 293 293 293 294 294 294 294 293 293 294 294 294 294 292 290 289 289 289 288
309 309 308 308 307 306 306 305 304 302 301 300 299 299 298 297 296 295 295 294 293 293 293 293 293 293 293 293 293 293 293 293 293 293 294 293 292 290 289 289 288 288
309 309 308 307 307 306 305 305 304 303 301 300 299 299 298 297 296 295 294 294 293 293 292 292 292 293 293 293 293 293 293 293 293 293 293 293 291 289 289 288 288 288
309 309 308 307 307 306 306 305 304 303 301 300 299 299 297 296 295 294 294 293 293 292 292 292 292 292 293 293 293 293 293 293 293 293 293 292 291 289 289 288 288 287
309 308 308 307 307 307 306 305 304 303 302 300 299 298 297 295 294 294 293 293 293 292 292 291 292 292 292 293 293 293 293 293 293 293 292 292 290 289 289 288 288 287
309 308 308 308 308 307 306 305 304 303 302 301 299 298 296 295 294 293 293 293 293 292 291 291 291 292 292 292 292 292 292 292 292 292 292 291 289 289 288 288 287 287
309 309 308 308 308 307 306 305 304 303 302 301 299 297 296 295 294 293 293 293 293 292 291 291 291 291 292 292 292 292 292 292 292 292 291 290 289 288 288 288 287 287
309 309 309 309 308 306 306 304 303 303 301 300 299 297 296 294 294 293 293 292 292 292 291 290 290 291 291 291 292 292 292 292 292 291 290 289 288 288 288 287 287 286
309 309 308 308 306 305 304 303 303 302 301 299 298 297 296 295 294 293 293 292 292 291 291 290 290 290 291 291 291 291 291 291 291 291 290 289 288 288 287 287 286 286
309 308 307 306 305 303 303 303 302 302 300 299 297 296 296 295 294 293 292 292 291 291 290 290 290 290 290 291 291 291 291 291 291 290 289 288 288 287 287 286 286 286
308 307 306 305 304 303 303 302 302 301 300 299 297 296 295 294 293 293 292 292 291 291 290 289 289 289 290 290 290 290 290 290 290 289 288 288 288 287 286 286 286 286
307 307 306 305 304 303 302 302 301 300 299 298 297 295 294 294 293 293 292 291 291 290 290 289 289 289 289 290 290 290 290 290 289 289 288 288 287 287 286 286 286 286
307 306 306 305 304 303 302 301 300 299 299 298 297 295 294 293 293 292 292 291 291 290 290 289 289 289 289 289 289 290 290 289 289 288 288 287 287 287 287 287 286 286
306 306 305 305 304 303 301 300 300 299 298 298 297 295 294 293 293 292 291 291 290 290 289 289 288 288 289 289 289 289 289 288 288 287 287 287 287 287 287 287 286 286
306 305 305 304 303 302 301 300 299 299 298 297 296 295 294 293 292 292 291 291 290 290 289 288 288 288 288 288 288 288 288 287 287 287 287 287 287 287 287 286 286 286
305 304 304 303 303 302 301 300 299 298 298 297 296 295 294 293 293 292 292 291 290 289 289 288 287 287 287 287 287 287 287 286 286 286 286 286 286 287 287 287 287 286
304 304 303 303 302 301 301 300 299 298 298 296 295 294 293 292 292 292 291 291 290 289 288 287 287 287 287 287 287 286 286 286 286 286 287 287 287 288 288 287 286 285
303 303 303 303 302 302 301 300 299 298 297 296 295 294 293 292 292 291 291 290 290 289 288 287 286 286 286 286 286 286 286 286 287 287 287 287 288 288 288 287 286 285
302 302 302 302 302 301 301 300 299 298 297 295 294 293 293 292 292 291 290 290 289 288 287 286 286 286 286 286 286 285 285 286 287 287 287 287 288 288 287 286 285 284
301 300 300 300 300 300 300 299 298 297 296 295 293 293 292 292 291 291 290 289 289 288 287 286 286 286 286 286 285 285 285 286 287 287 287 287 287 287 286 285 284 283
300 300 299 299 299 299 299 298 298 296 296 294 293 292 292 291 291 290 289 289 288 287 286 285 286 285 285 285 285 285 286 286 287 287 287 287 287 286 284 284 283 282

ECMWFNIL_850_thetae_009.txt.gz
Theta_e
307 307 306 306 306 306 305 305 305 305 306 306 306 306 305 305 304 302 300 299 297 296 296 295 295 295 295 295 295 295 295 295 295 295 295 295 295 295 295 295 295 294
307 306 306 306 306 306 306 306 306 306 306 307 306 306 305 304 303 302 301 299 298 296 295 295 295 295 295 295 295 295 295 295 295 295 295 295 295 295 295 295 295 294
307 307 307 307 307 307 306 306 306 306 306 306 306 305 305 304 303 302 301 299 298 297 296 295 294 294 294 294 295 295 295 295 295 295 295 295 295 295 295 295 294 294
308 308 308 308 308 308 307 306 306 306 307 306 306 306 305 304 303 302 300 299 298 297 296 295 294 294 294 294 294 294 294 294 294 294 294 294 294 294 294 294 294 294
308 308 309 309 309 308 307 307 308 308 307 307 307 306 305 304 303 302 300 299 298 297 296 295 294 294 294 294 294 294 294 294 294 294 294 294 294 294 294 294 294 294
309 308 308 308 308 308 308 308 308 308 308 307 307 306 305 304 303 302 301 299 298 297 297 295 294 294 293 293 293 293 293 294 294 294 294 294 294 294 294 294 294 294
310 309 308 307 306 306 307 307 308 307 307 307 306 306 305 304 304 303 301 299 298 297 297 296 295 294 293 293 293 293 293 293 294 294 294 294 294 294 294 294 294 293
311 310 308 307 306 306 307 307 308 308 307 306 306 306 305 305 304 303 301 299 298 297 297 296 295 294 293 293 293 293 293 293 293 294 293 293 294 294 294 294 294 293
310 310 309 307 307 306 307 308 308 308 307 306 306 306 305 305 304 303 301 299 298 297 296 296 295 294 293 293 293 292 293 293 293 293 293 293 293 293 293 293 293 292
309 309 309 308 307 307 307 308 308 308 307 307 306 305 305 305 304 302 301 299 298 297 296 296 295 295 293 293 292 292 292 292 293 293 293 293 293 293 293 293 293 292
308 308 308 308 308 308 308 307 308 308 308 307 306 305 305 304 303 302 301 300 299 298 297 296 295 295 294 293 292 292 292 292 293 293 293 293 293 293 293 293 292 291
308 308 308 309 309 309 308 306 306 307 307 307 306 305 305 304 303 302 301 301 300 298 297 296 295 294 294 293 292 292 292 292 292 292 292 292 292 292 292 292 291 290
307 308 308 309 309 308 308 306 305 305 306 306 306 304 303 303 302 302 301 301 299 298 297 296 295 294 294 293 292 292 291 291 292 292 292 292 292 292 291 291 290 290
307 308 308 308 307 306 306 305 305 304 305 305 304 303 303 302 301 301 300 299 298 297 296 295 295 294 293 293 292 292 291 291 291 291 291 292 291 291 291 290 290 290
307 307 307 306 305 305 305 305 305 304 304 304 303 303 302 301 300 299 298 297 296 296 295 295 294 294 293 293 293 292 291 291 291 291 291 291 291 291 291 290 289 289
308 307 306 305 305 304 304 304 304 303 303 303 303 302 301 300 299 298 297 296 296 295 295 295 294 294 293 293 292 292 291 290 290 290 290 291 291 291 290 289 289 289
307 306 306 305 305 304 304 304 304 304 303 302 302 301 300 299 298 297 296 296 295 295 295 295 294 294 293 292 292 292 291 290 290 290 290 290 290 290 289 289 289 289
305 305 305 305 305 304 303 303 303 303 302 302 301 301 300 298 298 297 296 296 295 295 295 294 294 293 293 292 292 291 290 289 289 290 290 290 290 289 289 288 288 288
304 303 303 304 304 304 303 302 302 302 302 301 301 300 299 298 297 297 296 295 295 295 294 294 293 293 292 292 292 291 290 289 289 289 289 289 289 289 288 288 288 288
303 302 302 302 302 302 301 301 301 301 300 300 299 299 298 298 297 296 296 296 295 295 294 294 293 292 292 291 291 291 290 289 288 288 288 288 288 288 288 288 287 287
301 301 301 301 300 300 300 299 299 299 299 299 298 298 298 298 297 296 296 295 295 294 294 293 293 292 291 291 291 290 289 288 288 287 288 287 287 287 287 287 287 286
299 299 299 299 298 298 298 298 298 298 298 298 298 297 297 296 296 296 295 295 295 294 294 293 292 292 291 290 290 289 289 288 287 287 287 287 287 287 286 286 286 286
298 298 298 298 297 297 297 298 298 297 297 297 297 297 296 296 296 295 295 295 295 294 293 292 292 291 291 290 289 288 288 287 287 287 286 286 286 286 286 286 286 286
297 297 297 297 297 297 297 297 297 297 297 297 297 297 297 296 296 295 295 295 294 294 293 292 292 291 290 290 289 287 287 287 286 286 286 286 286 286 286 286 286 286
296 296 297 296 296 296 296 296 296 296 296 296 296 296 296 296 295 295 295 295 294 293 293 292 292 291 290 289 288 287 286 286 286 286 286 286 286 286 286 285 285 286
296 296 296 296 295 295 295 295 295 294 294 295 295 295 295 295 294 294 294 294 293 293 292 291 291 290 289 289 287 286 286 286 285 286 286 286 286 286 286 286 286 285

ECMWFNIL_850_thetae_012.txt.gz
Theta_e
308 307 307 307 307 307 307 307 307 307 307 307 307 307 307 307 306 306 305 305 304 303 302 300 299 297 296 295 295 295 295 295 295 295 296 296 296 296 295 295 295 296
308 307 307 307 306 307 307 307 307 307 307 307 307 307 306 306 305 305 305 304 304 303 302 301 299 298 296 296 295 295 294 295 295 295 295 295 295 295 295 295 295 295
308 308 307 307 306 306 306 306 306 306 306 306 306 306 306 305 305 305 304 304 304 303 302 301 300 298 297 296 295 294 294 294 294 295 295 295 295 295 295 295 295 295
308 308 308 307 307 306 305 305 305 306 306 306 306 306 305 305 305 304 304 303 303 303 302 302 300 299 297 296 295 294 294 294 294 294 294 295 295 295 295 295 295 295
307 307 307 307 307 307 306 305 305 305 305 306 306 306 305 305 304 304 303 303 303 302 302 302 301 299 298 297 295 294 294 294 294 294 294 294 294 294 295 295 295 295
307 307 306 306 306 306 306 306 305 305 305 305 305 305 305 305 305 304 304 303 303 302 302 302 301 300 299 297 295 294 294 293 293 293 293 294 294 294 294 294 294 294
307 307 306 306 305 305 306 306 306 305 304 304 304 304 305 305 305 304 304 303 303 302 302 302 301 300 299 298 296 295 294 293 293 293 293 293 294 294 294 294 294 294
306 306 306 305 305 305 305 305 305 305 305 304 304 304 304 304 304 304 304 303 303 302 302 302 301 301 300 298 297 296 294 293 293 293 293 293 293 293 294 294 294 294
304 304 304 305 305 305 305 306 306 305 305 305 304 304 303 303 304 304 304 303 302 302 302 301 301 301 300 299 298 297 296 294 293 293 293 293 293 293 293 293 294 294
304 304 303 304 305 305 306 306 306 306 305 305 304 304 304 303 303 303 303 303 302 302 301 301 301 301 300 299 298 297 296 295 294 293 293 293 293 293 293 293 294 294
304 304 303 304 304 305 306 306 306 305 305 305 304 304 304 304 304 303 303 303 303 303 302 301 301 301 300 300 299 298 297 296 295 294 293 293 293 292 293 293 293 293
303 303 303 304 304 304 305 305 305 304 304 304 304 303 303 303 303 303 304 304 304 303 303 301 300 300 300 300 299 298 297 296 295 294 293 293 292 292 292 293 293 293
303 302 302 303 303 303 303 304 304 303 303 303 303 302 303 303 303 303 304 304 304 304 303 301 300 299 299 299 298 298 297 297 296 295 294 293 292 292 292 292 292 293
302 301 301 301 302 302 302 302 302 302 302 302 301 301 302 302 303 302 302 303 304 304 303 302 300 299 298 298 298 298 298 297 297 296 295 293 292 292 292 292 292 292
301 300 300 300 300 301 301 301 301 302 301 300 300 300 300 301 302 301 300 300 301 302 302 302 301 300 300 299 298 298 298 297 297 296 295 294 293 292 292 291 291 292
299 298 298 298 298 299 300 300 300 300 300 299 299 299 299 299 299 299 299 299 299 299 300 301 301 301 300 299 298 297 297 297 296 296 295 294 293 292 291 291 291 291
298 297 297 296 297 297 298 298 299 299 299 299 298 298 298 298 297 298 298 298 297 297 298 299 301 301 300 298 297 296 296 296 296 295 295 294 293 292 291 291 291 291
298 298 297 296 295 295 296 296 297 297 297 297 297 297 297 297 297 297 297 297 296 296 297 297 298 299 298 298 297 296 295 295 295 295 294 294 293 292 291 291 290 290
296 297 297 297 295 294 294 295 295 295 296 296 296 296 296 296 296 295 295 295 295 295 296 296 296 296 296 296 295 295 295 294 294 294 294 293 293 292 291 290 290 290
295 296 297 297 296 294 294 294 294 294 295 295 295 295 295 295 295 295 294 295 295 295 295 295 295 295 295 295 294 294 294 294 293 293 293 293 292 292 291 290 289 289
294 294 295 296 296 295 294 293 293 293 294 294 294 294 294 295 294 294 294 294 294 294 294 294 294 294 294 294 294 293 293 293 293 292 292 292 292 291 290 290 289 289
293 293 294 295 296 296 295 294 293 293 293 293 293 294 294 293 293 293 293 294 294 294 294 294 294 293 293 293 293 293 293 292 292 292 291 291 291 290 289 289 288 288
292 293 293 294 295 295 295 294 293 292 292 292 292 293 293 293 293 293 293 293 293 293 294 293 293 293 292 292 292 292 292 291 291 291 291 290 290 290 289 288 287 287
291 291 292 293 294 295 295 295 294 292 292 291 291 292 292 292 292 292 292 292 293 293 293 293 293 293 292 292 292 291 291 291 291 291 290 290 289 289 288 287 287 287
291 291 291 292 293 294 294 294 294 293 292 291 291 291 291 291 291 291 291 291 292 292 292 292 292 292 291 291 291 291 290 290 290 290 290 290 289 288 288 286 286 286
290 290 290 291 292 293 294 294 294 294 293 292 291 290 290 290 290 290 290 291 291 291 291 291 291 291 290 290 290 290 290 290 290 290 290 289 289 288 287 286 286 286

ECMWFNIL_850_thetae_018.txt.gz
Theta_e
303 302 301 301 300 300 301 301 301 301 301 301 302 302 302 303 303 303 302 302 302 302 302 301 300 299 298 298 298 298 298 298 297 296 296 296 296 296 296 296 296 297
304 303 303 302 301 301 300 300 300 300 301 301 301 301 301 302 302 302 302 302 302 302 302 301 301 300 299 298 298 298 297 298 297 297 296 296 296 295 296 296 296 296
303 303 303 303 303 302 301 301 300 300 300 300 301 301 301 301 301 301 301 301 302 301 301 301 301 301 300 299 298 297 297 298 298 297 296 296 295 295 295 295 296 296
302 302 302 302 302 302 302 302 301 300 300 299 300 300 300 300 300 300 300 300 301 301 301 301 301 301 301 300 299 298 298 298 298 298 297 296 295 295 295 295 295 295
300 300 301 301 301 302 302 302 301 301 300 299 299 299 299 299 299 299 300 300 300 300 301 301 301 301 301 301 301 300 299 299 299 299 298 297 296 295 294 294 295 295
298 299 299 300 300 301 301 301 301 301 300 299 299 298 298 299 299 299 299 299 299 299 299 300 300 301 301 301 301 301 301 300 300 299 298 298 297 295 294 294 294 294
297 297 298 298 299 299 300 300 300 301 300 300 300 299 298 298 298 298 298 298 299 299 299 299 299 300 300 300 300 301 301 301 301 300 299 298 298 296 295 294 294 294
297 297 297 297 297 298 298 299 299 300 300 300 300 300 300 299 298 297 297 298 298 298 298 298 298 299 299 299 300 300 300 301 301 301 301 299 298 297 296 294 293 293
296 297 297 297 297 297 297 297 298 298 299 300 300 300 300 300 299 298 297 297 297 297 297 297 298 298 298 298 299 299 300 300 301 301 301 300 300 299 297 295 293 293
295 295 296 296 296 296 296 296 296 297 298 298 299 299 299 300 300 300 299 298 296 296 296 296 297 297 297 298 298 299 299 299 300 300 300 301 301 300 299 297 295 293
294 294 294 294 295 295 296 295 295 295 296 296 297 298 298 298 299 299 299 299 298 297 296 295 296 296 297 297 298 298 298 298 299 299 299 300 300 300 300 299 297 296
292 292 292 293 293 293 294 295 295 295 294 295 295 296 297 297 298 298 298 298 298 298 297 296 295 295 295 296 296 296 297 297 297 298 299 299 299 299 300 300 299 298
289 290 290 291 291 291 292 292 293 294 294 294 294 294 295 296 296 297 297 297 296 297 297 297 296 295 294 294 295 295 295 296 296 297 297 298 298 298 299 299 299 299
288 288 288 289 289 290 290 290 291 292 293 294 294 294 294 294 295 296 296 296 296 295 295 295 295 295 295 294 293 294 294 294 295 295 296 296 297 297 298 298 298 298
288 287 287 287 287 288 289 289 289 290 291 292 293 293 293 294 294 295 295 296 296 295 294 294 293 294 294 294 293 293 293 294 294 294 295 295 295 296 297 297 297 297
287 287 287 286 286 286 287 287 288 288 289 289 290 292 292 293 293 294 294 295 295 295 295 294 293 293 292 292 292 292 292 293 293 293 294 294 294 295 295 296 296 297
286 286 286 286 286 286 286 286 286 287 287 287 288 289 290 291 292 292 293 294 294 295 295 295 295 294 292 291 291 291 291 292 292 292 293 293 293 294 295 295 296 296
286 286 286 286 286 285 285 285 285 286 286 286 286 287 287 288 289 290 291 292 293 294 294 295 295 294 292 291 291 291 291 291 291 291 292 292 292 293 294 294 295 295
286 286 286 286 285 285 285 285 285 285 285 285 286 286 286 286 286 287 288 289 290 292 293 294 295 295 293 291 290 290 290 290 290 291 291 291 292 292 293 293 294 294
286 286 286 286 286 286 285 285 285 285 285 285 285 285 285 286 286 286 286 286 287 288 290 292 294 294 294 292 291 290 290 290 290 290 290 291 291 291 292 292 293 293
286 286 286 286 285 286 285 286 286 286 285 285 285 285 285 285 285 285 285 285 286 286 287 289 291 293 294 293 291 290 289 289 289 289 290 290 290 290 291 291 292 292
285 285 285 285 285 285 285 285 285 286 286 286 285 285 285 285 285 285 285 285 285 285 285 286 288 291 292 293 292 290 289 289 289 289 289 289 290 290 290 290 291 291
284 285 285 285 285 285 285 285 285 285 285 286 285 286 286 285 285 285 285 285 285 285 285 285 286 287 289 292 293 291 289 288 288 288 288 289 289 289 290 290 290 290
284 284 284 284 284 284 284 284 284 285 285 285 285 285 285 285 285 285 285 285 285 285 285 285 285 285 286 289 292 292 290 288 288 288 288 288 289 289 289 289 289 289
283 283 283 283 283 284 284 284 284 284 284 284 284 285 285 285 285 285 286 286 286 285 285 285 285 285 285 286 289 291 291 289 287 287 287 288 288 288 288 288 289 289
282 282 283 283 283 283 283 283 283 284 284 284 284 284 284 285 285 285 285 286 286 286 286 285 285 285 285 285 286 289 291 291 288 287 287 287 288 288 288 288 288 288

ECMWFNIL_850_thetae_024.txt.gz
Theta_e
300 300 300 300 300 301 301 301 301 301 302 302 302 301 301 301 300 299 299 298 298 299 299 300 300 300 301 300 300 299 298 298 298 298 299 299 299 299 298 297 296 295
298 298 299 299 299 299 300 300 300 300 300 300 301 300 301 301 301 301 300 299 299 298 298 299 299 300 300 300 300 300 299 298 298 298 298 298 298 298 298 297 297 296
295 295 296 297 297 298 298 298 298 299 299 299 299 300 300 300 301 301 301 300 300 300 299 299 299 299 299 299 300 300 299 299 298 298 297 297 297 297 297 297 297 296
292 292 293 293 294 294 295 296 297 297 297 298 298 298 299 299 300 300 300 300 301 300 300 300 300 300 299 299 299 299 299 299 299 298 298 297 297 297 297 296 296 296
290 290 291 291 291 291 292 293 293 294 294 295 296 296 297 297 298 298 299 299 300 300 300 300 300 300 300 300 299 299 298 298 298 298 297 298 297 297 297 296 296 296
289 289 289 289 289 289 289 290 290 291 291 292 292 293 294 295 295 296 297 298 298 299 299 300 300 300 300 300 299 299 299 298 298 297 297 297 297 297 297 296 296 296
289 288 288 288 288 288 288 288 288 288 288 289 289 290 290 291 292 293 294 295 296 297 298 298 299 299 300 300 300 300 299 298 298 297 296 296 296 296 296 296 296 296
288 288 288 287 287 287 287 287 287 287 287 287 287 288 288 288 289 289 290 291 292 293 295 296 297 298 299 299 299 300 300 299 298 297 297 296 296 296 296 296 296 296
287 287 287 287 287 287 287 287 287 287 287 287 287 287 287 287 287 288 288 289 289 290 291 292 294 295 297 297 298 298 299 299 298 298 297 296 296 296 295 295 295 295
287 287 287 287 287 287 287 287 287 287 287 287 287 287 287 287 287 287 287 287 288 288 288 289 290 291 293 294 295 296 296 297 297 297 296 296 296 295 295 295 295 295
287 287 287 287 287 287 287 287 287 287 287 287 287 287 287 287 287 287 286 286 287 287 287 288 288 288 289 290 292 293 294 295 296 296 295 295 295 295 295 295 295 295
287 287 287 287 287 287 287 287 287 287 287 287 287 287 287 287 287 287 287 287 286 286 286 287 287 287 287 287 288 289 291 293 294 295 296 295 295 295 295 295 295 295
287 287 287 287 287 287 287 287 287 287 287 287 287 287 287 287 287 287 287 287 287 287 286 286 286 287 287 287 287 287 287 289 290 292 294 295 296 296 295 295 295 295
287 287 287 287 287 287 287 287 287 286 286 286 286 286 286 286 287 287 287 287 287 287 287 286 286 286 286 286 286 286 286 286 287 288 289 291 293 295 296 296 296 295
287 287 287 287 287 287 287 287 287 287 286 286 286 286 286 286 286 286 286 286 287 286 287 286 286 286 286 286 286 286 286 286 286 286 287 287 289 290 292 294 296 296
287 287 287 287 287 287 286 286 286 286 286 286 286 286 286 286 286 286 286 286 286 286 286 286 286 286 286 286 286 286 286 286 286 286 286 286 286 287 288 290 292 294
287 286 286 286 286 286 286 286 286 286 286 286 286 286 286 286 286 286 286 286 286 286 286 286 286 286 286 286 286 286 286 286 285 285 285 285 286 286 286 286 287 289
285 285 285 285 285 285 284 284 284 285 285 285 285 285 285 285 285 285 285 285 285 285 285 286 286 286 286 286 286 286 286 286 286 286 285 285 285 285 286 286 286 286
284 284 284 284 284 283 283 283 283 284 284 284 284 285 285 285 285 285 285 285 285 285 285 285 285 286 286 285 286 286 286 286 286 286 286 285 285 285 285 285 285 285
283 282 282 282 282 282 282 282 282 282 282 283 283 283 283 284 284 284 284 284 284 284 284 284 284 285 285 285 285 285 286 286 285 286 286 286 285 285 285 285 285 285
282 282 281 281 281 281 281 281 281 281 281 281 280 281 281 282 282 283 283 283 283 283 283 283 284 284 284 284 285 285 285 285 285 285 285 285 285 285 285 285 285 285
281 281 280 280 280 280 279 279 279 279 279 279 279 279 280 280 281 282 282 282 283 283 283 283 284 284 284 284 284 284 284 284 284 284 285 285 285 285 285 285 285 285
280 279 279 279 279 279 279 278 278 278 278 278 278 278 278 279 279 280 280 281 281 282 282 282 283 284 284 284 284 284 283 283 283 283 283 283 284 285 285 285 285 285
280 279 279 278 278 278 278 278 278 278 277 277 276 276 276 277 277 277 278 278 278 279 279 279 281 282 283 283 284 284 284 283 282 282 282 282 283 284 284 285 285 285
279 279 278 278 278 277 277 277 277 277 276 276 275 274 274 275 275 274 275 276 276 276 276 276 277 278 279 280 280 281 282 282 281 280 281 281 282 283 283 284 284 285
279 278 278 278 277 277 277 276 276 275 275 274 273 273 273 272 273 272 272 273 273 273 273 273 273 274 275 275 276 276 277 278 278 278 279 280 281 282 282 283 283 284

ECMWFNIL_850_thetae_027.txt.gz
Theta_e
298 298 298 297 297 297 297 297 297 298 298 298 298 298 299 299 299 300 300 300 300 301 301 301 300 299 299 299 298 299 299 299 299 299 298 299 299 300 300 300 299 299
295 295 295 295 295 295 295 294 294 295 295 295 295 295 296 296 296 297 298 298 299 299 300 300 300 300 300 299 299 298 298 298 299 298 298 298 298 298 298 299 299 299
292 292 293 293 293 293 293 292 292 293 293 293 293 293 293 293 293 293 293 294 295 296 297 298 299 299 300 300 299 299 299 298 298 298 298 298 298 297 297 297 298 298
290 290 290 290 290 290 291 291 291 291 291 291 291 291 291 291 291 290 290 291 291 292 293 294 295 297 298 299 299 299 299 299 298 297 297 297 297 297 297 297 297 297
289 289 289 288 288 288 289 289 289 289 289 290 290 290 290 290 290 290 290 289 289 289 289 290 290 292 293 295 297 298 299 299 298 297 297 297 297 296 296 296 296 296
289 289 288 288 288 288 288 288 288 288 288 288 288 288 288 289 289 289 289 289 289 289 289 289 289 289 289 290 291 293 295 297 298 298 297 297 297 296 296 296 295 296
288 288 288 288 288 288 288 288 287 287 287 287 287 287 287 287 287 287 288 288 288 288 288 288 288 288 288 288 288 289 290 292 294 295 297 298 298 297 296 295 295 295
287 287 287 287 287 287 287 287 287 287 287 287 287 287 287 287 287 287 287 287 287 287 287 288 288 288 288 288 288 288 288 288 289 290 292 294 296 297 297 296 295 294
287 287 287 287 287 287 287 287 287 287 287 287 287 287 287 287 287 287 287 287 287 287 287 287 287 287 287 287 288 288 288 287 287 287 288 289 291 293 295 296 296 296
287 287 287 287 287 287 287 287 287 287 287 287 287 287 287 287 287 287 287 287 287 287 287 287 287 287 287 287 287 287 287 287 287 287 287 287 287 288 290 292 294 295
287 287 287 287 287 287 287 287 287 287 287 287 287 287 287 286 286 286 286 286 286 286 286 286 286 286 287 286 286 286 286 286 287 287 287 287 287 287 287 287 289 291
288 288 288 288 287 287 287 287 287 287 286 286 286 286 286 286 286 286 286 285 286 286 286 286 286 286 286 286 286 286 286 286 286 286 286 286 287 287 287 286 286 287
288 288 288 288 288 287 287 287 287 287 286 286 286 286 286 286 286 286 285 285 285 285 285 285 285 285 285 285 286 286 286 286 286 286 286 286 286 286 286 286 286 286
288 288 288 288 288 287 287 287 286 286 286 286 286 285 285 285 285 285 285 285 285 285 285 285 285 285 285 285 285 285 285 285 285 286 286 286 286 286 286 286 286 286
288 288 288 287 287 287 287 286 286 286 285 285 285 285 285 285 285 285 285 285 285 285 285 285 285 285 285 285 285 285 285 285 285 285 285 285 286 286 286 286 286 286
288 288 287 287 286 286 286 285 285 285 285 285 285 285 285 285 285 285 285 285 285 285 285 285 285 285 285 285 284 284 284 284 284 284 284 284 285 285 285 286 286 286
288 287 286 286 285 285 284 284 284 284 284 284 284 284 284 284 284 284 284 284 284 284 284 284 284 285 285 284 284 284 283 283 283 284 284 284 284 284 284 285 285 285
286 286 285 284 284 283 283 283 283 283 283 283 283 283 283 283 283 284 284 284 284 284 284 284 284 284 284 284 284 284 283 283 283 283 283 283 283 283 284 284 284 284
285 284 283 283 283 282 282 282 282 282 281 281 281 282 282 282 283 283 283 283 283 283 284 284 284 284 284 284 284 283 283 282 282 282 282 282 282 283 283 283 284 284
283 283 282 282 282 281 281 281 281 281 281 281 280 281 281 281 282 282 282 282 283 282 282 283 284 284 284 283 283 282 282 281 280 280 280 281 281 282 282 282 283 283
282 282 282 281 281 280 280 280 280 280 280 280 279 280 280 280 280 280 281 281 281 281 281 281 282 283 282 281 280 280 279 278 278 278 279 279 280 280 281 281 281 282
282 281 281 281 280 280 280 280 280 279 279 279 278 279 279 279 279 279 279 279 280 279 278 279 281 281 280 279 277 277 276 276 276 277 277 278 278 279 279 280 280 281
281 281 281 280 280 280 280 280 279 279 279 278 278 278 278 278 278 278 278 278 278 277 276 276 278 279 278 276 274 274 274 274 275 275 275 276 276 277 277 278 278 279
281 280 280 280 280 279 279 279 279 279 278 278 277 277 277 277 276 276 276 276 275 275 274 273 274 275 274 273 273 272 272 272 272 273 273 273 274 274 275 275 276 277
280 280 280 279 279 279 279 279 278 278 278 277 276 276 276 275 274 273 274 274 273 272 272 271 272 273 273 272 271 271 270 270 270 271 271 272 272 272 273 273 274 274
280 279 279 278 278 278 278 278 278 277 277 276 276 275 274 274 273 272 272 273 271 270 271 270 270 271 271 270 269 269 268 269 269 270 270 271 271 271 272 272 272 272

ECMWFNIL_850_thetae_030.txt.gz
Theta_e
298 297 297 296 295 294 293 293 293 292 293 293 292 292 292 291 291 292 292 292 292 293 293 294 295 296 297 297 298 298 298 298 298 298 298 298 298 298 298 299 299 299
295 295 294 294 293 292 292 291 291 291 291 290 290 290 290 290 290 290 290 290 290 290 290 290 290 291 291 292 293 295 296 296 297 297 297 297 297 297 298 298 298 298
292 292 292 291 291 291 290 290 290 290 290 289 289 289 289 289 289 289 289 289 289 289 289 289 289 289 289 289 289 290 291 292 293 293 294 295 295 296 297 297 297 297
290 290 290 290 290 289 289 289 289 289 289 289 289 289 289 289 289 289 289 289 289 289 289 289 289 288 288 288 288 288 289 289 289 289 290 291 291 292 293 294 295 296
289 289 289 289 289 288 288 288 289 289 289 288 289 289 289 289 289 289 289 289 288 288 288 288 288 288 288 288 288 288 288 288 288 288 288 289 289 289 289 290 291 293
289 289 288 288 288 288 288 288 288 288 288 288 288 288 288 288 288 288 288 288 288 288 288 288 288 288 288 287 288 288 288 288 288 287 287 288 288 288 288 288 288 289
288 288 288 288 288 288 288 288 288 288 288 288 288 288 288 287 287 287 287 287 288 288 288 288 288 287 287 287 287 287 287 287 287 287 287 287 287 287 287 287 287 287
288 288 288 288 288 288 288 288 288 287 287 287 287 287 287 287 287 287 287 287 287 287 287 287 287 287 287 287 287 287 287 287 286 286 286 287 287 287 287 287 287 287
288 288 288 288 288 288 288 287 287 287 287 287 287 287 286 286 286 286 286 286 286 286 286 286 286 286 286 286 287 287 287 287 287 287 286 286 286 286 286 286 287 287
288 288 288 288 288 288 288 288 287 287 287 287 287 286 286 286 286 286 286 286 286 286 286 286 286 286 286 286 286 286 286 286 286 287 286 287 287 286 286 286 286 286
288 288 288 288 288 288 288 288 287 287 287 287 287 286 286 286 286 286 286 286 286 286 286 286 286 286 286 286 286 286 286 286 286 286 286 286 286 286 286 286 286 286
288 288 288 288 288 288 288 288 287 287 287 287 286 286 286 286 286 286 286 286 286 286 286 286 286 286 286 286 286 286 286 285 285 285 285 285 285 286 286 286 286 286
289 289 288 288 288 288 288 287 287 287 287 286 286 286 286 286 286 286 286 286 286 286 286 286 286 286 286 286 285 285 285 285 285 285 285 285 285 285 285 285 285 285
289 289 288 288 288 288 288 287 287 287 286 286 285 285 285 285 285 286 286 286 286 286 286 286 286 286 286 285 285 284 284 283 284 284 284 284 284 284 284 284 285 285
289 289 288 288 288 288 288 287 287 286 286 285 285 285 285 285 285 285 285 285 285 285 285 285 285 285 285 285 284 284 283 282 282 282 282 282 282 283 284 284 285 285
289 289 288 288 288 288 287 286 286 285 285 285 285 285 285 285 285 285 285 285 285 285 285 285 285 285 285 284 283 282 281 281 281 280 280 280 280 281 282 283 283 284
288 288 288 288 288 287 286 285 284 284 284 284 284 284 284 284 284 285 285 285 285 285 285 285 285 285 284 283 283 282 280 279 279 279 280 280 280 280 281 281 282 282
288 288 288 287 287 286 284 284 284 283 283 283 283 283 284 284 284 284 284 284 284 284 284 284 285 284 283 282 282 281 280 278 278 278 279 279 279 279 279 280 280 281
287 287 286 286 285 284 283 283 283 283 283 283 283 283 284 284 284 284 284 284 283 283 283 283 283 283 281 280 280 279 278 277 277 277 278 278 278 278 278 278 279 279
286 286 285 284 283 283 283 283 283 283 283 283 283 283 283 284 284 284 283 283 282 282 282 282 282 280 278 278 277 276 276 275 275 275 276 277 277 278 277 278 278 277
285 284 283 283 283 282 282 282 282 282 283 283 283 283 283 283 283 283 282 282 281 280 280 281 280 278 276 276 275 274 273 273 272 273 274 274 276 276 276 276 277 277
283 283 283 282 282 282 282 282 282 282 282 282 282 282 282 282 282 282 281 281 280 279 278 279 278 276 274 274 273 272 272 271 271 272 272 273 274 274 274 274 275 275
283 282 282 282 282 282 282 282 282 282 282 281 281 282 282 281 281 281 280 279 279 278 277 277 277 275 273 273 272 271 271 271 270 271 271 271 271 272 272 272 272 272
282 282 282 281 281 281 282 282 282 282 281 280 281 281 281 281 280 280 279 278 277 276 275 274 274 273 272 272 272 271 271 270 269 269 269 269 269 269 270 270 270 270
282 281 281 281 281 281 282 282 281 281 280 280 280 280 280 280 279 279 278 277 275 274 273 272 273 272 272 271 271 271 270 270 268 268 268 268 268 268 269 269 269 269
281 281 281 281 281 281 281 281 280 280 280 280 280 279 279 279 278 277 276 275 274 273 273 272 272 272 272 271 271 271 270 269 268 268 268 268 268 268 268 268 269 269

ECMWFNIL_850_thetae_033.txt.gz
Theta_e
297 297 297 297 297 297 296 296 295 294 294 293 293 292 292 291 291 290 290 290 290 290 290 290 290 290 290 290 290 290 290 290 289 289 289 289 289 289 290 291 292 293
296 295 295 295 295 294 294 294 293 292 292 291 291 290 290 290 289 289 289 289 289 289 289 289 289 289 289 289 289 289 289 289 289 289 289 289 288 288 288 288 288 289
294 293 293 293 292 292 292 291 291 291 290 290 290 290 290 289 289 289 289 289 289 289 289 289 288 289 289 289 289 289 289 288 289 289 288 288 288 288 288 288 288 288
291 291 291 290 290 290 290 289 289 289 289 289 289 289 289 289 289 289 289 289 289 289 289 288 288 288 288 288 288 288 288 288 288 288 288 288 288 288 287 287 287 287
289 289 289 289 289 289 289 289 289 289 289 289 289 289 289 289 289 289 289 289 289 289 289 289 288 288 288 288 288 287 287 287 287 287 287 287 287 287 287 287 287 287
289 289 289 288 288 288 288 288 288 288 288 288 288 288 288 288 288 288 288 288 288 288 288 288 288 288 288 288 288 287 287 287 287 287 287 287 287 287 287 287 287 287
288 288 288 288 288 288 288 288 288 288 288 288 288 288 288 288 288 287 287 287 287 287 287 287 287 287 287 287 287 287 287 287 287 287 287 287 287 287 287 287 287 287
288 288 288 288 288 288 288 288 288 288 288 288 288 288 288 288 287 287 287 287 287 287 287 287 287 287 287 287 287 287 287 287 287 287 287 287 287 287 287 287 287 287
288 288 288 288 288 288 288 288 288 288 288 288 288 288 288 287 287 287 287 287 287 287 287 286 286 287 286 287 287 287 287 287 287 287 287 287 287 287 287 287 287 287
288 288 288 288 288 288 288 288 288 288 288 288 288 288 288 287 287 287 287 287 287 287 286 286 286 286 286 286 286 286 286 287 287 287 287 287 287 287 287 287 287 287
288 289 289 289 289 289 289 288 288 288 288 288 288 288 288 287 287 287 287 286 286 286 286 286 286 286 286 286 286 286 286 286 286 286 286 287 287 287 287 287 287 287
289 289 289 289 289 289 289 289 288 288 288 288 288 288 287 287 286 286 286 286 286 286 286 286 286 285 285 285 285 285 285 285 286 286 286 286 286 286 287 286 287 287
289 289 289 289 289 289 289 289 288 288 288 288 288 287 287 286 286 285 285 285 285 285 285 285 285 285 285 285 285 285 285 285 285 285 285 286 286 286 286 286 286 286
289 289 289 289 289 289 289 289 289 288 288 288 288 287 286 285 285 285 285 285 285 285 285 285 285 285 285 285 285 285 285 285 285 285 285 285 285 285 285 285 285 285
289 289 289 289 289 289 289 289 289 288 288 288 287 286 285 285 284 284 284 284 284 284 284 284 285 285 285 284 284 284 284 284 284 285 284 284 285 285 285 285 284 283
289 289 289 289 289 289 289 289 288 288 288 287 287 285 284 284 284 284 284 284 284 284 284 284 284 284 284 284 284 283 283 284 284 284 284 284 284 284 284 284 283 282
289 289 289 289 289 289 288 288 288 288 287 287 285 284 284 284 284 284 284 284 284 284 284 284 284 284 284 284 283 283 282 282 283 283 283 283 283 282 282 282 281 281
289 289 289 289 289 288 288 287 287 287 286 285 284 284 284 284 283 283 283 284 284 284 284 284 284 284 283 283 283 282 281 280 281 281 281 281 281 280 279 279 279 278
289 289 289 288 288 287 287 287 286 285 284 284 283 283 283 283 283 283 283 284 284 284 284 284 284 283 283 282 282 281 280 279 279 279 279 279 279 278 277 277 276 276
289 288 288 288 287 287 287 286 285 284 283 283 283 283 283 283 283 283 283 283 283 283 283 283 283 282 282 281 281 280 279 278 278 278 277 277 277 276 275 275 275 274
288 288 288 287 287 286 285 284 283 283 283 283 283 283 283 283 283 283 283 283 283 283 283 283 282 281 281 280 280 279 278 277 276 276 276 276 275 275 274 274 274 273
288 287 287 287 286 285 284 283 283 283 282 282 282 282 282 283 283 283 283 283 282 282 282 282 281 280 280 279 278 277 276 275 275 275 275 274 274 274 274 273 273 272
287 287 286 285 284 283 283 283 282 282 282 282 282 282 282 283 283 283 282 282 282 281 280 281 281 280 279 278 277 275 275 274 274 274 274 274 273 273 272 272 271 270
286 286 285 284 283 283 282 282 282 282 282 282 282 282 282 282 282 282 282 281 280 280 279 280 280 279 277 277 276 274 274 273 273 273 273 272 272 271 271 270 270 269
286 285 284 283 282 282 282 282 282 281 281 281 282 282 282 282 281 281 281 280 280 279 278 278 279 278 277 276 275 274 274 273 273 272 271 271 270 270 270 270 270 270
285 284 282 282 282 282 281 281 281 281 281 281 281 281 281 281 281 280 280 280 279 278 278 277 277 277 276 275 275 274 273 273 273 272 270 270 269 269 270 270 270 270

ECMWFNIL_850_thetae_036.txt.gz
Theta_e
297 297 296 296 296 296 295 295 294 293 292 292 292 291 291 290 290 289 289 289 289 289 289 289 289 289 289 289 289 289 289 289 289 289 288 288 288 288 288 288 288 288
296 296 295 295 294 294 293 293 292 291 291 291 291 290 290 290 289 289 289 289 289 289 288 288 288 288 288 288 289 288 289 289 289 288 288 288 288 288 288 287 287 287
295 294 294 293 292 292 292 291 291 291 290 290 290 290 289 289 289 289 289 289 289 289 289 289 288 288 288 288 288 288 288 288 288 288 288 288 288 288 287 287 287 287
293 292 292 291 291 291 291 290 290 290 289 289 289 289 289 289 289 289 289 289 289 289 289 289 289 288 288 288 288 288 288 288 288 288 288 287 287 287 287 287 287 287
291 291 290 290 290 290 289 289 289 289 289 289 289 288 288 288 288 288 288 288 288 288 288 288 288 288 288 288 288 288 288 288 288 287 287 287 287 287 287 287 287 287
290 289 289 289 289 289 288 289 288 288 288 288 288 288 288 288 288 288 288 288 288 288 288 288 287 287 287 288 288 288 288 287 287 287 287 287 287 287 287 287 287 287
289 289 289 289 288 288 288 288 288 288 288 288 288 288 288 288 288 288 288 287 287 287 287 287 287 287 287 287 287 287 287 287 287 287 287 287 287 287 287 287 287 288
289 289 288 288 288 288 289 289 289 289 289 288 288 288 288 288 288 288 288 288 287 287 287 287 287 286 286 286 286 286 286 286 286 287 287 287 287 287 287 287 287 287
288 288 288 289 289 289 289 289 289 289 289 289 289 288 288 288 288 288 288 288 288 287 287 287 286 286 286 286 286 286 286 286 286 286 286 287 287 287 287 287 287 287
288 289 289 289 289 289 289 289 289 289 289 289 289 288 288 288 288 288 288 288 288 287 287 286 286 286 286 286 286 286 286 286 286 286 286 286 286 286 287 287 286 287
289 289 289 289 289 289 289 289 289 289 289 289 288 288 288 288 288 288 288 288 287 287 286 286 285 285 285 285 285 285 285 285 285 286 286 286 286 286 286 286 286 286
290 290 289 289 289 289 289 289 289 289 289 289 288 288 288 288 288 288 288 287 287 286 285 285 285 285 285 285 285 285 285 285 285 285 285 285 286 286 286 285 285 285
290 290 290 289 290 290 289 289 289 289 289 289 288 288 288 288 288 288 287 287 286 285 285 284 284 284 284 284 284 284 284 284 285 285 285 285 285 285 285 285 285 285
289 289 289 289 289 289 289 289 289 289 289 289 288 288 288 287 287 287 287 286 285 284 284 284 284 284 284 284 284 284 284 284 284 285 285 285 285 285 285 285 285 285
289 289 289 289 289 289 289 289 289 289 289 288 288 287 287 287 287 286 285 284 284 284 284 284 284 283 283 283 284 284 284 284 284 284 284 284 285 285 285 285 284 284
289 289 289 289 289 289 289 289 289 289 288 288 287 287 287 287 286 285 284 284 284 284 284 283 283 283 283 283 283 283 284 284 284 284 284 284 284 284 284 284 284 284
289 289 289 289 289 289 289 289 288 288 288 287 287 287 287 286 285 284 283 283 283 283 283 283 283 283 283 283 283 283 283 283 283 283 283 283 283 283 283 283 283 282
289 289 289 289 289 289 288 288 288 288 287 287 287 287 286 285 284 283 283 283 283 283 283 283 283 283 283 283 283 283 282 282 282 282 282 282 282 281 281 281 280 280
289 289 289 289 288 288 288 288 287 287 287 287 287 286 285 284 283 283 283 283 283 283 283 283 283 283 283 283 283 282 282 281 281 281 281 281 280 279 279 278 278 277
289 289 289 288 288 288 287 287 287 287 286 286 285 284 283 283 283 283 283 283 283 283 283 283 283 283 283 282 282 282 281 281 281 280 280 280 279 278 277 276 276 276
289 289 288 288 287 287 287 287 287 286 286 285 284 283 283 283 283 283 283 283 282 282 283 283 283 283 282 282 281 281 281 280 280 280 279 279 278 277 276 275 275 275
288 288 287 287 287 287 287 287 286 286 285 284 283 283 282 282 282 282 282 282 282 282 283 283 283 282 282 281 281 280 280 280 279 279 278 278 277 276 275 275 275 274
288 287 287 287 287 287 287 286 286 285 284 283 283 282 282 282 282 282 282 282 282 282 283 283 283 282 281 281 280 280 279 278 278 278 277 277 276 275 275 274 274 273
287 287 287 287 287 286 286 286 285 284 283 282 282 282 282 282 282 282 282 282 282 282 282 282 282 281 280 280 280 278 278 277 277 277 276 276 275 275 274 273 273 273
287 287 287 287 286 286 286 285 284 283 282 282 282 281 282 282 282 282 282 282 282 282 282 281 281 281 280 279 279 278 277 277 276 276 276 276 275 274 273 273 273 273
287 287 287 287 286 286 285 284 283 282 282 281 281 281 281 281 281 282 282 282 282 282 281 281 280 280 280 279 278 277 277 276 276 276 276 275 274 273 272 272 272 273

ECMWFNIL_850_thetae_039.txt.gz
Theta_e
296 296 296 296 296 295 295 294 294 293 293 292 292 292 291 291 290 290 290 290 289 289 289 289 289 289 289 289 289 288 288 288 288 288 288 288 288 288 288 288 287 287
296 295 295 295 295 294 294 293 293 292 292 291 291 290 290 290 290 290 289 289 289 289 289 289 289 289 289 289 289 289 289 289 288 288 288 288 288 288 287 287 287 287
295 294 294 294 293 293 293 292 292 291 291 290 290 290 290 289 289 289 289 289 289 289 289 289 289 289 289 289 289 289 289 289 289 289 288 288 288 288 288 287 287 287
293 293 292 292 292 292 292 291 290 290 290 289 289 289 289 289 289 289 289 289 289 289 289 289 289 289 289 289 289 289 289 289 289 288 288 288 288 288 288 287 287 287
292 292 292 292 291 290 290 289 289 289 289 289 289 289 289 289 289 289 289 289 289 289 288 288 288 288 288 288 288 288 288 288 288 288 288 287 287 287 287 287 287 287
292 292 291 290 290 289 289 289 289 289 289 289 289 289 289 289 289 289 288 288 288 288 288 288 288 288 288 288 287 287 287 287 287 287 287 286 286 287 286 287 287 287
291 291 290 289 289 289 289 289 289 289 289 289 289 289 289 289 289 288 288 288 288 288 288 288 288 288 288 287 287 287 286 286 286 286 286 286 286 286 286 286 286 286
290 289 289 289 289 289 289 289 289 289 289 289 289 289 289 289 289 288 288 288 288 288 288 288 288 288 287 287 287 286 286 286 286 286 286 286 286 286 286 286 286 286
289 289 289 289 289 289 289 289 289 289 289 289 289 289 288 288 288 288 288 288 288 288 288 288 288 287 287 286 286 286 286 286 285 285 286 286 286 286 286 286 286 286
289 289 289 289 289 289 289 289 289 289 289 289 289 288 288 288 288 288 288 287 287 287 287 288 287 287 286 285 285 285 285 285 285 285 285 285 285 285 285 285 285 285
289 289 289 290 290 290 289 289 289 289 289 288 288 288 288 288 287 287 287 287 287 287 287 287 286 286 285 285 285 285 285 285 285 285 285 284 284 284 285 285 285 285
289 289 290 290 290 290 289 289 289 289 289 288 288 288 288 287 287 287 287 287 287 287 287 286 285 284 284 284 284 284 284 284 284 284 284 284 284 284 284 285 285 285
289 290 290 290 290 289 289 289 289 289 288 288 288 287 287 287 287 287 287 287 287 287 286 285 284 284 284 284 284 284 284 284 284 284 284 284 284 284 284 284 284 284
290 290 290 290 289 289 289 289 289 288 288 288 287 287 287 287 287 287 287 287 287 286 285 284 284 283 283 284 284 283 284 283 283 284 284 284 284 284 284 284 284 284
290 290 290 290 289 289 289 289 289 288 288 288 287 287 287 287 286 286 287 287 286 285 284 283 283 283 283 283 283 283 283 283 283 284 284 284 284 284 284 284 284 284
290 290 290 289 289 289 289 289 289 288 288 288 287 287 287 287 286 286 286 286 285 284 283 283 283 283 283 283 283 283 283 283 283 284 284 284 284 284 284 284 283 283
290 290 289 289 289 289 289 289 288 288 288 287 287 287 287 286 286 286 286 286 285 284 283 283 283 283 282 282 282 282 283 283 283 283 283 283 283 283 283 283 282 282
290 289 289 289 289 289 289 288 288 288 287 287 287 287 286 286 286 286 286 285 284 283 283 283 282 282 282 282 282 282 283 283 283 283 283 283 283 282 282 281 281 281
289 289 289 289 288 288 288 288 288 287 287 287 287 287 286 286 286 286 285 284 283 283 283 282 282 282 282 282 282 282 282 282 283 283 282 282 282 281 281 280 280 280
289 288 288 288 288 288 288 288 287 287 287 287 287 286 286 286 285 285 285 283 283 282 282 282 282 282 282 282 282 282 282 282 282 282 282 282 281 280 280 280 279 279
289 289 288 288 288 288 288 287 287 287 287 287 286 286 285 285 285 285 284 283 282 282 282 282 282 282 282 282 282 282 282 282 282 282 281 281 281 280 279 279 278 278
289 289 289 288 288 288 287 287 287 287 287 287 286 286 285 285 285 284 283 282 282 282 282 282 282 282 282 282 282 282 281 281 281 281 281 280 280 279 279 278 278 277
289 289 288 288 288 287 287 287 287 287 287 286 286 285 285 285 284 283 282 282 282 282 282 282 282 282 282 282 281 281 281 281 281 281 280 280 279 279 278 278 277 277
289 288 288 288 288 287 287 287 287 287 286 286 286 285 285 285 284 283 282 282 282 282 282 282 282 282 281 281 281 281 280 280 280 280 280 279 279 278 278 277 277 277
288 288 288 288 287 287 287 287 287 287 286 286 285 285 285 284 283 282 282 282 281 281 281 282 282 281 281 281 280 280 280 279 279 279 279 278 278 277 277 277 277 276
288 288 288 288 287 287 287 287 286 286 286 285 285 285 284 283 282 282 281 281 281 281 281 281 281 281 281 280 280 279 279 278 278 278 278 278 277 277 277 277 276 275

ECMWFNIL_850_thetae_042.txt.gz
Theta_e
297 296 296 296 296 295 295 294 293 293 293 292 292 292 292 291 291 290 290 290 290 289 289 289 289 289 289 289 289 289 289 289 289 289 288 288 288 288 288 288 288 287
296 296 296 295 295 295 294 294 293 292 292 292 292 291 291 290 290 290 290 290 290 290 290 290 290 290 290 290 290 290 289 289 289 289 289 288 288 288 288 288 287 287
296 295 295 295 294 294 293 293 292 292 291 291 291 291 291 291 291 290 290 290 290 290 290 290 290 290 290 290 290 290 290 289 289 289 289 289 288 288 288 288 287 287
295 295 294 294 293 293 292 292 291 291 291 291 291 290 290 290 290 290 290 290 290 290 290 290 290 290 289 289 289 289 289 289 289 288 288 288 288 287 287 287 287 287
295 294 293 292 292 292 291 291 291 290 290 290 290 290 290 290 290 290 290 289 289 289 289 289 289 289 289 288 288 288 288 288 287 287 287 286 286 286 286 286 286 286
293 292 292 291 291 291 290 290 290 290 290 290 290 290 290 289 289 289 289 289 289 288 288 288 288 288 288 288 288 287 287 287 286 286 286 286 286 286 286 286 286 286
291 291 291 291 290 290 290 289 289 289 290 290 289 289 289 289 289 289 288 288 288 288 288 288 288 288 288 287 287 287 286 286 286 285 285 285 285 285 285 285 285 285
290 290 290 290 290 289 289 289 289 290 290 289 289 289 289 289 289 288 288 288 288 288 288 287 287 287 287 287 287 286 286 285 285 285 285 285 285 285 285 285 285 285
289 289 289 289 289 289 289 289 290 289 289 289 289 289 289 288 288 288 288 288 287 287 287 287 287 287 287 287 286 286 285 285 285 285 285 285 284 284 284 284 284 284
289 289 289 289 289 289 289 290 290 289 289 289 289 289 288 288 288 288 287 287 287 287 287 287 287 287 287 286 285 285 284 284 284 284 284 284 284 284 284 284 284 284
289 289 288 289 289 289 290 289 290 289 289 289 289 288 288 288 288 287 287 287 287 287 287 287 287 287 286 285 285 284 284 284 284 284 284 284 284 284 284 284 284 284
288 288 288 289 289 290 290 290 289 289 289 289 288 288 288 288 287 287 287 287 286 286 286 287 287 286 286 285 284 284 284 284 284 284 284 284 284 284 284 284 284 284
288 288 288 289 290 290 290 290 289 289 289 289 288 288 288 287 287 287 287 287 286 286 286 286 286 286 285 284 284 283 284 284 284 284 284 284 284 284 284 284 284 284
288 288 289 289 290 290 290 289 289 289 289 288 288 288 288 287 287 287 287 287 286 286 286 286 286 285 284 284 283 283 283 284 284 284 284 284 283 283 284 284 284 284
288 288 289 290 290 290 290 289 289 289 289 288 288 288 288 287 287 287 287 286 286 286 286 286 285 285 284 283 283 283 283 283 283 283 283 283 283 283 283 283 283 283
288 288 289 290 290 290 289 289 289 289 289 288 288 288 288 287 287 287 287 286 286 285 285 285 285 284 283 283 283 283 283 283 283 283 283 283 283 283 283 283 283 283
288 289 290 290 290 289 289 289 289 289 289 288 288 288 287 287 287 287 286 286 285 285 285 285 284 283 283 282 282 282 283 283 283 283 283 283 283 283 283 283 283 282
288 289 290 289 289 289 289 289 289 289 288 288 288 288 287 287 287 287 286 286 285 285 285 284 283 283 282 282 282 282 282 283 283 283 283 283 283 283 283 282 282 282
288 289 289 289 289 289 289 289 289 289 288 288 288 287 287 287 287 287 286 285 285 285 284 283 282 282 282 282 282 282 282 282 283 283 283 283 283 282 282 282 282 281
288 288 289 289 288 289 289 289 289 289 288 288 287 287 287 287 287 286 286 285 285 285 284 283 282 282 282 282 282 282 282 282 283 283 283 282 282 282 282 282 281 281
287 288 288 288 288 289 289 289 289 288 288 288 287 287 287 287 287 286 286 285 285 285 284 282 282 282 282 282 282 282 282 282 282 282 282 282 282 282 282 281 281 280
288 288 288 288 289 289 289 289 288 288 288 287 287 287 287 287 286 286 285 285 285 284 284 282 281 281 281 281 282 282 282 282 282 282 282 282 282 282 281 281 280 279
288 288 289 289 289 289 289 289 288 288 288 287 287 287 287 287 286 286 285 285 285 284 283 282 281 281 281 281 282 282 282 282 282 282 282 282 282 281 281 280 280 279
289 289 289 289 289 289 289 288 288 288 287 287 287 287 287 287 286 286 285 285 284 284 283 282 281 281 281 281 281 281 282 282 282 282 282 281 281 280 280 279 279 279
290 289 289 289 288 289 288 288 288 288 287 287 287 287 287 286 286 286 285 285 284 283 282 281 281 281 281 281 281 281 281 281 281 281 281 281 280 280 279 279 279 278
289 289 288 288 288 288 288 288 288 287 287 287 287 287 287 286 286 286 285 285 284 283 282 281 281 281 281 281 281 281 281 281 281 281 280 280 279 279 279 279 278 278

ECMWFNIL_850_thetae_045.txt.gz
Theta_e
298 297 297 297 296 296 296 295 295 295 294 294 294 294 294 294 294 293 293 293 292 292 292 291 291 291 291 291 291 291 290 290 290 290 289 289 289 288 288 288 287 287
297 297 297 296 296 296 295 295 295 294 294 294 294 294 293 293 293 293 293 293 292 292 292 291 291 291 291 291 291 291 290 290 290 289 289 289 289 288 288 288 287 287
297 297 296 296 296 295 295 294 294 294 294 294 293 293 293 293 293 293 292 292 292 292 291 291 291 291 291 290 290 290 290 289 289 289 288 288 288 288 287 287 287 286
296 296 296 295 295 295 294 294 294 294 293 293 293 292 292 292 292 292 292 292 291 291 291 291 290 290 290 289 289 289 289 288 288 288 287 287 287 286 286 286 286 286
296 296 295 295 294 294 294 293 293 293 293 292 292 292 292 292 292 292 291 291 291 290 290 290 289 289 289 288 288 288 288 287 287 287 286 286 286 286 285 285 285 285
296 295 295 294 293 293 293 292 292 292 292 292 292 291 291 291 291 291 290 290 290 289 289 289 288 288 288 288 287 287 287 287 286 286 286 285 285 285 285 285 285 285
295 294 293 293 292 292 292 291 291 291 291 291 291 291 291 291 290 290 290 289 289 289 289 288 288 288 287 287 287 287 287 287 286 286 285 285 285 285 285 285 285 285
294 293 292 292 291 291 291 291 291 290 290 290 290 290 290 290 290 290 289 289 289 288 288 288 288 287 287 287 287 287 287 287 286 285 285 285 285 284 284 284 284 284
292 292 291 291 290 290 290 290 290 290 290 290 290 290 290 290 290 289 289 289 288 288 288 288 287 287 287 287 287 287 287 286 286 285 285 284 284 284 284 284 284 284
291 291 290 290 290 290 290 289 289 290 290 290 290 290 289 289 289 289 289 288 288 288 287 287 287 286 286 286 287 287 287 286 286 285 284 284 284 284 284 284 284 284
291 290 290 290 289 289 289 289 289 290 290 290 290 289 289 289 289 289 288 288 288 287 287 287 287 286 286 286 286 287 287 286 285 285 284 284 284 284 284 284 284 284
290 290 289 289 289 289 289 289 289 289 290 289 289 289 289 289 289 288 288 288 287 287 287 287 286 286 286 286 286 286 286 286 285 284 284 284 284 284 284 284 284 284
290 289 289 289 289 289 289 289 290 289 289 289 289 289 289 289 289 288 288 288 287 287 287 286 286 286 286 286 286 286 286 286 285 284 284 284 284 284 284 284 284 283
289 289 289 289 289 289 289 289 290 289 289 289 289 289 289 289 288 288 288 287 287 287 287 286 286 286 286 286 286 286 285 285 284 284 283 283 283 283 283 283 283 283
289 289 289 288 288 288 289 289 290 289 290 289 289 289 289 289 288 288 288 287 287 287 287 286 286 286 286 286 285 285 285 284 283 283 283 283 283 283 283 283 283 283
289 288 288 288 288 288 289 289 290 289 289 290 289 289 289 288 288 288 288 287 287 287 287 287 286 285 285 285 285 285 284 284 283 283 283 283 283 283 283 283 283 283
289 288 288 288 288 288 289 289 289 289 289 289 289 289 289 288 288 288 288 287 287 287 287 287 286 285 285 285 285 284 283 283 283 283 283 283 283 283 283 283 283 283
289 288 288 288 288 288 289 289 289 289 289 289 289 289 289 288 288 288 288 288 287 287 287 287 286 285 285 285 284 284 283 282 282 282 283 283 283 283 283 283 283 283
288 288 288 288 288 288 288 289 289 289 289 289 289 289 289 288 288 288 288 287 287 287 287 286 286 285 285 285 284 283 282 282 282 282 282 282 283 283 283 283 282 282
288 288 288 287 287 287 288 289 289 289 289 288 288 288 288 288 288 288 287 287 287 287 287 286 285 285 285 284 284 283 282 282 282 282 282 282 282 282 282 282 282 282
289 288 288 287 287 287 287 288 289 289 289 288 288 288 288 288 288 288 287 287 287 287 287 286 285 285 285 284 283 282 281 281 282 282 282 282 282 282 282 282 282 282
290 289 288 288 287 287 287 288 288 289 288 288 288 288 288 288 288 288 287 287 287 287 287 286 285 285 284 284 283 282 281 281 281 281 282 282 282 282 282 282 282 281
292 292 291 289 288 287 287 287 288 288 288 288 288 288 288 288 288 287 287 287 287 287 287 286 285 285 284 284 283 281 281 281 281 281 282 282 282 281 281 281 281 281
294 293 292 291 289 288 287 287 288 288 288 288 288 288 288 288 288 287 287 287 287 287 286 286 286 285 285 284 282 281 281 281 281 281 281 281 281 281 281 281 280 280
294 294 293 292 290 288 287 287 288 288 288 288 288 288 288 288 288 287 287 287 287 286 286 286 286 285 285 284 282 281 280 280 280 281 281 281 280 280 280 280 280 280
294 293 293 292 290 289 288 288 288 288 288 288 288 288 288 288 287 287 287 287 286 286 286 286 286 285 285 284 282 281 280 280 280 280 280 280 280 280 279 279 279 279

ECMWFNIL_850_thetae_048.txt.gz
Theta_e
299 299 298 298 298 297 297 297 296 296 296 295 295 295 295 294 294 294 294 294 294 293 293 293 293 293 292 292 292 292 292 291 291 290 290 289 289 288 288 288 287 287
298 298 298 298 297 297 297 296 296 295 295 295 295 294 294 294 294 294 293 293 293 293 293 293 293 292 292 292 292 292 291 291 290 289 289 289 288 288 288 287 287 287
298 298 298 297 297 297 296 296 295 295 295 295 294 294 294 294 294 293 293 293 293 293 293 292 292 292 292 291 291 291 290 290 289 289 288 288 288 287 287 287 286 286
298 298 297 297 297 296 296 295 295 295 294 294 294 294 294 293 293 293 293 293 292 292 292 292 291 291 291 291 290 290 289 288 288 288 287 287 287 286 286 286 285 285
298 297 297 297 296 296 295 295 295 294 294 294 294 294 293 293 293 292 292 292 292 292 291 291 291 291 290 290 289 289 288 288 287 287 287 287 286 286 286 285 285 285
297 297 297 296 296 295 295 295 294 294 294 294 293 293 293 292 292 292 292 291 291 291 291 291 290 290 290 289 288 288 287 287 287 287 287 287 286 286 285 285 285 285
297 297 296 296 295 295 295 294 294 294 294 293 293 292 292 292 291 291 291 291 290 290 290 290 290 290 289 288 288 287 287 287 287 287 287 287 286 286 285 285 285 284
297 297 296 295 295 294 294 294 294 294 293 293 292 292 291 291 291 291 290 290 290 290 290 290 290 289 288 288 288 287 287 287 286 287 286 287 286 286 285 285 284 284
296 296 296 295 294 294 294 294 293 293 292 292 291 291 291 291 290 290 290 290 290 290 290 290 289 289 288 288 287 287 287 286 286 286 286 286 286 285 285 284 284 284
296 295 295 294 294 293 293 293 293 292 292 291 291 290 290 290 290 290 290 290 290 290 290 289 289 288 288 287 287 287 286 286 286 286 286 286 286 285 285 284 284 284
295 294 294 293 293 293 293 292 292 291 291 290 290 290 290 290 290 290 290 290 290 290 289 289 288 288 287 287 287 286 286 286 286 286 286 286 286 285 284 284 284 284
295 294 293 293 293 292 292 292 291 291 290 290 290 290 290 290 290 289 290 290 290 289 289 289 288 287 287 287 286 286 286 286 286 286 286 286 285 285 284 284 284 284
294 294 293 293 292 292 291 291 290 290 290 290 290 290 290 290 290 290 290 290 289 289 289 288 288 287 287 286 286 286 286 286 286 286 286 285 285 284 284 283 284 283
294 293 293 292 292 291 290 290 290 290 290 289 289 290 290 289 290 290 290 289 289 289 288 288 287 287 287 286 286 286 286 286 286 286 286 285 285 284 283 283 283 283
293 292 292 292 291 290 290 290 289 289 289 289 289 289 290 290 290 290 289 289 289 288 288 288 287 287 287 286 286 286 286 285 285 285 285 285 284 283 283 283 283 283
293 292 292 292 291 290 289 289 289 289 289 289 289 290 290 290 290 290 289 289 288 288 288 288 287 287 287 286 286 286 285 285 285 285 285 285 284 283 283 283 283 283
292 292 292 291 290 289 289 289 289 289 289 289 289 290 290 290 290 290 289 289 288 288 288 288 287 287 287 287 286 286 285 285 285 285 285 284 283 283 282 282 282 282
292 292 292 291 290 289 289 288 288 288 288 289 289 290 290 290 290 289 289 289 288 288 288 288 287 287 287 287 286 286 285 285 285 285 285 284 283 282 282 282 282 282
292 292 291 291 290 289 288 288 288 288 288 289 289 290 289 289 289 289 289 289 288 288 288 288 287 287 287 287 286 286 285 285 285 285 285 284 283 282 282 282 282 282
292 292 291 290 289 289 288 288 288 288 288 288 289 289 289 289 289 289 289 288 288 288 288 288 287 287 287 287 286 286 285 285 285 285 284 284 283 282 282 282 282 282
292 292 291 290 289 288 288 288 288 288 288 288 289 289 289 289 289 288 288 288 288 288 288 287 287 287 287 287 286 286 286 285 285 285 284 284 283 282 282 282 281 281
292 292 291 290 289 288 288 288 288 288 288 288 288 289 289 288 288 288 288 288 288 288 288 287 287 287 287 287 287 286 286 285 285 285 284 284 283 282 281 281 281 281
292 292 291 290 289 289 288 288 288 287 287 287 288 288 288 288 288 288 288 288 288 288 288 287 287 287 287 287 286 286 286 286 285 285 285 284 283 282 281 281 281 281
292 292 291 291 290 289 289 289 288 288 287 287 287 287 287 287 287 287 288 288 288 288 287 287 287 287 287 286 286 286 286 286 285 285 285 284 283 282 281 281 281 281
293 292 292 291 290 290 290 290 289 288 287 287 287 287 287 287 287 287 288 288 287 287 287 287 287 286 286 286 286 286 286 286 285 285 285 285 283 282 281 281 281 281
293 293 292 291 290 290 291 291 290 289 288 288 287 287 286 287 287 288 288 288 287 287 287 287 287 286 286 286 286 286 286 285 285 285 285 285 284 282 281 281 281 281

ECMWFNIL_850_thetae_051.txt.gz
Theta_e
300 300 300 299 299 299 298 298 298 297 297 296 296 296 295 295 295 295 295 295 295 294 294 293 293 293 292 292 292 292 292 292 291 291 290 289 289 288 288 288 287 287
299 299 299 299 298 298 298 297 297 297 296 296 296 295 295 295 295 295 295 294 294 293 293 293 292 292 292 292 292 292 292 291 290 289 289 288 288 288 287 287 287 287
299 299 299 298 298 298 298 297 297 296 296 296 295 295 295 295 295 295 294 294 293 293 293 292 292 292 292 292 292 291 291 290 289 289 288 288 287 287 287 287 287 286
299 299 298 298 298 298 298 297 297 296 296 296 296 295 295 295 294 294 293 293 293 293 292 292 292 292 292 291 291 291 290 289 288 288 288 287 287 287 287 286 286 286
298 298 298 298 297 298 297 297 297 296 296 296 296 295 295 294 294 293 293 293 293 292 292 292 291 291 291 291 291 290 289 288 288 287 287 287 287 287 286 286 286 286
298 298 298 297 297 297 297 297 296 296 296 295 295 295 294 294 293 293 293 293 292 292 292 291 291 291 291 291 290 289 288 288 287 287 287 287 287 286 286 286 286 286
298 298 297 297 297 297 297 296 296 296 295 295 295 294 294 293 293 293 293 292 292 292 292 291 291 291 291 290 289 288 288 287 287 287 287 286 286 286 286 286 286 286
298 297 297 297 296 296 296 296 296 295 295 295 294 294 293 293 293 293 293 292 292 292 291 291 291 291 290 289 289 288 288 287 287 287 286 286 286 286 286 286 286 286
297 297 297 296 296 296 296 296 295 295 294 294 294 294 293 293 292 292 292 292 292 291 291 290 290 290 290 289 288 288 287 287 287 286 286 286 286 286 286 286 286 285
297 297 297 296 296 296 296 295 295 294 294 294 293 293 293 292 292 292 292 292 291 291 290 290 290 290 289 289 288 288 287 287 286 286 286 286 286 286 286 286 285 285
297 297 297 296 296 296 296 295 294 294 294 294 293 293 292 292 292 292 292 291 291 290 290 290 290 290 289 289 288 287 287 287 286 286 286 286 286 286 286 286 285 284
297 296 296 296 296 296 295 294 294 294 294 293 293 292 292 292 292 291 291 291 290 290 290 290 290 290 289 289 288 287 287 286 286 286 286 286 286 286 286 285 285 284
297 296 296 296 296 295 295 294 293 293 293 293 292 292 292 292 291 291 291 290 290 290 290 290 290 289 289 288 288 287 287 287 286 286 286 286 286 286 285 285 285 284
297 296 296 295 295 295 294 293 293 293 293 292 291 291 291 291 291 290 290 290 290 290 290 290 289 289 289 288 287 287 287 286 286 286 286 286 286 286 286 285 284 284
296 295 295 295 295 294 293 293 292 292 292 291 291 291 291 290 290 290 290 290 290 290 290 289 289 289 288 288 287 287 287 286 286 286 286 286 286 286 285 285 284 283
295 295 294 294 294 293 293 292 292 292 291 290 290 290 290 290 290 290 290 290 290 290 290 289 289 289 288 288 288 287 287 286 286 286 286 286 286 286 285 285 284 283
295 294 294 294 293 293 293 292 292 291 290 290 290 290 290 290 289 289 290 290 290 290 290 289 289 288 288 288 288 287 287 287 286 286 286 286 286 285 285 285 284 283
295 294 294 293 293 293 293 292 291 290 290 290 289 289 289 289 289 289 289 290 290 290 289 289 289 288 288 288 288 287 287 287 287 286 286 286 286 285 285 285 284 283
294 294 293 293 293 293 292 291 290 290 290 289 289 289 289 289 289 289 289 289 290 290 289 289 289 288 288 288 288 287 287 287 287 286 286 286 286 285 285 285 284 283
294 293 293 293 293 292 292 291 290 290 289 289 289 289 289 289 289 289 289 289 289 289 289 289 289 288 288 288 288 287 287 287 287 287 286 286 286 285 285 285 284 284
294 293 293 293 292 292 291 291 290 289 289 289 288 288 288 288 289 289 289 289 289 289 289 289 289 288 288 288 288 287 287 287 287 287 287 286 286 286 286 285 285 284
294 293 293 292 292 292 291 290 290 289 289 288 288 288 288 288 288 289 289 289 289 289 288 288 288 288 288 288 288 287 287 287 287 287 287 286 286 286 286 286 285 284
294 293 293 293 292 292 291 291 290 289 289 288 288 288 288 288 288 288 289 289 289 288 288 288 288 288 288 288 288 287 287 287 287 287 287 286 286 286 286 286 285 285
294 293 293 293 292 292 292 291 290 289 289 288 288 288 288 288 288 288 288 288 288 288 288 287 287 287 287 287 287 287 287 287 287 287 287 286 286 286 286 286 286 285
294 294 293 293 292 292 292 291 290 290 289 288 288 288 288 287 287 287 288 288 288 288 287 287 286 287 287 287 287 287 287 287 287 287 286 286 286 286 286 286 286 285
294 294 293 293 292 292 291 291 290 289 289 288 288 288 287 287 287 287 287 287 287 287 287 286 286 286 287 287 287 287 287 287 287 287 286 286 286 286 286 286 286 285

ECMWFNIL_850_thetae_054.txt.gz
Theta_e
305 304 303 303 301 301 300 299 299 298 298 298 298 298 297 297 298 298 298 297 297 296 296 296 296 296 295 295 294 293 293 293 292 292 291 290 289 289 289 288 288 288
303 303 302 301 300 300 299 298 298 298 298 298 297 298 298 298 298 298 297 297 296 296 296 296 296 295 294 294 293 293 293 292 291 291 290 289 289 288 288 288 287 287
303 302 301 300 299 299 298 298 298 298 298 298 297 298 298 298 298 298 297 296 296 296 296 295 295 294 294 293 293 293 292 292 291 290 289 289 288 288 288 287 287 287
302 300 300 299 299 298 298 298 298 297 297 298 298 297 297 298 298 298 297 296 296 296 295 295 294 293 293 293 292 292 292 291 290 289 289 288 288 287 287 287 287 286
301 299 299 298 298 298 298 298 298 298 298 298 298 297 297 298 297 297 297 296 296 295 294 294 293 293 293 292 292 292 291 290 289 289 288 288 287 287 287 287 286 286
300 299 298 298 298 297 298 298 298 298 298 297 298 297 297 297 297 297 296 296 295 294 294 293 293 292 292 292 292 291 291 290 289 288 288 287 287 287 287 286 286 286
299 298 298 297 297 297 297 298 298 298 298 297 297 297 297 297 296 296 295 295 295 294 293 293 292 292 292 292 292 291 290 289 289 288 287 287 287 286 286 286 286 286
299 298 298 297 297 297 297 297 297 297 297 297 297 296 296 296 296 295 295 294 294 293 293 292 292 292 292 291 291 291 290 289 288 288 287 287 286 286 286 286 286 286
298 298 297 297 297 297 297 297 297 297 297 296 296 296 296 295 295 295 294 294 293 293 292 292 291 291 291 291 291 290 290 289 288 288 287 286 286 286 286 286 286 286
298 298 297 297 297 297 297 297 297 296 296 296 295 295 295 295 295 294 294 293 293 292 292 291 291 291 291 291 290 290 289 288 288 287 287 286 286 286 286 286 286 286
298 297 297 297 297 297 297 296 296 296 296 295 295 295 295 295 294 294 294 293 292 292 291 291 291 291 291 290 290 289 289 288 288 287 287 286 286 286 286 286 286 286
298 297 297 297 297 297 297 296 296 296 296 295 295 295 295 294 294 294 293 293 292 292 291 291 290 291 291 290 289 289 289 288 287 287 287 286 286 286 286 286 286 286
298 298 297 297 297 297 296 296 296 296 295 295 295 295 294 294 294 293 293 292 292 291 291 290 290 290 290 290 289 289 288 288 287 287 287 287 286 286 286 286 286 286
299 298 297 297 297 296 296 296 296 295 295 295 295 294 294 294 294 293 292 292 291 291 290 290 290 290 290 290 289 289 288 288 287 287 287 287 287 287 287 287 287 287
299 298 297 297 296 296 296 295 295 295 294 294 294 294 294 293 293 292 291 291 291 290 290 290 290 290 290 290 289 289 289 288 287 287 287 287 287 287 287 287 287 287
299 298 297 296 296 296 295 295 295 294 294 294 293 293 293 293 292 291 291 291 290 290 290 290 290 290 290 289 289 289 289 288 288 287 287 287 286 286 287 287 287 286
298 298 297 296 296 295 295 295 294 294 293 293 293 292 292 292 291 291 291 290 290 290 290 290 290 290 290 289 289 289 289 288 288 287 287 287 286 286 286 286 286 286
298 298 297 296 296 295 295 294 293 293 293 292 292 292 292 291 291 291 290 290 290 290 289 289 290 290 289 289 289 289 289 288 288 288 287 287 287 286 286 286 286 286
299 298 297 296 295 295 294 293 293 293 292 292 292 292 292 291 291 290 290 290 290 290 289 289 289 289 289 289 289 289 289 288 288 288 288 287 287 287 286 286 286 286
299 297 297 296 295 294 293 293 292 292 292 292 291 291 291 291 291 290 290 290 290 289 289 289 289 289 289 289 289 289 289 288 288 288 288 287 287 287 287 286 286 286
298 297 297 296 295 293 293 292 292 292 291 291 291 291 291 291 290 290 290 290 289 289 289 289 289 289 289 289 289 289 289 288 288 288 288 287 287 287 287 287 286 286
298 297 297 296 294 293 292 292 292 292 291 291 291 291 291 290 290 290 289 289 289 289 289 289 289 289 289 289 289 289 288 288 288 288 288 288 287 287 287 287 287 286
298 297 297 296 294 293 292 292 292 292 291 291 291 291 290 290 290 290 289 289 289 289 289 289 289 289 289 289 288 288 288 288 288 288 288 288 287 287 287 287 287 286
298 297 296 295 294 293 293 292 292 292 291 291 291 290 290 290 290 289 289 289 288 288 288 288 289 289 289 289 288 288 287 287 287 288 288 288 287 287 287 287 287 286
297 297 296 295 295 294 293 292 292 292 291 291 290 290 290 289 289 289 289 288 288 288 288 288 288 288 288 288 288 288 287 287 287 287 287 288 287 287 287 287 287 287
296 296 295 295 294 294 293 292 292 291 291 290 290 290 289 289 289 288 288 288 288 288 288 288 288 288 288 288 288 288 287 287 286 286 286 287 288 287 287 287 287 287

ECMWFNIL_850_thetae_057.txt.gz
Theta_e
315 313 313 314 314 314 314 309 303 301 300 299 299 298 297 297 297 297 298 298 299 299 299 300 300 300 299 299 299 299 298 298 297 296 295 293 292 292 291 290 290 290
313 313 314 313 313 312 311 306 301 300 299 298 298 297 297 297 297 298 299 299 299 299 299 299 299 299 299 299 299 299 298 297 296 295 294 293 292 291 290 290 290 289
313 313 313 312 311 310 307 303 300 299 298 298 297 297 297 297 298 299 299 299 299 299 299 299 299 299 299 299 299 298 298 297 296 294 293 292 291 291 290 290 289 289
313 313 312 310 309 308 305 301 299 298 298 297 297 297 297 298 298 299 299 299 299 299 299 299 299 299 299 299 298 298 297 296 295 293 292 291 291 290 290 289 289 288
312 313 311 308 307 305 302 300 298 298 297 297 297 297 297 298 298 299 299 299 299 298 298 298 298 298 298 298 298 297 296 295 294 293 292 291 290 290 289 289 288 288
312 312 308 305 305 303 300 299 298 297 297 297 297 297 297 297 298 299 299 299 299 298 298 298 298 298 298 298 297 296 295 294 293 292 291 290 290 289 289 288 288 287
312 310 306 303 303 301 299 298 297 297 297 296 297 297 297 297 298 298 299 299 298 298 298 297 297 297 297 297 296 295 295 294 292 291 290 290 289 289 289 288 287 287
313 309 303 302 301 299 298 297 297 297 296 296 296 296 297 297 297 298 298 298 297 297 297 296 296 297 296 296 295 294 294 293 292 291 290 289 289 289 288 288 287 287
312 307 302 301 300 298 297 297 296 296 296 296 296 296 296 296 297 297 297 297 296 296 296 296 296 296 295 295 294 293 293 292 291 290 290 289 288 288 288 287 287 287
311 307 302 301 300 298 297 296 296 296 296 296 296 295 296 296 296 296 296 296 296 295 295 295 295 295 294 294 293 293 292 292 291 290 289 289 288 288 287 287 287 287
311 307 302 301 300 298 297 296 296 296 296 296 295 295 295 295 295 296 295 295 295 295 295 294 294 294 293 293 292 292 292 292 291 290 289 288 288 288 287 287 287 287
311 308 303 301 299 297 296 296 295 295 295 295 295 295 295 295 295 295 295 295 295 294 294 294 293 293 292 292 292 292 292 291 291 290 289 288 288 287 287 287 287 287
311 309 305 301 299 297 296 296 295 295 295 295 295 295 295 295 295 295 295 294 294 294 293 293 293 292 292 292 291 291 291 291 290 290 289 288 288 287 287 287 287 287
312 310 306 302 300 298 296 296 295 295 295 295 295 295 295 295 295 294 294 294 294 293 292 292 292 292 292 291 291 291 291 291 290 290 289 288 287 287 287 287 287 287
311 310 307 303 300 298 296 295 295 295 295 294 294 294 294 294 294 294 294 294 293 293 292 292 292 292 291 291 291 291 291 291 290 290 289 288 287 287 287 287 287 287
311 309 307 304 301 299 297 295 295 295 294 294 294 294 294 294 293 293 293 293 293 292 292 292 292 291 291 291 291 291 291 290 290 290 289 288 287 287 287 287 287 287
311 309 306 303 302 299 297 295 295 294 294 294 294 294 294 293 293 293 293 292 292 292 291 291 291 291 291 290 291 291 290 290 290 290 289 288 288 287 287 287 287 287
310 308 305 302 301 299 297 295 294 294 294 294 294 294 293 293 292 292 292 292 291 291 291 291 291 291 290 290 290 291 290 290 290 289 289 288 288 288 288 288 287 287
309 307 303 301 300 299 297 295 294 294 294 294 294 293 292 292 292 292 292 291 291 291 291 291 290 290 290 290 291 290 290 290 290 289 289 288 288 288 288 288 288 287
309 306 303 301 300 298 297 295 295 294 294 293 293 292 292 292 292 291 291 291 291 291 290 290 290 290 290 291 291 290 290 290 289 289 289 288 288 288 288 288 288 288
307 305 303 301 299 298 297 296 295 295 294 293 293 292 292 291 291 291 291 291 291 290 290 290 291 290 290 291 290 290 290 289 289 289 289 288 288 288 288 288 288 288
306 305 303 301 300 298 297 297 296 295 294 293 292 292 291 291 291 291 291 291 291 290 290 291 291 290 290 290 290 289 289 289 289 289 289 288 288 288 288 288 288 287
305 304 302 301 300 299 299 298 298 296 294 293 292 291 291 291 291 291 291 290 290 290 291 291 291 290 290 290 290 289 289 289 289 289 289 288 288 288 288 288 287 287
303 302 301 301 300 300 300 299 298 296 294 293 292 291 291 291 291 291 290 290 290 290 291 291 290 290 290 289 289 289 288 289 289 289 289 288 288 288 287 287 287 287
301 300 300 300 300 300 300 299 297 295 293 292 291 291 291 290 290 290 290 290 290 291 291 290 290 290 289 289 288 288 288 288 288 288 288 288 288 288 287 287 287 286
299 299 299 299 299 298 298 296 295 293 292 291 291 290 290 290 290 290 290 291 291 290 290 290 289 289 289 289 288 288 288 288 288 288 288 288 288 288 288 287 287 287

ECMWFNIL_850_thetae_060.txt.gz
Theta_e
319 318 317 316 315 315 317 317 315 315 317 315 309 304 301 299 297 297 297 297 297 297 299 300 300 301 301 301 301 301 301 301 301 301 301 300 300 299 298 297 295 294
317 315 315 315 315 317 318 317 315 315 316 313 306 301 299 298 297 297 296 296 297 298 299 300 300 301 301 301 301 301 301 301 301 300 300 299 299 298 297 296 294 293
315 313 314 315 316 317 316 316 315 315 315 311 303 300 299 297 297 297 296 297 297 298 299 300 300 300 300 300 301 301 300 300 300 300 299 299 298 297 296 295 293 292
313 312 314 316 316 315 313 313 314 315 313 308 302 299 298 297 297 296 296 297 298 298 299 299 300 300 300 300 300 300 300 299 299 299 299 298 297 295 294 293 292 291
312 312 315 316 315 313 311 312 313 313 311 306 301 299 297 297 296 296 296 297 298 298 299 299 299 299 300 300 300 300 299 299 299 299 298 298 296 294 293 291 291 291
311 313 315 314 314 312 311 312 312 312 310 305 299 298 297 296 296 296 296 297 298 298 299 299 299 299 299 299 299 299 298 298 298 298 298 297 295 293 291 290 290 290
311 313 314 313 312 311 311 312 311 310 309 303 298 297 297 296 296 296 296 297 298 298 298 298 299 299 299 298 298 298 298 297 298 298 298 297 295 293 291 290 289 289
312 312 312 312 312 311 311 312 310 309 307 302 298 297 296 296 296 296 296 297 297 298 298 298 298 298 298 298 298 297 297 297 297 297 297 296 294 293 291 290 289 289
313 313 312 312 311 310 311 311 309 307 305 300 297 296 296 296 295 295 296 297 297 297 297 297 297 297 297 297 297 296 296 296 296 296 296 295 294 292 290 289 289 288
313 313 312 311 310 310 310 310 308 306 303 299 296 296 296 295 295 295 296 296 296 296 296 296 296 296 296 295 295 295 294 295 295 295 295 294 292 291 290 289 289 288
313 313 313 312 310 310 311 310 307 304 302 298 296 296 295 295 295 295 295 296 296 296 296 295 295 295 295 294 294 294 293 293 294 294 294 293 292 291 290 289 288 288
312 312 313 312 311 311 311 309 306 303 300 297 295 295 295 295 295 295 295 295 295 295 295 295 294 294 293 293 293 293 293 293 293 293 293 292 291 290 290 289 288 288
311 312 312 312 311 311 310 308 304 302 299 296 295 295 294 294 294 294 295 295 295 295 294 294 293 293 293 292 292 292 292 292 293 292 292 292 291 291 289 289 288 288
310 311 311 311 310 310 309 306 302 300 297 295 294 294 294 294 294 294 295 294 294 294 293 293 293 292 292 292 292 292 292 292 292 292 292 292 292 291 289 289 288 288
309 310 310 310 309 309 308 305 301 298 296 294 294 294 294 294 294 294 294 294 294 293 293 293 292 292 292 292 291 291 291 291 291 291 292 293 292 290 289 289 288 288
308 309 310 309 309 309 308 305 300 297 296 294 294 294 293 293 294 294 294 293 293 293 293 293 292 292 292 292 291 291 291 291 291 291 293 293 292 291 290 289 289 289
307 308 309 309 309 309 308 306 302 297 295 294 293 293 293 293 293 293 293 293 293 293 292 292 292 292 292 291 291 290 290 290 290 291 292 293 292 291 290 290 290 289
307 307 308 309 309 308 308 307 304 300 296 294 293 293 293 293 293 293 293 293 293 292 292 292 292 292 292 291 290 290 290 290 290 291 292 293 293 292 291 291 290 289
307 307 308 309 309 309 309 308 307 304 299 296 294 293 293 292 293 293 293 293 292 292 292 292 292 292 291 290 290 290 290 290 290 291 292 293 293 292 291 291 290 289
307 307 308 309 309 310 309 308 307 306 303 299 295 293 293 292 292 292 292 292 292 292 292 292 292 291 291 290 290 290 290 290 290 292 293 293 293 292 291 291 290 288
306 307 308 308 309 309 308 307 306 305 304 302 297 294 292 292 292 292 292 292 292 292 292 292 292 291 290 290 290 289 289 290 291 292 292 292 293 292 291 290 289 288
305 306 307 307 308 307 306 306 305 304 303 301 299 295 292 291 291 292 291 291 291 291 292 293 291 290 290 290 289 289 289 290 291 292 292 292 292 291 290 290 289 288
303 305 306 306 306 306 305 304 304 302 300 299 297 295 293 292 291 291 291 290 291 292 292 292 291 290 290 289 289 289 289 290 291 292 292 292 291 290 290 289 288 288
302 304 305 305 304 304 304 303 302 300 298 297 296 295 293 292 290 290 290 290 292 293 292 291 290 290 290 289 289 289 289 290 292 292 292 291 290 290 289 289 288 288
302 303 303 303 303 302 301 300 299 298 297 297 296 295 294 292 291 291 291 292 293 293 291 290 290 290 290 290 289 288 288 290 292 292 291 290 289 289 289 288 288 288
301 301 301 301 300 300 299 298 298 297 298 298 297 297 296 296 296 295 295 295 294 292 291 290 290 290 290 289 289 288 289 290 291 290 290 289 289 288 288 288 288 288

ECMWFNIL_850_thetae_063.txt.gz
Theta_e
316 317 317 317 317 318 318 316 317 318 318 315 314 314 314 315 316 316 315 313 308 301 298 297 297 297 298 299 300 300 301 301 301 301 301 301 300 299 298 297 296 295
311 314 316 317 318 318 316 317 318 318 316 315 314 314 314 315 315 315 313 309 303 298 297 296 296 297 298 299 300 300 300 301 301 301 300 300 299 298 297 297 296 295
311 314 317 318 317 316 316 317 317 316 315 315 314 314 314 315 316 314 311 305 299 297 296 296 296 297 298 299 300 300 300 301 301 300 300 299 298 298 297 296 295 295
311 313 316 315 315 316 317 316 316 314 314 315 315 314 314 316 315 311 306 301 297 296 296 296 296 297 298 299 299 300 300 300 300 299 299 298 298 297 296 295 295 294
311 312 314 315 316 317 316 315 315 313 314 316 315 313 314 315 312 307 302 298 296 296 295 295 296 297 298 299 299 300 300 300 299 298 298 298 297 296 296 295 294 294
311 313 315 317 317 315 314 314 313 313 315 316 315 313 314 314 309 304 299 297 296 295 295 295 296 297 298 299 299 299 299 299 299 298 297 297 297 296 295 294 293 293
311 313 315 316 315 314 313 312 312 314 316 315 314 314 315 312 307 301 297 296 296 295 295 295 296 297 298 299 299 299 299 298 298 298 297 297 296 295 294 293 292 292
311 313 315 316 315 314 312 311 313 315 314 313 312 312 313 310 304 298 296 296 295 295 295 295 296 297 298 298 298 298 298 298 297 297 297 297 296 295 294 293 292 291
311 312 314 315 314 313 311 310 313 315 313 311 310 311 311 308 302 297 296 295 295 295 295 295 296 297 297 298 298 298 298 297 297 297 297 296 295 294 293 292 292 291
311 311 313 314 314 312 310 311 313 313 312 311 310 310 311 308 301 296 295 295 295 295 294 295 296 296 297 297 297 297 297 297 296 296 295 295 294 293 292 292 291 291
312 312 313 314 313 311 310 312 313 312 311 310 309 310 310 307 301 296 295 295 295 294 295 295 295 295 296 296 296 296 296 295 295 294 294 294 293 293 292 292 291 290
311 312 313 314 313 311 310 311 311 311 311 310 309 310 309 307 301 296 294 295 294 294 294 294 295 295 295 295 296 295 295 294 294 293 293 293 292 292 292 291 292 292
310 311 312 313 313 311 311 311 311 311 310 310 309 309 309 306 301 296 294 294 294 294 294 294 294 294 295 295 294 294 294 293 293 293 293 292 292 292 291 292 293 294
309 310 311 312 312 310 310 311 311 311 310 309 309 309 308 305 301 296 294 294 294 294 294 294 294 294 294 294 293 293 293 292 292 292 292 292 292 291 291 293 294 294
308 309 309 311 311 309 309 310 311 310 310 309 309 309 307 304 300 295 293 293 293 293 293 293 294 293 293 293 293 293 292 292 292 291 292 293 292 291 291 293 294 295
306 307 309 310 309 308 308 310 311 310 309 309 309 308 306 303 299 295 293 293 293 293 293 293 293 293 293 293 292 292 292 291 291 291 293 293 291 290 291 292 294 294
306 306 308 307 307 307 308 310 310 309 309 308 308 306 304 302 299 295 293 293 293 293 293 293 293 293 293 292 292 292 291 291 291 293 294 292 290 290 290 292 293 294
305 305 306 306 306 306 307 308 309 309 309 308 308 306 303 301 299 296 293 293 293 293 293 293 293 293 292 293 292 292 291 290 292 294 294 291 289 289 290 291 293 294
305 305 305 305 305 305 306 307 309 309 309 309 308 306 302 299 298 295 293 292 293 293 293 293 293 293 292 293 292 292 291 291 293 294 293 290 289 289 290 291 292 293
305 304 304 305 305 306 306 307 308 308 308 308 307 305 301 298 296 294 292 292 292 292 292 293 292 292 292 292 292 292 291 291 293 293 292 289 289 289 290 291 291 292
304 304 304 304 305 306 306 306 307 307 307 307 306 305 302 297 294 293 292 291 292 292 292 292 292 292 291 291 292 291 290 291 293 293 291 289 290 290 290 290 290 291
303 303 304 304 305 306 306 306 306 306 306 306 304 303 302 298 294 292 291 291 291 291 291 291 291 291 290 291 292 291 290 292 293 292 290 290 290 290 290 290 290 291
302 302 303 303 304 305 306 306 306 306 306 305 304 303 302 300 295 292 290 290 290 290 290 290 290 290 290 291 291 290 290 293 293 292 291 290 290 290 290 290 290 291
301 301 302 302 303 304 305 305 305 305 304 303 303 301 301 300 298 295 292 290 289 289 289 289 289 289 290 290 290 289 291 293 293 291 290 290 290 290 290 290 290 290
300 300 300 301 301 302 303 303 303 302 301 301 300 299 298 297 296 295 293 291 288 288 288 288 288 289 290 289 289 290 292 294 292 291 290 290 290 290 290 290 290 290
299 299 299 299 300 300 301 301 300 300 299 298 297 297 296 295 295 294 293 292 290 289 289 288 289 290 290 289 288 290 293 294 292 290 290 290 290 290 290 290 290 290

ECMWFNIL_850_thetae_066.txt.gz
Theta_e
312 314 316 315 316 320 322 319 317 317 320 322 320 319 320 319 318 316 314 315 316 316 317 318 318 317 315 312 308 304 301 300 299 299 298 298 298 299 299 298 298 297
311 312 314 315 316 318 318 317 317 319 321 320 319 319 319 318 316 315 314 315 315 316 316 317 317 315 310 304 302 300 299 299 299 298 298 298 298 298 298 297 297 296
309 310 313 314 314 314 315 316 319 320 319 319 318 318 318 317 316 315 314 315 316 315 316 316 315 311 304 299 299 298 298 298 298 298 297 298 298 298 297 297 296 295
308 309 311 311 311 313 316 318 319 319 318 318 318 317 317 317 315 314 314 315 316 315 315 315 313 307 300 297 297 297 297 297 297 297 297 297 297 297 297 296 296 295
308 309 310 311 312 315 317 318 317 317 317 317 317 317 317 317 315 314 314 314 316 316 315 314 311 305 298 296 296 296 296 296 296 297 297 297 297 297 297 296 295 294
308 309 310 312 313 314 314 314 314 315 316 317 317 316 316 315 315 314 314 314 316 316 315 313 309 303 297 296 295 295 296 296 297 297 297 297 297 297 296 296 295 294
308 308 309 311 313 311 310 312 315 316 316 316 316 316 314 314 315 315 314 314 315 315 315 313 308 300 296 295 295 295 295 296 297 297 297 297 297 296 296 295 295 294
309 308 308 309 311 311 311 313 316 315 315 316 315 315 314 314 315 315 313 314 315 315 314 312 306 299 295 295 295 295 295 296 297 297 297 297 296 296 295 295 294 293
308 308 307 309 311 311 311 313 314 315 315 315 314 314 313 314 315 315 313 314 315 314 313 311 304 297 294 295 295 295 295 297 297 297 297 296 296 296 295 294 292 291
308 308 307 308 310 310 311 312 314 315 315 313 313 313 313 313 315 315 314 314 314 313 312 309 302 295 294 294 294 295 295 296 297 297 297 296 296 295 294 292 291 290
308 308 308 307 308 309 311 312 314 315 314 312 312 312 313 314 314 314 313 312 313 312 311 308 300 294 294 294 294 294 295 296 296 296 296 296 294 293 292 291 290 289
308 308 308 307 308 309 310 313 315 315 313 312 311 310 313 313 312 311 311 311 311 310 308 305 298 294 294 294 294 294 295 295 295 295 295 294 293 293 291 290 289 290
308 308 308 308 308 309 310 312 314 314 313 312 310 310 312 312 311 310 310 310 310 309 306 302 297 294 294 294 294 294 295 295 295 294 294 294 293 291 290 290 291 292
308 308 308 308 309 310 310 311 312 313 313 311 310 311 312 311 310 310 309 309 310 309 305 300 295 293 294 294 294 294 294 294 295 294 294 293 292 291 291 292 293 293
308 308 308 308 309 310 311 311 312 313 312 310 310 311 312 311 310 309 309 309 310 308 305 299 295 293 293 293 293 294 294 294 294 293 293 292 291 292 292 293 293 294
308 308 308 308 309 310 311 311 312 312 312 311 310 311 311 311 310 309 309 309 308 307 304 298 294 293 293 293 293 294 294 294 293 292 292 292 292 293 293 293 293 294
308 308 307 308 308 309 310 311 311 311 311 311 310 310 310 310 309 309 308 308 308 307 304 299 294 293 293 293 293 293 293 293 293 292 292 292 292 292 292 293 294 295
308 308 307 307 307 308 309 309 310 310 310 310 309 309 309 309 309 308 308 307 306 305 302 298 294 293 293 293 293 293 293 293 292 292 292 292 292 292 292 293 294 294
308 307 307 307 306 306 307 308 309 309 309 308 308 308 308 307 307 307 306 305 305 303 299 295 293 292 292 293 293 292 292 292 292 291 291 292 293 293 293 293 294 294
307 307 306 306 305 305 306 307 308 308 307 307 307 307 307 307 306 305 304 304 303 301 296 292 291 291 292 292 292 292 292 292 291 291 291 292 293 293 292 293 294 294
306 306 305 305 304 304 304 306 306 306 305 306 306 306 306 306 305 305 304 303 301 298 295 292 291 291 292 292 292 292 292 291 291 291 292 292 293 292 292 293 294 294
305 305 305 304 304 304 304 304 305 305 305 305 306 306 305 305 305 303 302 300 297 294 293 291 290 291 291 291 291 291 291 291 291 291 291 291 291 291 292 293 294 294
305 304 304 304 303 303 304 304 304 304 305 305 305 305 305 304 303 302 300 298 294 291 290 289 289 289 290 290 291 291 291 291 290 290 290 290 291 292 293 293 293 294
304 303 303 303 302 303 303 303 304 304 305 305 305 304 303 302 301 300 299 297 294 290 288 288 288 288 289 290 290 290 290 289 289 289 289 290 291 292 293 292 292 293
302 302 302 302 301 302 302 303 303 303 303 303 303 302 301 299 298 298 297 296 294 291 288 287 287 287 288 288 288 288 288 288 288 289 289 290 292 292 292 291 292 293
301 300 301 301 301 301 301 302 302 302 302 301 300 299 298 297 297 296 296 295 295 293 291 288 287 287 287 287 287 288 288 288 289 289 290 291 292 292 291 291 292 293

ECMWFNIL_850_thetae_069.txt.gz
Theta_e
311 310 309 309 309 310 310 314 318 316 316 320 323 323 323 323 321 321 322 322 321 320 319 318 318 317 316 318 320 320 320 320 319 318 318 318 318 317 314 310 307 303
311 310 309 309 308 308 311 316 319 316 316 321 322 320 319 319 319 321 322 322 320 320 319 317 316 317 316 316 318 319 319 319 318 318 318 317 317 317 313 308 305 303
311 310 310 309 308 308 310 313 315 315 317 321 321 320 318 317 319 321 322 321 321 319 317 315 315 315 316 316 317 319 318 318 318 317 316 316 316 316 312 307 304 303
312 311 310 310 308 308 308 310 313 317 317 319 320 320 318 316 318 321 321 320 320 318 316 315 315 315 315 316 317 318 317 316 316 316 315 314 315 314 309 305 303 302
312 311 311 310 309 308 308 309 313 316 315 316 319 319 317 317 318 320 320 319 319 317 315 315 315 315 315 316 317 317 316 316 315 314 312 311 312 310 306 304 303 300
313 312 311 311 309 308 308 309 312 314 314 316 318 317 316 317 319 319 318 318 318 317 315 314 314 315 315 316 316 316 316 314 312 309 307 308 309 307 304 304 303 298
313 313 311 310 309 309 308 308 310 314 315 315 315 315 317 318 318 318 317 317 317 316 315 313 313 314 315 316 316 316 315 312 306 302 303 305 306 305 304 303 300 296
313 312 311 310 310 309 308 307 308 311 313 312 313 315 317 317 316 316 316 316 316 316 315 314 313 314 315 316 316 315 314 308 300 299 302 304 304 304 303 301 297 294
312 312 311 310 309 309 308 308 308 309 309 311 313 316 316 315 315 316 316 316 316 316 316 314 313 314 314 315 315 316 313 304 297 298 301 302 302 302 301 298 294 294
312 312 311 310 309 309 308 308 308 308 310 311 312 313 313 314 315 315 316 315 315 315 315 314 314 314 314 314 314 315 312 303 296 296 299 300 300 300 297 295 293 294
313 312 311 310 310 309 308 307 307 308 310 311 310 310 312 313 315 315 315 314 313 314 314 314 314 314 313 313 313 313 310 302 296 295 296 298 298 296 294 293 294 293
313 312 311 310 310 309 308 307 307 308 310 310 309 310 312 314 315 315 314 314 313 313 314 314 314 313 313 313 312 312 308 300 295 294 295 295 295 294 293 293 293 292
313 312 311 310 310 309 308 308 307 308 309 310 310 311 313 314 314 314 313 313 312 313 313 314 314 313 313 312 311 312 307 299 294 294 294 294 293 292 292 293 292 291
313 312 311 310 309 309 308 308 308 308 309 310 310 312 313 314 313 312 311 311 312 313 313 313 313 312 312 311 311 311 306 298 294 294 294 293 293 292 293 293 292 290
314 312 311 310 309 309 308 308 308 307 308 309 310 312 313 314 312 311 310 311 312 312 312 311 311 310 310 310 310 310 305 297 293 294 293 293 292 292 292 292 290 290
314 312 311 310 309 308 308 307 307 307 307 308 310 311 313 313 312 311 310 311 312 312 310 310 309 309 309 308 308 308 303 296 293 294 293 292 293 292 292 291 290 290
314 313 311 309 309 308 308 307 307 307 307 307 309 311 312 312 312 311 310 311 311 311 309 309 309 309 309 308 306 303 299 294 292 293 293 292 292 292 291 291 290 291
314 313 311 309 309 308 307 307 306 307 307 308 309 310 311 311 311 310 310 310 311 310 309 309 309 308 308 306 301 297 294 292 292 293 293 292 292 291 291 291 291 292
314 313 311 309 308 308 307 307 306 306 307 308 309 310 310 310 310 310 310 310 310 310 309 309 308 308 307 305 300 294 291 292 292 292 292 292 292 291 291 291 292 293
313 312 310 309 308 307 307 306 306 306 307 308 309 310 309 309 309 308 308 309 309 309 308 308 307 307 305 303 300 295 291 291 291 292 292 292 291 291 291 291 292 293
313 311 309 308 307 307 306 306 305 305 306 307 308 308 308 307 307 307 306 307 307 307 306 306 306 305 303 302 298 293 290 291 291 291 291 291 290 290 291 291 292 292
312 311 309 307 306 306 306 305 304 304 305 306 307 307 307 306 306 306 306 306 306 305 305 304 304 303 302 299 296 292 290 290 290 290 290 290 290 290 290 291 291 292
311 310 307 306 306 306 305 304 303 303 304 305 306 306 305 305 305 305 305 305 305 304 303 302 302 301 299 296 293 291 290 289 290 290 289 289 289 289 290 290 291 291
310 308 306 305 305 305 305 304 303 303 304 304 305 305 305 305 305 305 304 303 303 301 300 300 298 297 296 293 291 290 289 289 289 289 289 288 289 289 289 290 290 291
307 306 305 304 304 304 304 303 303 303 304 304 304 304 304 304 303 303 302 301 300 299 298 298 296 294 293 292 289 288 288 289 289 289 288 288 288 288 289 289 290 291
305 304 303 303 303 303 303 303 303 303 303 303 303 303 302 301 300 300 299 298 298 297 297 297 296 295 293 290 289 288 288 289 289 288 288 288 288 288 288 289 290 290

ECMWFNIL_850_thetae_072.txt.gz
Theta_e
313 314 313 313 313 312 312 312 312 312 311 310 311 311 313 317 320 320 322 325 327 326 324 323 323 322 321 321 320 319 318 317 318 319 320 320 319 317 315 314 314 313
314 314 313 313 313 313 312 312 312 312 311 311 310 310 313 319 322 320 321 325 325 325 324 322 322 321 321 321 319 318 318 317 317 318 318 318 317 315 314 313 313 313
315 314 314 314 313 313 313 312 312 312 311 311 310 309 313 318 319 317 319 322 324 324 323 322 321 321 321 320 318 318 318 317 316 316 317 317 315 314 314 313 313 312
315 314 314 314 313 313 312 312 311 311 310 310 308 308 312 316 316 318 320 321 321 321 320 320 320 321 320 319 318 317 317 316 316 316 316 316 315 313 312 313 314 312
315 315 314 314 313 313 312 311 311 310 309 309 307 308 313 315 315 319 321 320 319 318 317 318 319 320 320 318 317 316 315 315 316 315 315 315 315 314 311 311 312 312
316 315 314 314 314 313 312 312 311 310 309 308 307 309 314 314 315 319 321 320 318 316 315 317 319 320 319 318 316 316 315 315 316 316 316 315 315 314 313 312 311 311
316 315 314 314 314 313 313 312 311 310 309 308 307 308 310 313 315 318 320 320 319 316 316 318 319 319 318 317 316 315 315 315 315 315 315 315 314 313 313 312 311 310
317 316 315 314 314 313 313 312 312 311 310 308 307 307 309 313 316 317 318 319 318 317 317 318 319 318 317 316 316 315 314 314 315 315 314 314 313 313 312 312 310 310
317 317 316 315 314 313 313 312 312 311 310 308 307 306 309 313 315 315 316 317 316 316 317 318 318 317 316 316 316 315 313 313 314 314 313 313 313 312 311 309 308 308
317 317 316 316 315 313 313 313 312 311 310 309 307 306 307 311 313 314 315 315 315 316 317 317 316 315 315 316 316 315 313 313 313 313 312 312 311 310 307 304 305 307
317 317 317 317 315 313 312 312 312 311 310 309 308 307 307 310 313 314 314 313 314 315 316 316 316 315 315 316 316 315 313 313 313 312 311 309 306 304 301 302 305 307
317 317 317 317 316 314 312 312 312 311 310 309 309 307 307 309 312 312 312 312 313 315 315 315 315 315 315 315 315 314 314 313 313 311 310 307 302 300 300 303 306 306
316 317 317 316 315 313 312 311 311 311 310 309 309 307 307 308 309 309 310 311 313 313 313 314 315 315 314 314 314 314 313 313 312 310 308 304 300 299 301 304 304 303
316 316 316 315 314 313 312 311 311 311 310 309 308 307 306 307 308 309 310 310 311 311 313 314 314 314 313 313 313 313 313 313 312 310 307 303 299 299 301 302 299 296
315 315 316 315 314 313 312 311 310 310 310 309 308 307 306 306 307 309 309 309 310 311 313 313 312 312 312 312 312 313 313 312 311 309 306 302 298 298 299 297 293 291
315 315 315 314 314 313 312 311 310 310 309 308 308 307 306 306 306 308 308 309 311 312 313 312 311 311 311 311 312 312 311 310 308 306 304 300 297 297 296 292 290 290
315 314 314 314 313 313 312 311 309 309 309 308 307 307 307 307 307 308 309 310 312 312 312 311 310 310 311 311 311 310 309 308 306 305 303 298 295 294 293 290 289 289
314 314 314 313 313 312 311 310 309 308 308 308 307 306 307 307 308 308 310 311 311 311 311 310 309 310 311 311 310 309 308 307 305 303 300 296 293 291 291 290 290 289
314 314 313 313 312 311 310 309 308 308 308 307 306 306 306 307 307 308 309 310 310 310 310 309 309 310 311 310 309 308 306 305 303 298 295 293 291 290 290 290 290 290
314 313 313 312 312 311 309 309 308 308 308 307 306 305 305 306 306 307 308 310 310 310 309 309 309 310 310 309 308 306 304 302 298 294 291 291 290 290 290 290 290 290
313 313 313 312 311 310 309 308 308 307 307 306 305 304 304 305 306 307 308 309 309 309 308 308 309 309 308 308 306 304 302 299 294 291 290 290 289 289 289 289 290 289
312 312 312 311 311 310 309 307 307 307 306 306 304 303 304 305 306 307 308 308 308 307 307 307 307 307 307 306 304 303 301 297 292 290 289 289 289 288 288 289 289 289
311 311 310 310 310 308 307 307 306 306 305 305 304 303 304 305 306 307 307 307 307 306 306 306 306 305 305 304 303 302 300 296 292 290 289 289 288 288 288 288 289 290
311 310 310 309 308 307 306 306 306 305 304 304 303 303 304 305 306 306 306 306 306 305 305 305 305 304 303 302 301 300 298 296 293 290 289 288 288 288 287 288 289 290
310 310 309 308 306 306 305 305 305 304 303 303 302 303 304 304 305 305 305 304 304 304 304 304 303 303 302 300 300 299 298 296 293 290 289 288 288 287 287 287 289 290
309 309 308 306 305 305 304 304 304 304 303 302 303 303 303 304 304 304 303 303 303 303 303 303 302 301 301 300 299 298 296 294 293 290 289 288 287 287 287 288 289 290

ECMWFNIL_850_thetae_075.txt.gz
Theta_e
316 315 315 315 314 314 313 313 313 313 313 312 312 311 311 310 310 310 311 314 317 320 321 323 324 322 322 321 321 321 324 324 322 321 321 320 320 319 319 319 319 318
316 315 315 315 315 314 313 313 313 313 313 313 313 312 311 310 310 310 310 313 318 322 323 322 321 320 319 320 321 323 324 323 321 321 320 320 319 318 318 318 318 318
316 316 315 315 315 314 314 313 313 313 313 313 313 313 312 311 310 310 311 314 318 321 322 320 319 320 321 323 324 324 323 322 322 321 320 319 318 317 317 317 317 317
316 316 316 315 315 314 314 313 313 313 313 313 313 312 312 311 310 310 311 315 318 320 321 321 321 322 323 324 323 323 323 322 321 321 320 319 318 318 318 317 316 316
316 317 317 316 316 315 315 314 313 313 312 312 313 312 311 311 310 309 311 314 318 320 321 321 321 322 322 322 322 322 322 321 321 320 319 319 319 319 317 316 315 314
317 317 317 317 317 316 316 315 314 313 313 312 312 312 312 311 310 309 309 313 318 319 319 319 319 320 321 321 321 320 320 320 320 320 319 318 318 318 317 316 314 314
317 317 317 317 317 316 316 315 315 314 313 312 312 311 311 311 310 308 306 309 314 316 317 318 318 319 320 320 319 319 319 320 320 319 318 317 317 317 316 315 314 314
317 317 317 317 317 317 316 315 315 314 312 312 312 311 311 310 310 308 305 308 314 315 316 318 320 320 320 319 317 316 317 319 320 319 318 317 316 316 316 315 315 314
317 317 317 317 317 317 317 316 314 313 312 312 312 311 311 310 310 308 306 309 314 314 314 317 319 319 318 317 315 315 317 318 318 317 317 316 315 315 315 314 314 312
317 317 317 317 317 317 317 316 315 313 312 312 311 311 310 310 309 308 307 308 310 312 313 316 318 318 318 317 315 315 317 317 316 316 316 315 314 314 313 313 313 311
317 317 317 317 317 317 317 316 315 314 313 312 311 311 310 310 309 308 308 307 308 310 313 315 317 317 317 317 316 316 317 316 315 315 315 314 313 313 312 313 312 310
317 316 316 316 317 317 316 316 315 314 313 312 311 310 310 310 309 308 308 307 308 311 313 314 315 315 315 315 315 316 316 315 314 314 315 314 313 313 313 312 311 308
316 316 316 316 316 316 316 316 315 314 313 312 311 310 310 309 309 308 307 307 308 310 311 312 313 313 313 314 315 315 315 315 314 314 314 313 313 312 312 311 308 306
316 316 316 316 316 316 315 315 315 314 313 312 311 310 310 309 308 308 306 306 307 309 311 311 312 312 312 312 314 315 314 314 314 314 313 313 312 311 310 309 306 303
316 315 315 315 315 315 315 315 314 314 313 312 311 310 309 309 308 307 306 306 307 309 309 309 310 310 310 311 312 313 313 313 313 313 313 312 311 310 309 307 304 301
315 315 315 314 315 315 315 314 314 313 312 311 311 310 309 309 308 307 306 306 307 307 307 307 308 308 310 311 311 312 312 312 312 312 311 311 311 309 307 304 301 300
315 315 315 315 314 314 314 314 313 313 312 311 311 309 309 308 307 307 306 306 306 307 307 307 308 308 309 310 311 312 312 311 311 311 311 310 309 307 305 301 299 299
315 315 315 315 314 314 314 313 313 312 311 311 310 309 309 308 307 306 306 306 306 306 306 307 307 307 308 309 311 312 311 311 311 310 310 309 307 305 302 299 298 298
315 315 314 314 314 313 313 313 312 312 311 310 310 309 308 308 307 305 305 304 304 304 305 307 307 308 309 310 311 311 310 310 310 310 309 307 305 303 300 297 297 296
314 314 314 314 313 313 313 313 312 312 311 310 309 308 308 307 306 304 304 304 305 305 307 308 309 309 310 311 310 310 310 310 310 309 307 305 304 301 297 296 296 293
313 313 313 313 313 313 313 313 312 312 311 309 308 308 307 307 305 304 304 305 306 306 307 308 309 310 310 310 309 309 309 309 309 308 306 304 301 297 295 294 293 291
313 313 313 312 312 312 312 312 312 311 310 308 307 307 306 306 305 304 303 304 305 306 307 308 309 309 309 309 309 308 308 308 308 305 304 302 298 294 292 292 291 289
312 312 312 312 311 311 311 311 311 309 308 307 306 306 305 305 303 303 303 304 305 305 306 307 308 308 309 308 308 308 307 306 305 303 302 300 295 291 290 290 288 288
311 311 311 311 311 311 310 310 309 308 307 305 305 305 305 304 303 302 302 303 304 305 305 306 307 308 308 307 307 307 306 304 302 301 300 297 292 289 288 288 287 286
310 310 310 310 310 310 309 309 308 306 305 304 304 304 303 303 302 301 302 303 304 305 305 306 306 306 306 306 305 304 303 302 300 299 296 293 290 288 287 287 286 286
311 310 310 310 309 309 308 307 306 305 304 303 303 303 302 302 301 301 302 303 304 304 304 304 305 305 305 304 304 302 301 299 299 297 294 291 289 288 287 286 286 287

ECMWFNIL_850_thetae_078.txt.gz
Theta_e
316 316 315 315 315 315 314 314 314 313 313 313 313 313 313 312 312 311 311 311 310 311 310 310 316 322 324 325 320 317 323 326 325 325 325 323 319 318 321 323 322 321
316 316 316 315 315 315 315 314 314 314 314 314 313 313 313 312 312 311 310 310 310 310 310 310 314 320 321 321 319 319 323 324 323 324 325 323 319 318 322 322 322 321
316 316 316 315 315 315 315 314 314 314 314 314 314 313 313 312 312 312 311 311 310 310 310 310 312 317 321 322 322 321 319 319 321 323 324 322 318 319 322 322 322 322
316 316 315 315 315 315 314 314 314 315 314 314 314 313 313 313 312 312 311 311 311 310 310 310 310 312 316 320 320 319 318 318 322 323 322 320 319 320 321 322 322 321
316 316 315 315 315 315 315 315 315 315 315 315 315 314 314 313 313 312 311 311 311 310 310 310 309 310 312 316 318 319 319 320 322 322 320 320 320 320 321 322 321 320
316 316 316 315 315 315 315 316 316 316 316 315 315 315 315 314 314 313 312 311 311 310 309 310 312 312 312 314 318 320 320 319 319 319 320 320 320 320 321 321 320 320
316 316 315 315 315 315 316 316 316 316 316 316 315 315 315 314 314 313 312 311 310 310 309 310 313 315 316 317 319 320 320 319 319 319 320 320 319 319 319 319 319 320
316 316 315 315 316 316 317 317 316 317 316 316 316 315 315 314 313 313 312 311 310 310 309 309 312 315 317 317 318 319 319 319 319 320 320 318 318 319 319 319 319 319
316 316 315 316 317 316 317 316 316 317 316 316 316 315 315 314 313 312 311 311 310 310 309 308 310 313 315 316 317 318 318 317 318 319 319 318 318 319 318 318 318 318
316 316 316 317 317 317 317 316 317 316 316 316 316 315 315 314 313 312 311 311 310 310 309 307 307 309 313 314 315 316 316 316 317 318 318 317 317 317 317 317 317 317
316 316 316 317 317 317 316 316 317 316 316 316 315 315 315 314 313 312 311 311 310 310 309 307 306 308 312 313 313 315 317 317 317 317 317 317 316 315 316 317 317 316
316 316 316 317 316 316 317 316 316 316 316 315 315 315 314 314 313 312 311 311 310 309 309 308 307 308 311 313 313 315 316 317 317 317 317 316 315 314 315 316 316 315
316 316 316 316 316 316 316 316 316 316 316 315 315 314 314 314 314 313 312 311 310 310 309 308 308 308 309 311 312 313 315 316 316 316 316 315 315 315 315 316 315 314
315 316 316 316 316 316 316 316 316 315 315 315 314 314 313 314 313 313 313 311 311 310 309 308 308 308 308 309 310 311 314 314 315 315 315 315 315 315 315 315 314 314
315 315 316 316 316 316 315 316 315 315 315 314 314 314 313 313 312 312 312 312 311 310 309 308 308 307 307 309 310 311 312 313 313 314 314 315 315 315 315 314 313 313
315 315 315 315 315 315 315 315 314 314 314 313 313 313 312 312 312 311 312 311 311 310 309 308 307 306 307 308 309 310 310 311 311 312 313 313 313 313 314 313 313 312
315 315 315 315 314 314 314 314 314 313 313 313 313 312 312 312 311 311 311 311 310 310 309 308 307 306 306 307 309 310 310 310 310 310 311 311 312 312 312 312 312 311
315 315 315 315 314 314 314 314 313 313 312 312 312 312 312 311 310 310 310 310 310 309 308 308 307 305 305 307 308 309 308 307 308 309 309 310 310 311 311 311 311 309
315 314 315 315 314 314 314 313 313 313 313 312 312 312 311 310 310 310 309 309 309 308 308 307 306 305 305 307 307 307 307 307 307 308 309 309 310 310 310 310 309 307
314 314 314 314 314 314 314 313 313 313 313 312 311 311 310 310 309 309 309 308 308 307 307 306 305 305 305 306 306 306 306 307 307 307 308 309 309 310 309 308 307 306
313 313 313 313 313 313 313 313 312 312 312 311 311 310 310 309 309 308 308 308 307 307 306 305 305 304 304 305 305 305 306 306 307 308 308 309 309 308 307 306 304 303
313 312 312 312 312 312 312 312 312 311 311 311 310 310 309 308 308 307 307 307 306 306 305 305 304 304 303 304 305 305 306 307 307 308 308 308 308 307 306 304 302 299
312 312 312 312 311 311 312 311 311 311 310 310 310 309 308 308 307 307 306 306 305 305 304 304 303 304 304 305 306 307 307 307 307 308 307 307 306 305 304 302 299 297
313 312 313 312 312 312 311 311 311 310 310 309 309 308 308 307 306 305 305 304 304 304 303 303 303 303 304 305 306 306 307 307 307 306 306 305 304 302 301 298 297 296
312 312 312 312 312 312 311 311 310 310 309 309 308 307 307 306 305 304 304 304 304 303 303 302 302 303 304 305 305 305 306 306 305 304 304 303 302 299 297 295 294 294
312 312 312 312 312 311 311 310 310 309 309 308 307 307 306 305 304 304 303 303 303 303 302 302 302 302 303 304 304 305 305 305 304 303 303 302 300 297 295 293 292 292

ECMWFNIL_850_thetae_081.txt.gz
Theta_e
315 315 315 315 315 314 314 314 314 315 314 315 315 314 314 314 314 315 314 315 315 315 315 315 315 315 316 316 316 316 315 314 314 314 315 317 317 317 320 322 321 320
316 316 315 315 315 315 315 315 315 315 315 315 314 314 314 314 314 314 313 313 313 313 313 313 313 313 313 313 313 313 312 312 315 318 319 321 322 320 319 318 318 319
316 316 316 315 315 315 315 315 315 315 315 315 314 314 314 314 313 313 313 312 312 312 312 311 311 311 311 311 311 311 310 310 313 318 321 322 322 322 319 317 318 319
316 316 316 315 315 315 315 315 315 315 315 315 315 314 314 313 313 313 313 312 312 312 312 311 311 311 311 310 310 311 310 310 313 317 320 321 321 322 321 318 319 320
316 316 316 316 315 315 315 315 315 315 315 315 315 314 314 314 313 313 313 313 313 313 312 312 311 311 311 310 311 311 310 310 313 317 319 319 321 321 320 319 319 319
316 316 316 316 316 315 315 316 316 315 315 315 315 314 314 314 314 314 314 314 314 313 313 313 312 312 311 310 310 311 310 309 311 315 317 318 319 319 319 319 318 318
316 316 316 316 316 316 316 316 316 315 315 315 315 315 315 314 315 315 315 315 314 314 314 313 313 313 311 311 310 310 310 309 310 312 315 317 317 318 318 318 317 317
316 316 316 316 316 316 316 316 316 316 315 315 315 315 315 315 315 316 315 315 315 314 314 313 313 313 312 311 311 309 309 310 310 310 311 313 315 315 316 317 317 318
315 316 316 316 316 316 316 316 316 315 315 315 315 315 315 315 316 316 315 316 315 315 315 314 313 313 312 311 311 310 309 310 313 313 312 312 313 314 315 317 318 318
315 315 315 316 315 316 316 315 315 315 315 315 315 316 316 316 316 316 316 316 315 315 315 314 313 312 311 311 311 310 309 309 312 314 315 314 314 315 316 317 317 317
315 315 315 315 315 316 316 315 315 315 315 315 315 316 316 316 316 316 316 315 315 315 315 314 313 312 311 311 310 310 309 308 310 312 314 315 315 316 316 316 316 316
315 315 315 315 315 315 315 315 315 315 315 315 315 315 315 315 315 315 315 315 315 315 314 314 313 312 311 311 310 310 308 308 308 309 312 313 314 315 315 315 314 315
315 315 315 315 315 315 315 316 316 316 316 316 316 315 315 315 315 315 315 315 314 314 314 313 313 312 312 311 310 310 308 307 306 308 310 310 311 313 314 315 315 315
314 315 315 315 315 315 315 315 315 315 315 315 315 315 315 315 314 314 314 313 314 314 313 313 312 312 312 311 310 309 308 307 306 308 309 310 311 312 314 315 315 315
314 315 314 314 315 315 315 315 314 314 314 314 314 314 314 314 313 313 313 313 313 313 312 312 312 312 311 311 310 309 308 307 306 306 308 309 310 312 313 314 314 314
315 314 314 315 315 314 315 315 314 315 314 314 314 313 313 312 312 312 312 312 312 312 312 312 312 311 311 310 310 309 307 306 306 306 307 308 309 310 311 313 313 314
314 315 314 314 314 314 314 314 314 314 314 314 314 313 313 312 312 312 312 312 312 312 312 312 311 311 311 310 309 309 307 306 305 305 307 308 309 309 310 310 311 312
314 314 314 314 314 314 314 314 314 314 314 314 314 313 313 312 312 312 311 311 311 311 311 311 311 310 310 309 309 308 307 305 304 305 307 308 308 309 308 308 309 310
313 313 314 314 314 314 314 314 314 314 314 314 314 313 313 313 312 312 311 311 311 311 311 310 310 310 309 309 308 307 306 305 304 305 306 307 308 308 308 308 308 309
313 313 313 313 313 313 313 313 313 314 313 313 313 313 313 313 312 312 311 311 310 310 310 310 309 309 308 308 307 306 306 305 304 305 306 307 308 308 307 306 306 306
313 313 313 313 313 313 313 313 313 313 313 313 312 312 312 312 312 312 311 311 310 309 309 309 309 308 307 307 306 305 305 304 304 305 306 307 307 307 306 306 305 306
313 313 313 313 313 313 312 312 312 312 312 312 312 312 312 311 311 311 310 310 309 309 308 308 308 307 306 306 305 305 304 303 304 305 306 306 306 306 305 305 305 306
312 312 312 313 313 313 313 312 312 312 312 312 312 312 312 311 311 311 310 310 309 308 308 308 307 306 305 305 304 304 303 303 303 304 305 305 305 305 304 305 305 306
311 312 312 312 312 312 312 312 312 311 311 311 311 311 311 311 311 310 310 309 309 308 307 307 306 305 304 303 303 303 303 303 303 303 303 303 304 304 305 305 305 305
310 311 311 311 311 312 312 312 311 311 310 310 310 310 310 310 310 310 310 309 308 307 306 306 305 304 303 302 302 302 302 303 303 303 303 303 304 304 304 304 304 303
310 310 310 311 311 311 311 311 311 310 310 309 309 309 309 309 309 309 309 308 307 306 306 305 304 303 302 302 302 302 302 302 303 303 303 303 304 304 304 303 302 301

ECMWFNIL_850_thetae_084.txt.gz
Theta_e
315 315 316 316 316 316 315 315 314 314 314 313 314 314 314 314 315 315 315 315 315 315 315 316 316 316 317 318 319 320 321 322 322 322 322 321 321 320 319 319 318 318
315 315 315 316 316 316 316 315 315 314 314 314 314 314 314 314 314 314 314 314 314 314 314 314 314 315 315 316 316 317 317 318 319 319 318 318 317 317 317 317 317 316
315 315 315 315 315 316 315 315 315 315 315 315 315 314 314 314 314 314 314 314 314 314 313 313 313 313 313 313 314 314 314 314 314 314 314 314 315 316 316 315 315 313
315 315 315 315 315 315 315 315 315 315 315 315 315 314 314 314 314 314 314 314 314 314 313 313 313 313 312 312 312 312 312 312 312 312 312 312 312 312 312 311 310 311
315 315 315 314 315 315 315 315 315 315 315 315 315 315 314 315 314 314 314 314 314 314 314 314 313 313 312 312 312 312 312 312 311 311 310 310 311 311 311 310 309 311
315 315 315 315 315 314 315 315 315 315 315 315 315 315 315 315 315 315 315 315 314 314 314 314 314 313 313 312 312 312 312 312 311 311 310 310 310 310 310 310 309 310
315 315 315 315 315 314 315 315 315 315 315 315 315 315 315 315 315 315 314 314 315 314 314 314 314 314 313 313 313 313 313 313 312 311 310 311 310 309 309 309 309 309
314 315 315 315 315 315 314 315 315 315 315 315 315 315 315 314 314 314 314 314 314 314 314 314 314 314 314 313 313 313 313 313 312 311 311 310 309 309 308 309 309 309
315 315 314 315 314 314 314 315 315 315 315 315 315 315 315 315 315 315 314 314 314 314 314 314 314 315 314 314 314 313 313 313 312 312 311 311 310 309 308 309 311 310
314 314 314 314 314 314 314 314 315 315 314 315 315 315 315 315 315 315 315 315 314 314 314 314 314 314 314 314 314 314 313 313 313 312 311 311 310 309 308 309 312 312
314 314 314 314 314 314 314 314 314 314 314 315 314 315 315 315 315 315 315 314 314 314 314 314 314 314 314 314 314 313 313 313 312 312 312 311 311 309 308 309 311 312
314 314 314 314 314 314 314 314 314 314 314 314 314 314 314 314 314 314 314 314 314 313 314 314 314 313 313 313 313 313 313 312 312 311 311 311 311 310 308 308 309 311
314 314 314 314 314 314 314 314 314 314 314 314 314 314 314 314 314 314 314 314 313 313 313 313 313 313 313 313 313 313 312 312 312 311 311 311 310 310 309 308 308 309
314 314 314 313 313 313 313 313 313 314 314 314 314 314 314 314 314 314 314 314 314 313 313 313 312 312 312 312 312 312 312 311 311 311 310 310 310 310 309 308 307 307
313 313 313 313 313 313 313 313 313 313 313 314 314 314 314 314 314 314 314 314 314 313 313 312 312 312 312 312 311 311 311 311 311 311 310 310 310 309 309 307 306 306
313 313 313 313 313 313 313 313 312 313 313 313 314 314 313 314 313 314 314 313 314 313 312 312 312 311 311 311 311 311 311 311 310 310 310 309 309 309 308 307 306 305
312 312 312 312 312 312 312 312 312 313 313 313 313 313 313 313 313 313 313 313 313 313 313 312 312 311 311 310 310 310 310 310 310 310 309 309 308 308 308 306 305 304
311 311 311 311 312 312 312 312 312 312 312 313 313 313 313 313 313 313 313 312 312 312 312 312 312 311 310 310 310 310 310 310 309 309 309 308 308 308 307 306 304 303
310 310 310 310 311 311 311 311 312 312 312 312 312 312 313 313 313 313 313 313 312 312 312 312 311 311 310 310 309 309 309 309 309 308 308 308 307 307 307 305 303 303
309 309 309 309 309 310 310 310 310 311 311 311 311 312 312 312 312 312 313 312 312 312 312 312 312 311 310 309 309 309 308 308 308 308 307 307 307 306 306 304 303 303
307 308 308 308 308 308 309 309 309 310 310 310 311 311 311 311 312 312 312 312 312 312 312 312 312 311 310 309 308 308 308 307 307 307 307 307 306 306 305 304 303 302
305 305 305 306 306 307 307 308 308 309 309 310 310 310 311 311 311 311 311 311 311 311 311 311 311 310 310 309 308 307 307 307 306 306 306 306 305 304 304 303 302 303
302 302 302 303 303 304 305 306 307 308 309 309 309 310 310 310 310 311 311 311 311 311 311 311 311 310 309 308 308 307 306 306 306 305 305 304 303 303 302 302 302 303
300 300 300 300 301 302 302 304 306 308 309 309 309 310 310 310 310 310 310 310 311 310 310 310 310 309 308 307 307 306 305 305 305 304 303 303 302 302 302 302 302 302
300 300 300 300 300 300 300 301 303 306 308 309 310 309 310 310 310 310 310 310 310 309 309 309 309 308 307 306 306 305 305 304 304 303 302 302 302 302 302 302 302 302
300 300 300 300 300 300 300 300 300 302 305 308 309 309 309 310 310 310 310 310 309 309 308 308 307 307 306 305 305 304 304 303 303 302 302 302 302 302 302 301 302 302

ECMWFNIL_850_thetae_087.txt.gz
Theta_e
315 314 314 315 314 314 314 314 314 314 314 314 314 314 313 313 313 314 314 314 315 316 316 316 316 316 317 317 317 317 316 316 318 322 324 321 319 320 320 320 321 321
315 315 315 315 315 314 314 314 314 314 314 314 314 314 314 314 314 314 314 314 314 315 315 315 315 315 315 315 315 315 315 315 316 318 320 320 319 320 320 320 321 321
315 315 315 314 315 315 314 314 314 314 314 314 314 314 314 314 314 314 314 314 314 314 314 314 314 314 314 314 315 314 314 315 315 315 316 316 317 317 317 317 318 318
315 315 315 315 314 315 315 315 314 314 313 314 314 314 314 314 313 314 314 314 314 313 314 314 314 314 313 314 314 313 313 313 313 314 314 314 314 314 314 314 314 314
315 315 315 314 315 314 314 314 314 314 314 313 314 313 313 314 313 313 313 313 313 313 313 313 313 313 313 313 313 313 312 312 312 312 312 312 312 312 312 312 312 312
314 315 314 314 314 314 314 314 314 314 314 313 314 314 314 313 313 314 313 313 313 313 313 313 313 313 313 313 313 312 312 312 312 312 312 312 312 311 311 311 311 310
314 314 314 314 314 314 314 314 314 314 314 314 314 313 313 314 314 314 313 314 314 314 314 314 314 314 314 313 313 313 313 312 312 312 312 312 312 311 312 311 311 311
314 314 314 314 314 314 314 314 314 314 314 314 314 313 313 313 313 313 313 313 313 314 314 314 314 314 314 314 314 313 313 313 312 312 312 312 312 312 312 312 311 311
314 314 314 314 314 314 314 314 314 314 314 314 314 314 314 313 313 313 313 313 313 313 313 313 314 313 313 313 313 313 313 313 313 312 312 312 312 312 312 312 311 311
314 314 314 314 314 314 313 313 313 313 313 313 313 313 314 314 314 314 313 314 313 313 313 313 313 313 313 313 313 313 313 313 313 313 312 312 312 312 312 311 311 311
314 314 314 313 313 313 313 313 313 313 312 312 312 312 313 313 313 314 314 314 314 314 314 313 314 313 313 313 313 313 313 313 313 312 312 312 312 312 311 311 311 310
313 313 313 313 313 313 313 313 313 313 313 313 312 312 312 312 312 313 313 314 314 314 313 313 313 313 313 313 313 313 313 312 312 312 312 312 311 311 311 310 310 310
313 313 313 313 312 312 312 312 312 312 312 312 312 312 312 312 312 312 312 313 313 313 313 313 313 313 313 313 313 313 312 312 312 311 311 311 311 311 311 310 310 310
312 312 312 312 311 311 311 311 311 311 311 312 311 312 312 312 312 312 312 312 313 313 313 313 313 313 313 312 312 312 312 312 311 311 311 311 311 311 310 310 310 310
311 310 310 310 310 310 310 310 310 310 310 310 311 311 311 311 311 312 312 312 312 313 313 313 313 313 312 312 312 312 312 312 311 311 311 311 310 310 310 310 310 310
308 308 308 308 308 308 308 308 308 308 308 308 309 309 310 310 310 311 311 311 311 312 312 312 312 312 312 312 312 312 311 311 311 311 311 311 310 310 310 310 310 309
306 306 306 306 306 306 305 305 305 305 305 306 306 307 308 308 309 309 310 310 310 310 311 311 311 311 311 311 311 311 311 311 311 311 310 310 310 310 310 310 310 309
304 304 304 304 304 303 303 303 303 303 303 303 304 304 305 306 307 308 309 309 309 310 310 310 310 310 311 311 311 310 310 310 310 310 310 310 310 309 309 309 309 309
302 302 302 302 302 302 302 302 302 302 302 302 302 302 303 304 305 307 308 309 309 309 309 310 310 310 310 310 310 310 310 309 310 310 309 310 309 309 309 308 308 308
302 302 302 302 302 302 302 301 301 301 301 301 301 301 301 302 303 304 306 307 308 309 309 309 310 310 310 310 309 309 309 309 309 309 309 309 309 309 308 308 308 307
302 302 302 302 302 302 301 301 301 301 301 301 301 301 301 301 301 301 302 304 306 307 308 309 309 309 309 309 309 309 308 308 308 308 308 308 308 308 308 308 307 305
302 302 302 302 302 301 300 300 299 300 301 301 301 301 301 301 301 301 301 301 302 303 305 306 308 309 309 309 309 308 308 307 307 307 307 307 307 307 307 307 306 305
301 301 301 301 300 300 299 298 298 299 299 300 300 301 301 301 301 301 300 300 300 300 301 302 304 307 308 308 308 308 307 307 307 306 306 306 306 306 306 306 305 304
300 299 299 299 298 297 297 297 297 297 298 298 299 299 300 300 300 300 301 300 300 300 300 300 301 303 306 307 307 307 306 306 306 305 306 306 306 305 305 305 304 304
297 297 296 296 296 296 296 296 296 296 296 296 297 297 298 298 298 299 299 300 300 300 300 300 299 300 303 305 306 306 305 305 304 304 305 305 305 304 304 304 303 303
295 295 295 295 295 295 295 295 295 295 296 296 296 296 296 296 297 297 297 298 298 298 298 299 299 299 301 303 305 306 305 304 304 304 304 304 304 303 303 303 302 301

ECMWFNIL_850_thetae_090.txt.gz
Theta_e
315 315 314 314 314 314 314 314 314 314 314 314 314 314 314 314 313 313 313 313 313 313 314 315 316 317 317 318 319 320 321 321 321 321 322 322 322 321 322 320 318 318
314 315 314 315 314 314 314 314 314 314 314 314 314 314 313 313 313 313 313 313 313 313 314 314 315 315 316 316 316 317 318 318 318 319 320 320 320 320 320 317 316 318
314 315 315 315 314 314 314 314 314 314 314 314 314 314 313 313 313 313 313 313 313 313 313 314 314 314 315 315 315 315 315 315 315 316 317 317 317 317 317 316 316 317
314 314 314 314 314 314 314 314 314 314 314 314 314 314 313 313 313 313 313 313 313 313 313 313 313 313 314 314 314 314 314 314 314 314 314 314 314 314 314 314 315 315
314 314 314 314 314 314 314 314 314 314 314 314 314 314 313 313 313 313 313 313 313 313 313 313 313 313 313 313 313 313 313 313 313 313 313 313 313 312 313 313 312 313
314 314 314 314 314 314 314 314 314 314 314 314 314 314 314 313 313 313 313 313 313 313 313 313 313 313 313 313 313 313 313 313 313 312 312 313 313 312 312 312 312 312
314 314 314 314 314 314 314 313 313 313 313 313 313 313 313 313 313 313 313 313 313 313 313 313 312 312 312 312 312 313 313 313 313 312 312 313 312 312 312 312 312 311
314 314 314 314 313 313 313 313 313 312 312 312 312 313 312 312 313 313 313 313 313 313 313 313 313 313 313 313 312 313 312 312 312 312 312 312 312 312 312 312 312 312
313 313 313 313 313 313 312 312 313 312 312 312 312 312 312 312 312 312 312 312 312 313 313 313 313 313 313 313 313 313 313 313 312 312 312 312 312 312 312 312 312 312
313 313 313 313 313 313 313 312 312 312 312 312 312 311 312 312 312 312 312 312 312 312 312 312 313 312 313 313 312 313 313 313 313 312 312 312 312 312 311 311 311 311
313 313 313 313 313 312 312 312 311 311 310 310 310 311 311 311 311 311 311 311 311 312 312 312 312 312 312 312 312 312 312 312 312 312 312 312 312 312 311 311 311 311
313 313 312 312 312 311 311 310 310 309 309 309 309 309 309 309 309 310 310 310 310 311 311 311 312 312 312 312 312 312 312 312 312 312 312 312 312 312 311 311 311 311
312 312 312 311 310 310 309 308 308 308 307 307 307 306 306 306 307 307 307 308 308 309 310 310 310 311 311 311 311 311 311 311 311 312 311 312 311 311 311 311 311 311
311 310 309 309 308 307 307 306 305 305 305 304 304 304 304 303 304 304 304 305 306 307 308 308 309 309 310 310 310 310 311 311 311 311 311 311 311 311 311 311 311 311
307 307 306 305 305 304 304 304 303 303 303 303 303 302 302 302 302 302 302 302 303 304 305 306 307 308 309 309 310 310 310 310 310 310 310 311 311 311 311 311 311 311
303 303 303 303 303 303 303 303 303 303 302 302 301 301 301 301 301 301 301 301 301 302 302 303 304 305 307 308 309 309 310 310 310 310 310 310 310 310 310 310 310 310
302 302 302 302 302 303 303 303 303 303 302 301 300 299 299 299 300 300 300 301 301 301 301 301 301 301 302 303 304 306 307 309 309 310 310 310 310 310 310 310 310 309
302 302 302 302 302 302 303 303 303 302 302 300 299 298 298 298 298 299 299 299 300 300 300 300 300 300 300 300 301 301 303 304 306 307 308 309 309 309 309 309 309 309
302 302 302 302 302 302 302 302 302 301 299 298 298 297 298 298 298 298 298 298 298 298 298 298 299 299 299 300 300 300 300 301 301 302 304 305 307 308 309 309 309 308
302 302 302 302 301 301 301 300 300 298 297 297 297 297 297 297 297 297 297 297 297 297 297 297 297 297 297 298 298 299 299 299 299 300 300 301 303 304 306 307 308 308
300 300 300 299 299 299 298 298 297 297 297 297 297 297 297 297 297 297 297 297 297 297 297 297 296 296 296 296 296 297 297 298 298 299 299 299 300 301 302 304 306 307
298 298 297 297 297 297 297 296 297 297 297 297 297 297 297 297 297 297 297 297 296 296 296 296 296 296 296 296 296 296 296 297 297 298 298 298 299 300 301 302 304 305
296 296 296 296 296 296 296 296 296 296 296 296 296 296 296 296 296 296 296 296 296 296 296 296 296 296 295 295 295 295 296 296 296 297 297 297 298 299 300 301 302 303
296 295 295 295 295 295 296 296 295 295 295 295 295 296 296 296 296 296 296 296 296 295 295 295 295 295 295 295 295 295 295 296 296 296 297 297 297 298 299 300 301 302
295 295 295 295 295 295 295 295 295 295 295 295 295 295 295 295 295 295 295 295 295 295 295 295 295 295 295 294 295 295 295 296 296 296 296 296 297 298 298 299 300 301
294 294 295 295 295 295 295 295 295 295 295 295 295 295 295 295 295 295 295 295 295 295 295 294 294 294 294 294 294 294 294 295 296 296 297 297 297 298 298 299 300 301

ECMWFNIL_850_thetae_093.txt.gz
Theta_e
315 314 315 314 314 314 314 314 314 314 314 314 314 314 314 314 314 313 313 313 313 313 313 313 313 313 313 313 314 315 317 320 320 319 319 319 320 320 320 320 320 320
314 314 314 314 314 314 314 314 314 314 314 314 313 314 314 313 313 313 313 313 313 313 313 313 313 313 313 313 313 314 314 315 317 317 317 317 317 318 318 318 317 318
314 314 314 314 314 314 314 314 314 314 314 314 314 314 313 313 313 313 313 313 313 313 312 313 313 313 313 313 313 313 314 314 314 315 315 315 316 316 317 317 317 317
314 314 314 314 314 314 314 314 314 314 314 313 314 313 314 314 313 313 313 313 313 313 313 312 312 312 312 312 312 312 313 313 313 313 314 314 314 314 314 315 315 316
314 314 314 314 314 314 314 314 314 314 314 313 313 313 313 313 313 313 313 313 313 313 313 313 313 312 312 312 312 312 312 312 312 312 312 313 313 313 313 313 313 313
314 314 314 314 314 314 314 314 313 313 313 313 312 312 312 312 312 312 312 312 312 312 312 312 312 313 312 312 312 312 312 312 312 312 312 312 312 312 312 312 312 312
314 314 314 314 314 314 313 313 313 312 312 312 312 312 312 312 312 312 312 312 312 312 312 312 312 312 312 312 312 312 312 312 312 312 312 312 312 312 311 312 311 311
313 313 313 313 313 313 313 312 312 312 312 312 311 311 311 311 311 311 311 311 311 311 311 311 311 312 312 312 312 312 312 312 312 312 312 312 312 312 312 311 311 311
313 313 313 313 313 312 312 312 312 311 311 310 310 310 310 309 309 309 309 309 309 309 310 310 310 310 311 311 311 311 311 311 311 311 311 312 311 312 312 311 311 311
313 312 312 312 312 312 312 311 310 310 309 309 308 307 307 306 306 306 305 305 306 306 306 307 308 308 309 309 309 310 310 310 310 310 310 311 311 311 311 311 311 311
312 311 311 311 311 311 310 309 308 307 306 306 305 304 304 303 303 303 303 303 303 303 303 303 304 305 306 306 307 308 308 309 309 309 310 310 310 310 310 310 310 310
311 311 310 310 310 309 308 307 306 305 304 304 303 303 303 303 302 302 302 302 302 302 302 302 302 302 302 303 303 304 304 305 305 306 307 307 308 308 309 309 310 310
310 309 308 308 307 307 306 304 304 303 303 303 303 303 303 302 302 301 301 301 300 300 300 300 300 301 301 301 301 301 301 302 302 302 302 303 303 304 305 306 306 307
308 307 306 306 305 304 303 303 303 303 303 303 303 303 303 302 301 300 299 299 298 298 298 298 298 299 299 299 299 299 300 300 300 300 300 300 301 301 301 302 302 302
305 304 304 303 303 303 302 302 303 303 303 303 303 303 302 300 298 298 298 297 297 297 297 297 297 297 297 297 297 297 297 297 297 297 298 298 298 299 299 299 300 300
303 303 303 303 302 303 303 303 303 303 303 303 302 301 299 298 297 297 297 297 297 297 297 297 296 296 296 296 296 296 296 296 296 296 296 296 296 296 297 297 297 298
302 302 302 302 302 302 303 302 302 302 301 300 299 298 297 297 297 297 297 297 297 297 297 297 296 296 296 295 295 295 295 295 295 295 295 295 295 295 296 296 296 296
302 302 302 302 301 301 300 300 299 298 298 297 297 297 297 297 297 297 297 296 296 297 297 297 296 296 296 295 295 295 295 295 295 295 295 295 295 295 295 295 295 295
301 301 300 299 298 298 297 297 296 296 296 296 296 296 296 296 296 296 296 296 296 296 296 296 296 296 296 295 295 295 295 294 295 295 295 295 295 295 295 295 295 295
299 298 297 297 296 296 296 296 296 296 296 296 296 296 296 296 296 296 296 296 296 296 296 296 296 295 295 295 295 295 294 294 294 294 294 294 294 294 294 294 294 294
296 296 296 296 296 296 295 296 296 296 296 296 296 296 296 296 296 296 296 295 295 295 295 295 295 295 295 295 295 294 294 294 294 294 294 294 294 294 294 294 294 294
296 295 296 295 295 296 296 295 295 295 295 295 295 295 295 295 295 295 295 295 295 295 295 295 295 295 295 295 294 294 294 294 294 294 294 294 294 294 293 293 293 293
295 295 295 295 295 295 295 295 295 295 295 295 295 295 295 295 295 295 295 294 294 294 294 294 295 294 294 294 294 294 294 293 293 293 293 293 293 293 293 293 293 293
295 295 295 295 295 295 295 294 294 294 294 294 294 294 294 294 294 294 294 294 294 294 294 294 294 294 294 293 294 294 293 293 293 293 293 293 293 293 293 292 293 292
295 294 294 294 294 294 294 294 294 294 294 294 294 294 294 294 293 293 294 293 293 293 293 293 293 293 293 292 292 292 292 292 292 292 292 292 292 292 292 292 292 292
294 294 294 294 294 294 294 294 294 294 294 293 293 293 293 293 293 292 292 293 293 292 292 292 292 292 292 291 291 291 291 291 290 290 291 291 291 291 291 292 292 292

ECMWFNIL_850_thetae_096.txt.gz
Theta_e
314 314 314 314 314 314 314 314 314 314 314 314 313 313 313 313 313 313 313 313 313 313 313 312 312 312 312 312 312 312 312 312 313 313 314 314 314 315 316 317 317 317
314 314 314 314 314 314 314 314 314 313 313 313 313 313 313 313 313 313 313 313 313 313 313 313 313 313 313 312 312 312 312 312 312 312 312 313 313 314 314 315 315 315
314 314 314 314 314 314 314 314 313 313 313 313 313 313 313 313 313 313 312 312 312 312 312 312 312 312 312 312 312 312 312 312 312 312 312 312 312 312 312 312 313 313
314 314 314 314 314 314 314 313 313 313 313 313 313 313 313 312 312 312 312 311 312 312 311 312 312 312 312 312 312 312 312 312 312 312 312 312 311 311 311 311 311 311
314 314 314 314 314 314 313 314 313 313 313 313 312 312 312 312 311 311 311 311 311 311 311 311 311 311 311 311 311 311 311 311 311 311 311 311 311 311 311 311 311 311
314 313 314 314 313 313 313 313 313 312 312 312 312 311 311 311 311 310 310 310 310 310 309 309 309 309 309 309 309 310 310 310 310 310 310 310 310 310 310 310 310 310
313 313 313 313 313 313 313 313 312 312 312 311 311 311 310 310 310 309 308 307 307 306 306 306 305 305 305 306 306 306 307 307 307 308 308 308 308 308 308 308 308 309
313 313 313 313 313 313 312 312 312 312 311 310 310 309 308 308 307 306 305 304 304 303 303 303 302 302 302 302 302 303 303 303 303 303 303 303 304 303 303 304 304 304
313 313 313 313 313 312 312 312 311 310 309 308 307 306 305 305 304 303 303 302 302 302 301 301 301 300 300 300 300 300 300 300 300 300 300 300 300 300 300 300 300 300
312 312 312 312 312 312 311 310 309 308 306 305 304 304 303 303 302 302 301 301 300 300 299 299 299 299 299 298 298 298 298 298 298 298 298 298 298 298 298 297 298 298
312 312 312 311 311 310 309 308 307 305 304 303 303 303 303 303 303 302 301 300 299 299 298 298 298 298 298 298 298 298 298 297 297 297 297 297 297 297 297 297 297 297
311 311 310 310 308 307 306 305 304 303 303 303 303 303 303 303 303 302 301 300 299 298 298 298 298 298 298 298 297 297 297 297 297 297 297 297 297 296 296 296 296 296
310 309 308 307 305 304 303 303 303 303 303 303 303 303 303 303 302 301 300 299 298 298 297 297 297 297 297 297 297 296 296 296 296 296 296 296 296 296 296 296 296 295
306 305 304 303 302 302 302 302 302 302 303 303 303 303 302 302 300 299 298 297 297 297 297 297 297 296 296 296 296 296 296 296 296 296 296 296 296 295 295 295 295 295
303 303 302 302 302 302 302 302 303 303 303 302 301 301 299 299 298 297 297 297 297 297 296 296 296 296 296 295 295 295 295 295 295 295 295 295 295 295 295 295 295 295
301 301 301 301 302 302 302 302 302 301 300 299 298 298 297 297 296 296 296 296 296 296 296 296 296 295 295 295 295 295 294 294 294 294 294 294 294 295 295 295 294 294
301 301 302 302 302 301 300 300 299 298 298 297 297 296 296 296 296 296 296 296 296 296 296 296 295 295 295 295 294 294 294 294 294 294 294 294 294 294 294 294 294 294
301 301 301 300 299 298 298 297 297 297 297 296 296 296 296 296 296 296 296 296 295 295 295 295 295 294 294 294 294 294 294 294 294 294 294 294 293 293 293 294 294 293
300 300 299 298 297 297 296 296 296 296 296 296 296 296 296 296 296 295 295 295 295 295 295 294 294 294 294 294 294 294 293 293 293 293 293 293 293 293 293 293 293 293
298 297 297 296 296 296 296 296 296 296 296 296 296 295 295 295 295 295 295 295 294 294 294 294 294 294 293 293 293 293 293 293 293 293 293 293 293 293 293 292 292 292
297 297 296 296 296 296 296 296 296 296 295 295 295 295 295 295 295 294 294 294 294 294 294 294 293 293 293 293 292 292 292 292 292 292 292 292 292 292 292 292 292 291
296 296 296 296 295 295 295 295 295 295 295 295 295 295 294 294 294 294 294 294 294 293 293 293 293 292 292 292 292 291 291 291 291 291 291 291 291 291 291 291 291 291
296 296 296 295 295 295 295 295 295 295 295 295 295 294 294 294 294 294 293 293 293 293 292 292 293 292 291 291 291 291 291 291 290 290 290 290 290 290 290 290 290 290
296 296 295 295 295 295 295 295 294 294 294 294 294 294 293 293 293 293 292 292 292 292 292 291 292 292 291 291 290 290 290 289 289 289 289 289 289 290 290 290 290 290
295 295 295 295 294 294 294 294 294 294 294 293 293 293 293 292 292 292 292 291 291 291 291 291 291 291 291 290 290 289 289 289 288 288 288 289 289 289 289 289 289 289
295 294 294 294 294 294 294 294 293 293 293 293 292 292 292 291 291 291 291 291 291 291 291 290 290 290 290 290 289 289 288 288 288 288 288 288 288 288 288 288 288 288

ECMWFNIL_850_thetae_099.txt.gz
Theta_e
314 314 314 314 313 313 313 313 313 313 313 313 313 313 313 313 313 313 313 313 312 312 312 312 312 312 312 312 312 312 312 311 311 311 311 311 311 311 311 311 311 311
314 314 314 314 313 313 314 313 313 313 313 313 313 313 313 313 313 312 312 312 312 311 311 311 311 311 311 311 311 311 311 311 311 311 311 310 310 310 310 310 310 310
313 314 314 314 314 313 314 313 313 313 313 313 313 313 313 312 312 312 311 311 311 311 311 310 310 310 309 309 309 309 309 309 309 309 309 309 309 309 309 308 308 308
314 314 314 313 314 313 313 313 313 313 313 313 313 312 312 311 311 311 310 310 310 310 309 308 308 307 306 306 306 305 305 305 305 305 305 305 305 305 304 304 304 303
313 313 313 313 313 313 313 313 313 313 313 312 312 312 311 311 311 310 310 309 308 307 306 305 305 304 304 303 303 303 302 302 302 301 301 301 301 300 300 300 299 299
313 313 313 313 313 313 313 313 313 313 312 312 312 311 311 310 310 309 308 306 305 304 304 303 303 302 302 301 301 300 300 299 299 299 298 298 298 298 297 297 297 297
313 313 313 313 313 313 313 313 312 312 312 312 311 311 310 309 308 306 305 304 303 303 302 302 301 301 300 299 299 298 298 298 298 298 298 297 297 297 297 297 297 296
313 313 313 313 313 313 312 312 312 312 311 310 309 308 307 306 305 304 303 303 302 302 301 301 300 299 299 299 298 298 298 298 297 297 297 297 297 297 297 297 297 296
313 313 313 313 312 312 312 311 311 310 309 308 306 305 304 303 303 303 303 303 302 301 300 299 299 298 298 298 298 298 297 297 297 297 297 297 297 297 297 297 297 296
313 313 312 312 312 312 311 311 310 308 306 305 304 303 303 303 303 303 303 302 300 300 299 298 298 298 298 298 297 297 297 297 297 297 297 297 296 296 296 296 296 296
312 312 312 312 311 311 310 309 308 306 304 303 303 303 303 303 303 302 301 300 299 298 298 298 297 297 297 297 297 297 296 296 296 296 296 296 296 296 295 295 295 295
312 311 311 310 310 309 309 307 306 304 303 302 303 303 303 302 301 300 299 298 298 297 297 297 297 297 296 296 296 296 296 296 296 295 295 295 295 295 295 295 294 294
310 310 309 308 307 307 306 305 303 303 302 303 302 302 301 300 298 297 297 297 297 297 296 296 296 296 296 296 296 295 295 295 295 295 295 295 295 294 295 294 294 294
308 307 306 306 305 304 303 303 302 302 302 302 301 299 298 297 297 297 296 296 296 296 296 296 295 295 295 295 295 295 295 295 295 295 294 294 294 294 294 294 294 293
306 305 304 304 303 302 302 302 302 301 300 299 298 297 297 296 296 296 296 296 296 296 295 295 295 295 295 295 295 295 295 295 294 294 294 294 294 294 294 294 293 293
305 304 303 302 302 302 302 301 300 298 297 297 296 296 296 296 296 296 296 296 296 296 295 295 295 295 295 294 294 294 294 294 294 294 293 293 293 293 293 293 293 293
304 302 302 302 302 301 300 299 297 296 296 296 296 295 295 296 295 296 296 295 296 295 295 295 294 294 294 294 294 294 293 293 293 293 293 293 293 293 293 293 293 293
302 302 301 301 301 299 298 297 296 296 295 295 295 295 295 295 295 295 295 295 295 295 294 294 294 294 294 293 293 293 293 293 293 293 293 293 293 293 293 292 292 292
301 301 301 300 298 297 296 296 296 295 295 295 295 295 295 295 295 295 295 295 295 294 294 293 293 293 293 293 293 293 292 292 292 292 292 292 292 292 292 292 292 292
301 300 299 297 296 296 296 296 295 295 295 295 295 295 295 295 295 295 294 294 294 294 293 293 292 292 292 292 292 292 292 292 292 292 292 292 292 292 292 292 291 291
299 297 297 296 296 296 296 295 295 295 295 295 295 295 295 294 294 294 294 293 293 293 293 292 292 292 292 292 292 292 292 292 291 291 291 292 292 292 291 291 291 290
297 296 296 296 296 296 295 295 295 295 294 294 294 294 294 294 294 293 293 293 293 292 292 292 292 292 292 292 291 291 291 291 291 291 291 292 292 292 291 291 290 289
296 296 296 296 296 295 295 295 295 294 294 294 294 293 293 293 293 293 292 292 292 292 292 292 291 291 291 291 291 290 290 290 290 290 291 291 292 292 291 290 290 289
297 296 296 296 295 295 295 294 294 294 293 293 293 293 293 293 293 292 292 292 292 291 291 291 291 291 290 290 290 289 289 289 290 290 290 291 291 291 291 290 290 289
296 296 295 295 295 294 294 294 293 293 293 293 292 292 292 292 292 292 291 291 291 291 291 291 291 290 290 290 290 289 289 289 289 289 289 290 290 290 290 290 290 289
296 295 295 295 294 294 293 293 293 292 292 292 292 291 291 291 291 291 291 291 291 291 291 290 290 290 290 289 289 289 289 289 288 288 288 289 289 289 289 289 289 289

ECMWFNIL_850_thetae_102.txt.gz
Theta_e
320 320 320 319 317 316 317 317 316 314 313 313 313 313 313 313 313 313 312 312 312 312 311 311 311 311 310 310 309 309 308 308 308 307 307 307 307 306 306 306 305 304
315 315 314 315 315 316 315 314 313 313 313 313 313 313 313 313 312 312 312 311 311 311 310 310 310 309 308 307 306 305 305 304 304 303 303 302 302 301 301 300 300 299
312 313 314 314 315 314 313 313 313 313 313 313 313 313 313 312 312 311 311 311 310 310 309 308 307 306 305 304 303 303 303 302 302 301 301 300 299 299 298 298 297 297
313 314 314 314 313 313 313 313 313 313 313 313 313 312 312 311 311 311 310 310 309 308 307 306 305 304 304 304 304 303 303 302 301 300 299 299 298 298 297 297 297 297
313 313 313 313 313 313 313 313 313 313 313 312 312 312 311 311 310 310 309 308 307 305 305 304 304 304 305 304 304 303 302 301 300 299 298 298 297 297 297 297 297 296
313 313 313 313 313 313 313 313 313 313 312 312 312 311 311 310 309 308 307 305 304 304 304 304 304 304 304 303 302 301 300 299 298 298 297 297 297 297 297 296 296 296
313 313 313 313 313 313 313 313 313 312 312 311 311 310 310 309 307 306 305 304 304 303 303 303 302 302 301 301 300 299 298 298 297 297 297 297 297 297 297 296 296 296
313 313 313 313 313 313 313 312 312 312 311 311 310 309 308 307 305 304 304 304 304 303 303 302 301 300 299 299 298 298 297 297 297 297 297 297 297 296 296 296 296 296
313 313 313 313 312 312 312 312 311 311 310 309 308 307 306 304 304 304 303 304 303 302 301 300 299 298 298 298 297 297 297 297 297 297 296 296 296 296 296 296 295 295
313 313 312 312 312 312 311 311 310 310 308 306 305 305 304 303 303 303 303 303 301 300 299 298 298 297 297 297 297 297 297 296 296 296 296 296 295 295 295 295 295 295
313 312 312 312 311 311 311 310 309 308 306 304 304 304 303 303 303 303 302 300 299 298 297 297 297 297 297 296 296 296 296 296 296 296 295 295 295 295 295 294 294 294
312 312 312 311 311 310 310 309 307 306 304 304 303 303 303 303 302 301 299 298 297 297 297 296 296 296 296 296 296 295 295 295 295 295 295 295 294 294 294 294 294 293
312 311 311 311 310 309 308 307 305 304 303 303 303 303 303 302 300 298 297 297 297 296 296 296 295 295 295 295 295 295 295 295 295 294 294 294 294 294 293 293 293 293
311 311 310 310 309 308 306 305 304 303 303 302 302 302 301 299 297 297 296 296 296 296 295 295 295 295 295 295 295 295 295 295 294 294 294 294 294 293 293 293 293 293
311 311 310 309 308 306 304 303 303 302 302 302 301 300 298 297 296 296 296 296 295 295 295 294 294 294 294 295 295 294 294 294 294 294 294 294 294 293 294 294 294 294
310 310 309 307 305 304 303 302 302 302 302 300 299 298 297 296 296 295 295 295 295 295 294 294 294 294 294 294 294 294 294 294 294 293 293 293 293 293 294 294 294 294
310 308 307 305 303 302 302 302 302 301 300 298 297 297 296 296 295 295 295 295 294 294 294 294 294 294 294 294 294 294 293 293 293 293 293 293 293 293 293 294 294 294
308 306 304 303 302 302 302 301 300 299 297 297 296 296 296 295 295 295 295 294 294 294 294 294 293 293 294 293 293 293 293 293 293 293 293 293 293 293 293 293 293 293
306 304 303 302 302 301 301 300 298 297 297 296 296 295 295 295 295 294 294 294 293 293 293 293 293 293 293 293 293 293 293 293 293 293 293 293 293 293 293 293 293 293
304 302 301 301 301 300 299 298 297 296 296 295 295 295 294 294 294 294 294 293 293 293 293 293 293 293 293 293 293 293 293 293 293 293 293 292 293 293 293 293 293 292
302 301 301 301 300 299 297 296 296 296 295 295 295 294 294 294 294 293 293 293 293 292 292 292 292 292 292 292 292 292 292 292 292 293 292 292 292 293 293 292 292 291
301 301 301 300 299 297 296 296 296 295 295 294 294 294 294 294 293 293 293 293 292 292 292 292 292 292 292 292 292 292 292 292 292 292 292 293 293 293 292 291 291 290
301 300 300 299 297 296 296 295 295 295 294 294 294 294 294 293 293 292 292 292 292 292 292 291 291 291 291 291 292 292 292 292 292 292 292 293 293 292 292 291 290 289
300 299 298 297 296 296 295 295 295 294 294 294 294 294 293 293 292 292 292 292 292 291 291 291 291 291 291 291 291 291 291 292 292 292 292 292 292 292 291 290 289 289
299 298 297 296 296 295 295 294 294 294 294 294 294 293 293 292 292 291 291 291 291 291 291 290 290 291 291 291 291 291 291 291 291 291 292 292 292 292 292 291 289 288
297 296 296 295 295 295 295 295 294 294 294 294 293 293 292 292 291 291 291 291 290 290 290 290 290 290 290 290 290 290 290 290 290 291 291 291 291 291 291 290 290 289

ECMWFNIL_850_thetae_105.txt.gz
Theta_e
324 323 323 323 323 324 324 324 324 322 320 320 320 319 317 315 314 313 312 312 312 312 312 311 311 310 309 308 307 306 305 304 303 303 302 301 300 300 299 298 298 297
322 322 322 322 323 324 324 324 322 320 318 319 318 315 314 313 312 312 312 312 312 311 310 310 309 308 307 306 304 304 303 302 302 301 300 299 299 298 298 298 297 297
321 322 322 322 323 322 322 321 319 318 318 317 314 312 312 312 312 312 312 311 311 310 310 309 307 306 304 303 303 302 301 301 300 300 299 299 298 298 297 297 297 297
321 323 323 323 322 321 319 318 317 316 315 313 312 312 312 312 312 312 311 311 310 309 308 306 304 303 302 302 302 301 300 300 299 299 298 298 297 297 297 297 296 296
320 322 322 321 320 318 317 317 316 314 313 312 312 312 312 312 312 311 310 310 309 307 305 303 302 302 302 302 301 301 300 299 298 298 297 297 297 297 296 296 296 296
318 318 318 317 316 315 316 315 313 312 312 312 312 312 312 311 311 310 310 308 306 304 303 302 302 302 302 301 300 299 298 298 297 297 297 296 296 296 296 296 296 296
315 314 314 314 314 315 314 312 312 312 312 312 312 312 311 311 310 309 307 305 303 302 302 302 302 302 301 300 299 298 298 297 297 296 296 296 296 296 296 296 296 295
313 314 314 314 314 313 312 312 312 312 312 312 312 311 311 310 308 307 305 303 302 302 302 302 301 301 300 299 298 297 297 297 297 296 296 296 296 296 296 295 295 295
314 314 313 313 312 312 312 312 312 312 312 312 311 310 310 308 306 304 302 302 302 303 302 301 300 299 299 298 298 297 297 297 296 296 296 296 295 295 295 295 295 295
313 313 312 312 312 312 312 312 312 312 311 311 310 309 308 306 304 302 302 303 303 302 301 300 299 298 298 298 297 297 297 296 296 296 295 295 295 295 295 294 294 294
312 312 312 312 312 312 312 312 312 311 311 310 309 307 305 303 302 302 303 303 302 301 300 299 298 298 298 297 297 297 296 296 295 295 295 295 294 294 294 294 294 293
312 312 312 312 312 312 312 312 311 311 310 309 306 304 303 303 302 303 303 302 301 300 299 298 298 298 297 297 296 296 296 295 295 295 294 294 294 293 293 293 293 293
312 312 312 312 312 312 312 311 311 310 308 306 304 303 303 303 303 302 302 300 299 298 298 298 297 297 297 296 296 295 295 295 295 294 294 294 293 293 293 293 293 293
312 312 312 312 312 311 311 310 309 308 306 304 303 303 302 302 302 301 300 299 298 298 297 297 297 296 296 296 295 295 295 295 294 294 294 293 293 293 293 293 293 293
312 312 312 312 311 311 310 309 307 305 304 303 303 302 302 301 300 299 298 297 297 297 297 297 296 296 295 295 295 295 295 294 294 294 293 293 293 292 293 293 293 293
312 312 311 311 311 310 308 307 305 304 303 303 302 302 301 300 298 297 297 297 297 297 296 296 295 295 295 295 295 294 294 294 293 293 293 292 292 292 293 293 293 292
311 311 311 310 309 308 306 305 304 303 302 302 301 300 299 297 297 297 297 296 296 296 296 295 295 295 295 295 294 294 294 293 293 292 292 292 292 292 292 292 292 292
311 311 310 309 308 306 304 303 303 302 302 301 300 298 297 296 296 296 296 296 296 295 295 295 295 295 295 294 294 294 293 293 292 292 292 292 292 292 292 292 292 292
310 310 309 308 306 304 303 302 302 302 301 299 298 296 296 296 296 296 296 295 295 295 295 295 295 294 294 294 293 293 293 292 292 292 292 292 292 292 292 291 291 292
310 309 308 306 304 303 302 302 302 301 299 297 296 296 296 296 295 295 295 295 295 295 295 295 294 294 293 293 293 293 292 292 292 292 292 292 291 291 291 291 291 291
309 307 306 304 303 302 301 301 300 299 298 296 296 296 295 295 295 295 295 295 295 295 294 294 294 293 293 293 293 292 292 292 292 292 291 291 291 291 291 291 291 291
307 306 304 303 302 301 301 300 299 297 296 296 296 295 295 295 295 295 295 295 295 294 294 293 293 293 293 293 293 292 292 292 291 291 291 291 291 291 291 291 290 290
306 304 303 302 301 301 300 299 297 296 295 296 295 295 295 295 295 295 295 294 294 293 293 293 293 293 293 292 292 292 292 291 291 291 291 291 291 291 291 290 290 290
304 303 302 301 301 300 299 297 296 295 295 295 295 295 294 294 294 294 294 293 293 293 293 293 293 293 292 292 292 292 291 291 291 291 291 291 291 291 291 290 289 289
303 301 301 300 300 299 297 296 295 295 295 295 294 294 294 294 294 294 293 293 293 293 292 293 293 292 292 292 291 291 291 291 290 290 290 291 290 290 290 290 289 288
301 300 300 299 298 297 296 295 295 295 295 294 294 294 294 294 294 293 293 293 293 293 293 292 292 292 291 291 291 290 290 290 290 290 290 290 290 290 290 289 288 288

ECMWFNIL_850_thetae_108.txt.gz
Theta_e
325 326 326 327 327 326 326 325 324 323 322 321 319 320 321 320 317 317 316 313 312 311 311 312 311 310 310 309 307 306 305 304 304 303 302 301 300 299 298 298 297 297
325 327 327 328 327 325 324 324 323 323 322 320 320 320 320 319 318 317 315 313 312 311 311 311 310 310 308 307 305 304 304 304 303 302 301 300 299 298 298 297 297 297
325 326 327 327 326 323 322 322 323 323 322 322 321 319 318 318 317 316 313 312 311 311 311 310 309 308 306 305 304 304 304 303 302 301 300 299 298 298 297 297 297 296
325 326 326 326 324 321 320 322 323 323 324 323 321 318 317 317 315 313 312 311 311 311 310 309 308 306 304 304 303 303 303 302 301 300 299 299 298 297 297 296 296 296
324 326 325 324 323 321 320 321 322 324 323 322 319 318 317 315 312 311 311 311 310 310 309 308 305 304 303 303 303 303 302 301 300 299 298 298 297 297 296 296 296 296
322 323 323 323 322 321 320 320 321 322 320 319 318 317 315 312 311 311 311 310 310 309 307 305 303 303 302 302 302 301 301 300 299 298 297 297 297 296 296 296 296 296
317 318 320 322 322 321 320 320 321 320 318 318 318 315 312 311 311 311 310 310 309 307 305 303 302 302 302 302 301 300 300 299 298 297 297 297 296 296 296 296 296 295
315 316 319 321 321 320 320 320 320 319 318 318 315 312 311 311 311 310 310 309 307 305 303 302 302 302 302 301 300 299 298 298 297 297 297 296 296 296 296 296 295 295
316 316 317 318 319 319 320 319 319 318 317 314 312 311 311 311 310 310 309 307 305 303 302 302 302 302 301 300 299 298 298 297 297 296 296 296 296 296 296 295 295 295
317 317 317 319 319 319 319 318 318 316 314 312 311 311 311 310 310 309 307 305 303 302 302 302 302 301 299 299 298 298 297 297 296 296 296 296 296 296 295 295 295 294
317 318 318 319 318 318 317 316 315 313 311 311 311 311 310 310 309 307 305 303 302 302 302 302 300 299 298 298 297 297 297 296 296 296 296 296 296 295 295 295 294 294
316 317 317 317 316 316 315 314 312 311 311 311 311 310 310 309 308 306 304 302 302 302 302 301 299 298 297 297 297 296 296 296 296 296 296 295 295 295 294 294 293 293
314 314 315 315 315 314 313 312 311 311 311 311 310 310 309 308 306 304 302 302 302 301 300 299 297 297 297 296 296 296 296 296 296 296 295 295 295 294 294 293 293 293
314 314 315 314 313 312 311 311 311 311 311 310 310 308 307 305 304 303 302 302 301 300 299 297 297 296 296 296 296 296 296 296 296 295 295 295 294 294 293 293 292 292
314 314 313 312 312 311 311 311 311 311 310 310 309 307 304 303 302 302 302 302 301 299 297 296 296 296 296 296 296 296 296 296 295 295 294 294 294 293 293 292 292 292
313 312 311 311 311 311 311 311 310 310 310 309 307 305 303 302 302 302 301 301 299 297 297 296 296 296 296 296 296 296 296 295 295 294 294 293 293 292 292 292 292 292
311 311 311 311 311 311 311 311 310 309 309 307 305 304 303 302 302 302 301 300 297 296 296 296 296 296 296 296 296 296 295 294 294 294 294 293 292 292 292 292 292 292
311 311 311 311 311 311 310 310 310 308 307 305 303 302 302 301 301 301 299 298 296 296 296 296 296 296 296 296 296 295 294 294 294 293 293 293 292 292 292 292 291 291
311 311 311 311 310 310 310 309 308 306 305 303 302 301 301 301 300 299 297 296 296 296 295 295 296 296 296 296 295 294 294 294 293 293 292 292 292 292 292 291 291 291
311 311 311 311 310 310 309 308 306 304 303 302 301 301 301 300 299 297 296 295 295 295 295 295 295 295 295 295 294 294 294 293 293 292 292 292 291 291 291 291 291 291
311 311 310 310 310 309 308 306 304 302 301 301 301 300 300 299 297 296 295 295 295 295 295 295 295 295 295 294 294 293 293 293 292 292 292 291 291 291 291 291 290 290
311 310 310 310 309 308 306 304 302 301 301 301 300 299 298 297 296 295 295 295 295 294 294 294 294 294 294 294 294 293 293 293 292 292 291 291 291 290 290 290 290 290
311 310 310 309 309 307 305 303 302 301 300 300 299 298 297 296 295 295 295 294 294 294 294 294 294 294 294 294 293 293 293 292 292 292 291 291 290 290 290 290 289 289
310 310 310 309 308 306 304 302 301 300 300 299 298 297 296 295 295 295 294 294 294 294 294 293 293 293 294 294 293 293 293 292 292 291 291 290 290 290 290 289 289 289
310 309 309 308 307 305 303 301 300 300 299 298 297 296 295 295 294 294 294 294 294 293 293 293 293 294 294 293 293 294 293 292 292 291 290 290 290 290 289 289 289 288
309 309 308 307 305 303 301 300 299 299 298 297 296 295 294 294 294 294 294 294 293 293 293 293 293 293 294 293 294 294 293 292 291 291 290 290 290 289 289 289 288 288

ECMWFNIL_850_thetae_111.txt.gz
Theta_e
318 320 321 322 324 325 326 328 328 328 327 326 324 323 322 322 320 318 317 316 316 315 313 312 312 311 311 310 309 307 305 305 305 305 305 305 304 303 301 299 298 298
318 320 321 323 324 325 326 327 327 327 327 326 324 322 322 322 319 317 317 315 315 313 312 311 311 311 310 309 307 305 304 304 305 305 305 305 303 301 299 298 298 297
318 321 323 324 324 325 326 327 326 326 326 326 324 321 322 321 318 319 319 316 314 313 311 311 311 310 309 307 305 304 304 304 305 305 304 303 301 300 298 298 297 297
319 322 323 323 325 326 327 327 326 325 325 324 322 320 320 318 317 319 319 315 314 312 311 311 310 309 308 305 303 303 304 304 304 304 303 301 299 298 297 297 297 296
320 321 322 324 326 328 328 327 326 325 323 322 322 322 321 318 316 317 317 314 313 311 311 310 309 308 305 303 303 303 303 304 303 302 301 300 298 298 297 297 296 296
322 323 324 324 326 327 327 326 326 325 321 321 323 324 322 320 319 317 315 313 312 311 310 310 308 306 303 302 303 303 303 303 302 301 300 298 297 297 297 296 296 296
322 323 324 325 326 327 326 325 326 324 321 320 323 324 323 322 319 316 313 312 311 310 310 309 306 304 302 302 303 303 302 301 301 300 298 297 297 296 296 296 296 296
323 324 324 324 325 327 327 325 324 323 320 320 322 324 323 321 318 314 312 311 310 310 309 307 304 302 302 302 302 302 301 300 299 298 297 297 296 296 296 296 296 296
321 321 320 321 324 328 328 324 322 322 319 320 322 323 321 319 316 312 311 310 310 310 308 305 303 301 301 301 301 300 300 299 298 297 297 296 296 297 297 296 296 295
316 315 315 318 322 324 324 321 323 322 319 320 322 321 319 317 315 311 310 310 310 309 306 303 302 301 301 301 300 299 298 298 297 296 296 296 297 297 296 296 295 295
312 312 313 317 318 319 320 323 326 323 319 319 319 318 318 316 313 310 310 310 309 307 304 302 301 301 301 300 299 298 298 297 296 296 296 296 297 296 296 295 295 294
312 313 315 317 318 319 322 325 325 321 318 318 318 318 318 314 310 310 310 309 308 305 302 301 300 300 300 299 298 298 297 296 296 296 296 297 296 296 295 295 294 294
313 315 317 318 318 320 322 322 321 319 318 319 319 318 315 311 310 311 310 308 306 303 300 300 300 300 299 298 297 297 296 296 296 296 297 296 296 295 295 294 294 294
314 316 318 319 318 318 319 319 319 319 320 320 319 315 311 310 310 310 309 306 303 300 299 299 299 299 298 297 297 296 296 296 296 296 296 295 295 295 294 294 294 293
316 317 318 318 319 319 320 321 320 320 321 319 316 312 310 310 310 309 308 305 301 299 299 299 299 298 297 296 296 296 295 296 296 296 295 294 294 294 294 294 293 293
318 318 319 319 321 321 321 320 320 320 318 315 312 310 310 310 309 308 305 302 301 299 299 299 298 297 296 296 295 295 295 295 295 295 294 294 294 294 294 293 293 292
318 318 319 319 319 319 318 318 319 317 314 311 310 310 310 309 308 305 302 300 299 299 300 299 297 296 296 295 295 295 295 295 294 294 294 294 294 294 293 293 292 292
315 315 316 316 316 317 317 318 317 314 311 309 310 310 309 308 305 302 300 299 298 299 299 298 296 296 295 295 295 295 294 294 294 294 294 294 293 293 293 292 292 292
314 314 315 316 316 316 316 315 313 310 310 310 310 309 308 306 302 300 299 298 299 299 298 296 295 295 295 295 294 294 294 294 294 294 294 293 293 293 292 292 292 291
315 315 315 316 315 314 312 311 310 310 310 309 309 308 307 304 301 299 298 298 299 298 297 296 295 295 294 294 294 294 294 293 293 293 293 293 293 293 293 292 292 291
314 315 315 314 313 311 310 310 310 310 310 309 309 307 305 302 300 298 298 299 298 297 296 295 295 294 294 294 294 293 293 293 293 293 293 293 293 293 293 292 292 291
312 312 312 312 311 310 310 310 310 309 309 309 307 305 302 300 299 298 298 298 297 296 295 295 294 294 294 294 293 293 293 293 293 293 293 293 293 293 293 292 291 290
311 311 311 311 311 310 310 310 310 309 309 308 306 303 300 298 298 298 298 297 296 295 294 294 294 294 293 293 293 293 293 293 293 293 293 292 292 293 293 292 291 290
311 311 311 311 311 311 311 310 310 310 309 307 305 302 299 298 297 297 297 296 295 294 294 294 294 293 293 293 293 293 293 293 293 292 292 292 292 293 292 291 290 290
311 311 311 311 311 311 310 310 310 309 308 305 302 300 298 298 297 297 296 295 294 294 293 293 293 293 293 292 293 293 293 293 293 292 292 292 293 292 291 290 290 289
311 311 311 311 311 310 310 309 309 308 307 303 300 298 297 297 297 296 295 294 294 293 293 293 293 293 293 292 292 293 293 293 293 293 293 293 292 291 290 290 289 289

ECMWFNIL_850_thetae_114.txt.gz
Theta_e
313 314 315 316 317 318 320 322 324 326 328 329 329 329 327 325 326 326 325 324 322 321 319 316 316 316 316 317 316 313 311 309 308 306 305 306 306 305 304 302 301 301
314 315 316 316 316 318 319 321 324 326 328 329 329 329 328 326 325 325 325 324 323 321 318 316 315 315 315 315 313 311 310 307 305 305 306 306 305 304 303 302 301 300
315 316 316 317 317 317 319 321 324 327 328 329 330 329 328 327 326 325 324 324 323 320 317 315 315 314 313 312 311 310 308 305 305 305 306 305 304 303 302 301 300 299
315 316 317 318 318 319 320 322 325 326 328 330 330 328 327 328 327 325 322 322 321 318 315 315 313 312 311 311 310 308 305 304 304 304 305 304 303 302 301 300 299 298
313 315 317 319 321 322 323 324 325 326 327 329 329 328 328 329 327 323 321 322 320 316 314 314 312 310 311 310 309 306 304 304 304 303 304 303 301 301 300 299 298 298
313 314 317 319 323 324 324 325 326 326 327 328 327 327 328 327 325 322 323 323 320 317 315 313 311 310 310 309 307 304 303 304 303 303 303 302 300 300 299 298 298 299
313 314 316 320 324 325 326 326 326 327 327 326 327 326 326 325 323 322 323 322 319 318 317 313 310 310 310 308 305 302 302 303 302 301 302 300 300 299 298 298 299 300
313 315 317 321 324 326 327 327 327 327 327 327 327 326 325 324 322 321 320 318 317 318 316 312 310 310 309 306 303 302 302 302 301 300 300 300 299 298 298 299 300 300
313 315 318 322 325 326 327 327 327 327 326 326 326 325 325 323 322 322 320 317 317 317 314 311 310 310 308 304 301 301 301 301 300 300 299 299 298 298 299 300 300 299
314 317 320 323 325 326 327 327 327 327 327 327 326 326 326 322 322 324 321 318 318 316 313 311 310 309 307 302 300 300 299 299 299 299 298 298 297 298 299 300 299 297
317 319 322 324 325 326 326 326 326 326 327 326 326 327 325 321 322 325 323 321 320 315 311 310 310 308 304 300 299 299 298 297 298 298 297 297 297 299 299 298 297 296
319 321 323 324 325 326 326 325 325 326 326 326 326 327 325 321 322 324 323 322 320 314 310 310 309 306 302 299 299 299 298 297 297 297 297 297 298 298 298 296 296 295
316 318 321 322 324 324 325 325 325 324 326 327 327 326 323 321 322 323 323 322 317 311 309 309 308 304 300 298 299 298 298 297 296 296 296 297 298 297 296 295 295 295
313 314 315 317 318 320 321 322 322 323 327 328 326 323 321 320 322 323 322 320 314 309 309 309 306 302 299 298 298 297 297 296 296 296 296 297 297 296 295 295 295 294
312 312 312 313 314 314 316 318 322 325 325 324 323 323 321 320 322 321 320 318 313 309 309 307 304 300 298 298 297 297 296 296 296 296 296 296 296 295 295 295 294 294
311 311 312 313 313 315 318 321 323 324 322 321 322 322 320 319 319 319 319 317 311 308 308 305 301 298 297 297 297 296 296 296 296 296 296 296 295 295 295 294 294 293
312 313 315 316 317 319 321 320 320 322 322 322 322 320 318 317 318 319 320 315 310 308 307 302 299 297 296 296 295 295 295 295 295 295 295 295 294 294 294 294 293 293
313 315 316 317 318 320 320 317 317 321 323 322 320 319 318 319 320 320 317 311 308 308 305 300 297 296 296 296 295 295 295 295 295 295 295 294 294 294 294 293 293 293
315 315 315 316 318 320 320 318 317 319 320 319 319 319 319 321 321 318 313 309 308 306 302 298 297 296 296 295 295 295 295 294 294 294 294 294 294 293 293 293 293 293
316 316 317 317 317 318 319 319 319 319 319 319 319 320 320 321 319 314 309 308 307 303 299 297 296 296 296 295 295 294 294 294 294 294 294 294 293 293 293 293 293 293
317 317 318 318 318 319 319 319 319 319 319 318 318 319 319 318 315 310 308 308 305 301 298 297 296 296 295 295 294 294 294 294 294 293 293 293 293 293 292 292 293 293
315 315 316 316 317 318 318 317 317 317 317 317 318 318 316 313 310 308 308 306 302 299 297 296 295 295 295 294 294 294 294 293 293 293 293 293 292 292 292 293 293 294
312 312 313 313 314 315 315 315 315 315 316 317 316 315 312 310 308 308 307 303 300 298 296 296 295 295 294 294 293 293 293 293 293 293 293 292 292 292 292 293 294 294
312 312 313 314 314 314 314 314 315 315 315 314 313 311 309 309 308 307 304 301 298 297 296 295 295 294 294 293 293 293 293 293 293 292 292 292 291 292 293 294 295 294
313 313 314 314 314 314 315 314 314 313 312 311 310 309 309 308 308 306 302 299 296 295 295 295 294 294 293 293 293 293 292 292 292 292 292 292 292 293 294 295 294 294
312 312 312 312 313 313 313 313 312 311 310 310 309 309 308 308 307 304 300 297 296 295 294 294 293 293 293 293 293 292 292 292 292 292 292 292 293 295 296 296 295 294

ECMWFNIL_850_thetae_117.txt.gz
Theta_e
313 313 313 313 313 314 314 315 316 316 317 317 317 318 320 323 325 324 322 322 322 322 323 323 322 320 320 320 320 321 322 321 319 315 314 313 309 306 306 306 305 303
313 313 313 313 313 314 315 315 316 315 314 315 316 317 320 324 326 326 323 323 323 322 323 323 323 321 321 320 319 319 319 318 317 315 313 310 306 305 306 305 304 303
313 312 313 313 313 314 314 315 316 315 314 315 316 316 319 324 327 327 325 323 323 324 324 324 323 322 321 320 317 317 316 316 317 314 310 307 306 306 306 305 303 301
312 313 313 314 314 315 315 316 316 316 316 316 316 315 319 324 327 327 326 326 324 324 324 324 323 322 322 319 315 315 316 316 315 312 308 306 305 305 305 303 302 301
312 313 315 315 316 317 317 317 316 316 316 317 316 316 320 325 327 327 326 327 327 324 323 324 323 322 322 319 315 315 316 314 312 309 306 305 305 305 304 302 302 300
312 313 314 315 317 319 319 317 318 317 317 318 317 317 321 326 328 327 325 327 328 326 325 324 322 322 321 318 315 315 314 312 310 307 305 305 305 304 303 302 301 299
312 312 314 316 318 320 320 318 319 320 319 320 319 319 323 326 328 327 326 326 326 326 327 324 322 321 320 316 314 314 312 310 308 305 304 305 304 303 302 301 300 299
312 312 314 316 318 319 320 320 320 321 321 321 321 322 324 327 327 327 327 326 326 327 327 324 321 320 318 315 313 312 311 309 306 304 304 304 302 302 301 300 299 299
311 311 313 314 316 317 318 319 320 321 322 323 324 324 326 327 327 326 327 327 327 328 326 323 321 320 318 314 312 310 310 307 304 303 303 303 302 301 300 299 298 299
310 310 312 313 314 315 317 319 321 322 324 325 326 326 327 327 326 326 327 327 328 327 324 322 322 321 319 314 311 310 309 305 302 302 302 301 301 300 299 298 298 299
310 311 311 311 313 314 317 320 321 323 325 326 327 327 327 328 326 326 327 328 328 325 322 323 323 321 319 315 311 309 307 303 301 302 301 300 299 298 297 297 298 299
312 312 312 313 313 315 318 320 322 324 325 327 328 328 328 328 326 326 327 327 327 324 322 322 320 318 318 315 310 308 305 301 300 300 299 298 298 297 297 297 298 298
313 313 314 315 316 317 319 321 322 324 326 328 329 328 328 327 326 327 328 327 325 323 322 320 318 317 316 313 309 307 304 300 299 299 298 297 297 297 296 297 297 297
313 313 314 315 317 319 321 323 324 325 326 328 329 329 328 327 326 327 327 327 324 323 322 321 319 319 315 311 309 306 302 299 298 298 297 297 296 296 296 296 296 295
312 312 312 313 315 319 322 324 324 325 326 328 328 328 328 327 327 327 327 326 324 322 323 321 321 320 315 309 308 305 300 298 298 297 297 296 296 296 296 296 295 295
311 311 311 312 313 317 321 324 325 325 326 327 328 328 327 326 327 327 327 325 322 321 322 320 321 320 314 309 308 304 299 298 297 297 296 296 295 295 295 295 295 295
311 311 311 311 312 314 317 320 322 324 325 326 327 328 327 326 326 325 324 323 320 319 321 320 321 319 312 308 307 302 298 297 297 297 296 295 295 295 295 295 294 294
310 310 311 311 312 312 313 315 318 320 322 323 324 324 323 323 324 324 323 321 320 320 320 320 321 318 311 308 305 300 297 297 296 296 295 295 295 294 294 294 294 294
310 309 310 310 310 311 311 312 313 314 316 317 319 319 320 322 323 323 322 321 321 321 320 319 318 314 310 307 303 298 296 296 295 295 295 294 294 294 294 294 294 294
309 308 308 309 311 313 313 312 313 315 316 317 319 320 321 322 322 322 322 321 320 319 319 318 316 311 308 306 301 296 296 295 295 294 294 294 294 293 293 294 293 293
310 308 307 309 313 315 316 315 316 319 319 319 319 320 320 320 321 322 321 319 318 317 318 319 315 310 308 304 298 296 295 295 294 294 293 293 293 293 293 293 293 293
311 309 309 310 312 313 314 316 319 320 319 317 316 318 320 320 321 320 318 318 318 319 319 319 314 309 306 301 297 295 295 294 294 293 293 293 293 293 293 293 293 293
311 310 310 311 313 314 314 315 318 319 319 317 316 317 320 320 319 319 318 318 319 319 319 316 311 307 304 299 296 295 295 294 294 293 293 293 293 293 293 292 292 293
312 311 310 311 313 315 316 315 316 317 317 318 318 318 319 319 318 318 318 318 318 319 317 313 309 306 302 297 296 295 294 294 294 293 293 293 292 292 292 292 292 293
312 312 311 310 311 314 316 317 317 317 317 318 319 318 318 318 318 317 317 317 317 317 314 310 307 304 300 297 295 295 294 294 293 293 293 292 292 292 292 292 292 294
312 312 311 311 311 312 313 315 316 316 317 317 317 317 316 316 316 315 315 316 315 313 310 307 305 302 298 296 295 294 294 293 293 292 292 292 292 292 291 292 293 295

ECMWFNIL_850_thetae_120.txt.gz
Theta_e
315 315 315 315 315 315 315 315 316 316 316 316 316 317 317 317 319 320 322 322 323 323 322 322 322 320 320 321 321 320 321 322 322 319 319 321 322 321 317 315 315 312
315 316 316 316 316 316 316 316 317 317 317 317 317 318 318 318 320 321 322 323 323 324 323 322 321 320 323 324 322 321 322 320 320 320 320 321 322 320 316 314 313 308
315 316 315 315 315 315 316 318 319 319 319 319 320 320 319 319 319 321 322 323 324 324 323 322 322 322 325 324 321 321 321 320 320 321 321 321 321 319 316 313 309 305
315 315 316 316 316 317 318 320 320 320 320 320 321 321 321 320 319 320 322 323 325 326 325 323 322 323 323 320 320 322 322 320 320 320 321 320 319 319 317 311 306 305
314 315 317 318 319 320 321 322 321 321 320 321 321 322 321 320 320 320 321 324 327 328 327 325 323 322 321 319 320 323 322 321 321 320 321 320 318 319 317 309 305 304
314 315 316 317 318 320 322 322 323 322 322 322 322 322 321 320 320 319 320 324 328 329 328 326 324 322 322 322 322 323 322 321 321 321 320 318 317 319 315 306 303 304
314 314 314 315 316 318 320 321 323 323 324 324 324 324 323 321 320 319 320 324 328 329 328 327 325 322 322 323 324 324 323 321 321 320 318 316 317 317 312 304 302 303
314 313 313 315 316 317 319 320 322 322 324 325 326 325 324 322 321 320 320 323 327 329 328 327 326 324 324 324 323 324 323 321 321 320 317 316 317 315 308 303 302 302
312 313 313 314 315 317 318 319 320 321 322 323 324 324 324 322 321 320 320 322 327 329 328 328 326 325 326 326 324 323 323 322 321 319 317 316 315 310 305 302 302 301
311 311 312 313 314 316 318 319 320 320 321 321 322 323 323 322 322 321 321 323 327 329 329 328 326 326 327 327 325 324 323 321 320 317 315 314 312 307 303 302 302 301
310 310 310 311 311 313 314 317 318 320 321 321 322 322 322 322 322 323 323 324 327 329 330 329 327 326 326 325 325 324 322 320 317 314 313 312 309 304 301 301 301 300
311 310 310 309 309 309 310 313 315 318 321 322 322 322 322 322 323 324 325 326 328 329 330 328 327 327 327 326 325 323 321 319 316 312 310 310 307 302 299 299 299 298
312 312 311 311 310 309 309 311 314 316 318 320 321 321 321 322 323 325 327 328 329 330 329 327 326 327 327 325 324 322 321 320 317 311 309 309 305 300 298 297 297 297
312 312 312 312 312 312 312 314 315 316 318 320 322 322 322 322 323 325 327 328 329 329 328 326 325 327 326 324 322 321 321 321 318 312 309 308 303 298 297 296 296 296
311 311 311 312 312 313 314 315 316 317 318 320 322 322 322 322 324 326 327 328 329 329 328 325 325 326 325 322 320 320 320 320 318 313 309 305 301 297 296 296 296 296
312 311 311 311 311 312 313 315 317 317 318 320 321 322 323 324 325 326 327 328 329 328 326 325 326 326 324 321 320 319 319 317 316 313 308 303 299 296 296 296 296 296
312 311 311 311 311 311 311 313 316 318 319 321 322 323 324 325 326 326 327 328 328 326 324 324 326 326 324 322 321 320 319 317 315 312 307 301 297 296 296 296 296 296
312 312 312 311 311 311 311 311 314 316 319 321 322 323 324 325 326 326 327 327 326 325 325 325 325 325 324 322 321 321 319 315 313 310 305 299 296 296 296 296 296 296
312 312 312 311 311 310 310 310 311 313 316 319 321 323 324 325 326 326 326 326 324 323 325 325 324 323 322 322 321 321 318 314 311 309 304 298 296 296 295 295 295 295
312 312 312 312 311 310 310 310 311 311 312 315 318 322 323 324 324 324 325 324 323 323 324 324 322 321 321 321 320 320 318 313 309 307 302 297 296 295 295 295 295 295
312 312 312 312 311 310 309 309 310 310 311 312 315 319 321 321 322 323 323 322 322 323 323 323 322 320 320 320 320 320 319 313 308 305 300 296 295 295 295 295 294 294
312 312 312 311 310 309 308 308 309 310 311 311 312 314 316 317 319 320 320 320 321 321 322 322 321 320 319 319 319 319 318 312 307 303 299 295 295 295 294 294 294 294
312 312 312 310 310 309 308 310 312 313 312 313 314 315 316 317 318 318 319 320 321 321 321 321 320 320 319 318 317 317 315 310 305 302 297 295 294 294 294 294 294 294
312 312 312 310 310 310 310 311 313 313 313 315 317 318 318 318 318 318 319 320 320 320 320 320 319 319 317 317 317 317 313 308 304 300 296 295 294 294 294 294 293 293
312 312 312 311 310 310 311 312 313 313 314 316 318 319 318 317 316 317 318 318 319 318 319 319 318 318 317 317 317 317 313 307 303 300 296 295 294 294 294 293 293 293
312 312 312 312 311 311 311 312 314 314 315 316 317 318 318 317 317 318 318 319 318 318 318 318 317 318 318 317 317 315 311 307 303 300 297 295 294 294 294 293 293 292

ECMWFNIL_850_thetae_123.txt.gz
Theta_e
316 317 318 317 317 317 317 318 318 318 318 318 318 318 318 319 320 321 322 323 324 324 325 326 326 326 326 326 325 325 325 325 324 324 324 322 320 319 319 319 320 319
316 317 318 318 317 317 317 318 318 318 318 318 319 318 319 320 320 321 321 322 323 323 325 326 326 326 326 326 326 325 325 325 325 325 324 323 320 319 319 318 319 320
316 317 317 317 317 316 316 318 319 318 318 319 319 319 319 319 320 320 321 321 321 322 323 325 325 326 326 326 327 326 325 326 326 324 322 320 319 320 320 319 319 320
316 316 316 316 316 316 317 319 319 319 319 319 319 319 320 320 320 321 321 321 321 322 322 323 324 325 326 326 327 327 326 326 325 322 320 319 319 320 320 318 319 320
316 316 316 317 316 317 318 320 319 319 320 320 320 321 321 321 321 322 322 322 322 322 322 323 323 324 325 327 327 327 327 326 324 322 321 322 323 322 319 318 319 321
315 316 316 317 317 318 319 318 318 319 319 319 320 321 322 322 322 323 323 323 323 323 323 323 323 324 325 326 327 327 326 324 323 323 323 323 322 321 319 319 320 321
314 314 315 317 318 319 320 319 319 319 319 320 321 322 323 323 324 324 324 325 324 324 324 324 323 324 325 326 327 327 325 323 324 324 322 320 319 319 320 320 320 320
313 313 314 316 318 319 319 320 320 321 321 322 323 323 324 324 324 325 325 326 325 325 325 324 323 322 323 325 326 327 325 324 324 322 320 319 320 320 320 321 321 320
312 313 314 316 317 318 319 320 320 321 322 322 323 323 323 324 325 326 326 326 326 326 325 323 322 321 322 324 325 327 326 325 324 321 320 322 321 321 321 321 321 320
311 312 313 315 316 316 317 318 319 320 320 321 322 322 323 324 325 325 326 326 326 326 325 323 322 322 323 324 325 327 327 326 325 322 321 323 323 322 320 320 321 319
310 310 311 312 312 313 314 315 317 318 319 320 321 322 323 324 325 325 325 326 326 326 325 324 322 322 323 324 326 327 328 327 325 323 323 322 322 322 321 321 320 318
310 311 310 310 310 311 312 313 315 316 318 319 321 322 323 324 324 325 325 325 325 325 325 324 322 322 323 325 326 327 328 327 324 324 325 323 322 322 321 320 318 317
312 311 311 311 310 310 310 311 313 315 318 320 321 321 322 323 324 324 325 325 326 326 325 324 322 322 323 325 326 327 328 326 323 323 325 323 322 321 319 317 315 315
312 312 312 312 311 311 311 310 311 313 316 319 321 322 322 322 322 322 323 324 325 324 323 322 322 322 323 325 326 326 327 325 323 323 324 323 321 321 319 315 313 313
311 311 311 311 311 311 311 311 311 311 312 314 317 320 321 321 322 323 324 324 323 321 321 322 323 324 325 326 326 326 326 325 323 323 323 322 321 321 319 315 311 310
311 311 311 311 311 311 311 311 311 311 311 311 312 316 318 319 321 323 323 323 323 321 321 323 324 325 325 326 326 326 325 324 324 323 322 321 321 321 319 315 311 307
311 311 311 311 311 311 311 311 311 311 312 313 314 316 318 319 319 321 322 323 323 322 322 323 325 325 326 325 325 325 325 324 324 323 321 320 320 320 320 317 312 305
311 311 312 312 311 311 311 311 311 310 311 312 313 315 316 318 319 320 321 322 322 322 323 324 325 325 326 325 323 324 325 325 324 322 321 319 319 319 318 316 312 305
311 311 312 312 312 312 311 311 311 310 310 311 312 314 316 317 318 319 320 321 322 323 323 324 325 325 325 324 323 324 324 323 322 322 321 320 319 318 317 314 310 304
311 311 312 312 312 312 311 311 311 310 310 310 311 312 315 317 318 319 321 321 322 323 323 323 324 323 323 323 323 324 322 320 321 321 320 320 319 317 315 312 308 302
310 311 311 312 312 312 311 311 311 310 310 310 309 310 313 316 318 318 320 321 322 323 323 323 323 322 322 322 323 322 320 320 321 320 319 319 318 314 312 310 305 300
310 311 311 311 312 312 312 312 311 310 309 309 309 309 311 313 316 318 319 321 322 322 322 321 321 321 321 321 321 320 320 320 320 319 318 319 317 313 310 307 302 297
310 311 311 311 312 312 312 312 311 311 309 308 309 309 310 311 313 316 318 319 320 321 321 321 320 320 320 320 320 319 320 320 320 319 319 319 317 313 309 304 299 295
311 311 311 311 312 312 312 312 311 310 309 308 309 310 310 311 312 314 315 316 317 317 318 319 319 319 319 320 319 319 319 319 319 318 318 318 316 312 307 302 297 294
310 311 311 311 312 312 311 311 311 310 309 309 310 310 312 313 315 315 315 315 316 316 317 318 319 319 319 318 318 318 318 317 317 317 316 316 316 312 305 299 295 294
310 310 311 311 312 312 311 311 311 310 310 310 310 311 312 315 316 317 317 316 316 316 317 318 319 319 319 318 318 317 317 317 317 316 316 316 315 311 305 298 295 294